Wetterdaten: Mittwoch, 16.08.2023
Datum Zeit Temp. I. Temp. A. Feuchte I. Feuchte A. Luftdruck Regen Wind Richtung Richtung Sonnenschein Solar Taupunkt Windchill Windböen
16.08.2023 00:00 23,9 °C 20,2 °C 68 % 93 % 1018,4 hPa 0,0 l/m² 6,4 km/h (2 Bft) N 355 ° 0 min 0 W/m² 19,0 °C 20,2 °C 8,0 km/h (2 Bft)
16.08.2023 00:01 23,9 °C 20,2 °C 68 % 93 % 1018,4 hPa 0,2 l/m² 3,6 km/h (1 Bft) N 9 ° 0 min 0 W/m² 19,0 °C 20,2 °C 6,4 km/h (2 Bft)
16.08.2023 00:02 23,8 °C 20,2 °C 68 % 93 % 1018,5 hPa 0,0 l/m² 4,3 km/h (1 Bft) N 9 ° 0 min 0 W/m² 19,0 °C 20,2 °C 4,8 km/h (1 Bft)
16.08.2023 00:05 23,8 °C 20,2 °C 68 % 93 % 1018,5 hPa 0,0 l/m² 1,9 km/h (1 Bft) N-NW 331 ° 0 min 0 W/m² 19,0 °C 20,2 °C 4,8 km/h (1 Bft)
16.08.2023 00:07 23,9 °C 20,2 °C 68 % 93 % 1018,4 hPa 0,2 l/m² 2,4 km/h (1 Bft) N-NW 342 ° 0 min 0 W/m² 19,0 °C 20,2 °C 6,4 km/h (2 Bft)
16.08.2023 00:09 23,9 °C 20,2 °C 68 % 93 % 1018,5 hPa 0,0 l/m² 0,8 km/h (0 Bft) N-NW 342 ° 0 min 0 W/m² 19,0 °C 20,2 °C 3,2 km/h (1 Bft)
16.08.2023 00:11 23,8 °C 20,1 °C 68 % 93 % 1018,5 hPa 0,2 l/m² 0,0 km/h (0 Bft) N-NW 342 ° 0 min 0 W/m² 18,9 °C 20,1 °C 1,6 km/h (1 Bft)
16.08.2023 00:12 23,8 °C 20,1 °C 68 % 93 % 1018,5 hPa 0,0 l/m² 0,3 km/h (0 Bft) N-NW 342 ° 0 min 0 W/m² 18,9 °C 20,1 °C 1,6 km/h (1 Bft)
16.08.2023 00:13 23,8 °C 20,1 °C 68 % 94 % 1018,5 hPa 0,0 l/m² 0,2 km/h (0 Bft) N-NW 342 ° 0 min 0 W/m² 19,1 °C 20,1 °C 3,2 km/h (1 Bft)
16.08.2023 00:15 23,8 °C 20,1 °C 68 % 94 % 1018,5 hPa 0,0 l/m² 0,5 km/h (0 Bft) N-NW 342 ° 0 min 0 W/m² 19,1 °C 20,1 °C 3,2 km/h (1 Bft)
16.08.2023 00:17 23,8 °C 20,1 °C 68 % 94 % 1018,6 hPa 0,2 l/m² 0,3 km/h (0 Bft) N-NW 342 ° 0 min 0 W/m² 19,1 °C 20,1 °C 1,6 km/h (1 Bft)
16.08.2023 00:19 23,8 °C 20,1 °C 68 % 94 % 1018,6 hPa 0,0 l/m² 0,6 km/h (0 Bft) N-NW 342 ° 0 min 0 W/m² 19,1 °C 20,1 °C 3,2 km/h (1 Bft)
16.08.2023 00:21 23,8 °C 20,1 °C 68 % 94 % 1018,5 hPa 0,0 l/m² 1,8 km/h (1 Bft) N-NW 342 ° 0 min 0 W/m² 19,1 °C 20,1 °C 3,2 km/h (1 Bft)
16.08.2023 00:22 23,8 °C 20,1 °C 68 % 94 % 1018,6 hPa 0,0 l/m² 2,7 km/h (1 Bft) N-NW 336 ° 0 min 0 W/m² 19,1 °C 20,1 °C 4,8 km/h (1 Bft)
16.08.2023 00:23 23,8 °C 20,1 °C 68 % 94 % 1018,6 hPa 0,2 l/m² 1,7 km/h (1 Bft) N-NW 327 ° 0 min 0 W/m² 19,1 °C 20,1 °C 3,2 km/h (1 Bft)
16.08.2023 00:25 23,8 °C 20,1 °C 68 % 94 % 1018,7 hPa 0,0 l/m² 0,3 km/h (0 Bft) NW 325 ° 0 min 0 W/m² 19,1 °C 20,1 °C 1,6 km/h (1 Bft)
16.08.2023 00:27 23,8 °C 20,0 °C 68 % 94 % 1018,6 hPa 0,0 l/m² 2,1 km/h (1 Bft) W-SW 252 ° 0 min 0 W/m² 19,0 °C 20,0 °C 6,4 km/h (2 Bft)
16.08.2023 00:29 23,8 °C 20,1 °C 68 % 94 % 1018,7 hPa 0,0 l/m² 2,5 km/h (1 Bft) W-SW 257 ° 0 min 0 W/m² 19,1 °C 20,1 °C 4,8 km/h (1 Bft)
16.08.2023 00:31 23,8 °C 20,1 °C 68 % 94 % 1018,8 hPa 0,0 l/m² 4,5 km/h (1 Bft) W-SW 245 ° 0 min 0 W/m² 19,1 °C 20,1 °C 6,4 km/h (2 Bft)
16.08.2023 00:33 23,8 °C 20,1 °C 68 % 94 % 1018,8 hPa 0,0 l/m² 2,2 km/h (1 Bft) W-SW 245 ° 0 min 0 W/m² 19,1 °C 20,1 °C 4,8 km/h (1 Bft)
16.08.2023 00:34 23,8 °C 20,1 °C 68 % 94 % 1018,8 hPa 0,0 l/m² 0,7 km/h (0 Bft) W-SW 245 ° 0 min 0 W/m² 19,1 °C 20,1 °C 3,2 km/h (1 Bft)
16.08.2023 00:35 23,8 °C 20,0 °C 68 % 94 % 1018,8 hPa 0,0 l/m² 0,0 km/h (0 Bft) W-SW 245 ° 0 min 0 W/m² 19,0 °C 20,0 °C 0,0 km/h (0 Bft)
16.08.2023 00:37 23,8 °C 20,0 °C 68 % 94 % 1018,8 hPa 0,0 l/m² 1,0 km/h (0 Bft) W-SW 245 ° 0 min 0 W/m² 19,0 °C 20,0 °C 4,8 km/h (1 Bft)
16.08.2023 00:39 23,8 °C 20,0 °C 68 % 94 % 1018,9 hPa 0,0 l/m² 3,0 km/h (1 Bft) W-SW 245 ° 0 min 0 W/m² 19,0 °C 20,0 °C 4,8 km/h (1 Bft)
16.08.2023 00:41 23,8 °C 20,0 °C 68 % 94 % 1018,9 hPa 0,0 l/m² 3,3 km/h (1 Bft) W-SW 245 ° 0 min 0 W/m² 19,0 °C 20,0 °C 6,4 km/h (2 Bft)
16.08.2023 00:42 23,8 °C 20,0 °C 68 % 94 % 1018,9 hPa 0,0 l/m² 2,7 km/h (1 Bft) W-SW 245 ° 0 min 0 W/m² 19,0 °C 20,0 °C 4,8 km/h (1 Bft)
16.08.2023 00:43 23,8 °C 20,0 °C 68 % 94 % 1018,8 hPa 0,0 l/m² 1,1 km/h (1 Bft) W-SW 245 ° 0 min 0 W/m² 19,0 °C 20,0 °C 3,2 km/h (1 Bft)
16.08.2023 00:45 23,8 °C 20,0 °C 68 % 94 % 1018,7 hPa 0,0 l/m² 0,3 km/h (0 Bft) W-SW 245 ° 0 min 0 W/m² 19,0 °C 20,0 °C 3,2 km/h (1 Bft)
16.08.2023 00:46 23,8 °C 20,0 °C 68 % 94 % 1018,7 hPa 0,0 l/m² 0,7 km/h (0 Bft) W-SW 245 ° 0 min 0 W/m² 19,0 °C 20,0 °C 1,6 km/h (1 Bft)
16.08.2023 00:47 23,8 °C 20,0 °C 68 % 94 % 1018,6 hPa 0,0 l/m² 0,9 km/h (0 Bft) W-SW 245 ° 0 min 0 W/m² 19,0 °C 20,0 °C 3,2 km/h (1 Bft)
16.08.2023 00:48 23,8 °C 19,9 °C 68 % 94 % 1018,6 hPa 0,0 l/m² 0,5 km/h (0 Bft) W-SW 245 ° 0 min 0 W/m² 18,9 °C 19,9 °C 1,6 km/h (1 Bft)
16.08.2023 00:50 23,8 °C 19,9 °C 68 % 94 % 1018,5 hPa 0,0 l/m² 0,0 km/h (0 Bft) W-SW 245 ° 0 min 0 W/m² 18,9 °C 19,9 °C 0,0 km/h (0 Bft)
16.08.2023 00:52 23,8 °C 19,9 °C 68 % 94 % 1018,6 hPa 0,0 l/m² 0,0 km/h (0 Bft) W-SW 245 ° 0 min 0 W/m² 18,9 °C 19,9 °C 0,0 km/h (0 Bft)
16.08.2023 00:53 23,8 °C 19,9 °C 68 % 94 % 1018,6 hPa 0,0 l/m² 0,0 km/h (0 Bft) W-SW 245 ° 0 min 0 W/m² 18,9 °C 19,9 °C 0,0 km/h (0 Bft)
16.08.2023 00:54 23,8 °C 19,9 °C 68 % 94 % 1018,6 hPa 0,0 l/m² 0,2 km/h (0 Bft) W-SW 245 ° 0 min 0 W/m² 18,9 °C 19,9 °C 1,6 km/h (1 Bft)
16.08.2023 00:56 23,8 °C 19,9 °C 68 % 94 % 1018,6 hPa 0,0 l/m² 3,7 km/h (1 Bft) W-SW 245 ° 0 min 0 W/m² 18,9 °C 19,9 °C 4,8 km/h (1 Bft)
16.08.2023 00:58 23,8 °C 19,9 °C 68 % 94 % 1018,5 hPa 0,0 l/m² 1,0 km/h (0 Bft) W-SW 245 ° 0 min 0 W/m² 18,9 °C 19,9 °C 3,2 km/h (1 Bft)
16.08.2023 01:00 23,8 °C 19,9 °C 68 % 94 % 1018,5 hPa 0,0 l/m² 0,6 km/h (0 Bft) W-SW 245 ° 0 min 0 W/m² 18,9 °C 19,9 °C 4,8 km/h (1 Bft)
16.08.2023 01:02 23,8 °C 19,9 °C 68 % 94 % 1018,5 hPa 0,0 l/m² 0,0 km/h (0 Bft) W-SW 245 ° 0 min 0 W/m² 18,9 °C 19,9 °C 0,0 km/h (0 Bft)
16.08.2023 01:03 23,8 °C 19,9 °C 68 % 94 % 1018,5 hPa 0,0 l/m² 0,0 km/h (0 Bft) W-SW 245 ° 0 min 0 W/m² 18,9 °C 19,9 °C 0,0 km/h (0 Bft)
16.08.2023 01:04 23,8 °C 19,9 °C 68 % 94 % 1018,5 hPa 0,0 l/m² 0,1 km/h (0 Bft) W-SW 245 ° 0 min 0 W/m² 18,9 °C 19,9 °C 1,6 km/h (1 Bft)
16.08.2023 01:06 23,8 °C 19,9 °C 68 % 94 % 1018,5 hPa 0,0 l/m² 0,0 km/h (0 Bft) W-SW 245 ° 0 min 0 W/m² 18,9 °C 19,9 °C 1,6 km/h (1 Bft)
16.08.2023 01:07 23,8 °C 19,9 °C 68 % 94 % 1018,5 hPa 0,0 l/m² 0,0 km/h (0 Bft) W-SW 245 ° 0 min 0 W/m² 18,9 °C 19,9 °C 0,0 km/h (0 Bft)
16.08.2023 01:09 23,8 °C 19,9 °C 68 % 94 % 1018,6 hPa 0,0 l/m² 0,1 km/h (0 Bft) W-SW 245 ° 0 min 0 W/m² 18,9 °C 19,9 °C 1,6 km/h (1 Bft)
16.08.2023 01:11 23,8 °C 19,9 °C 68 % 94 % 1018,6 hPa 0,0 l/m² 0,0 km/h (0 Bft) W-SW 245 ° 0 min 0 W/m² 18,9 °C 19,9 °C 0,0 km/h (0 Bft)
16.08.2023 01:12 23,8 °C 19,9 °C 68 % 94 % 1018,6 hPa 0,0 l/m² 0,0 km/h (0 Bft) W-SW 245 ° 0 min 0 W/m² 18,9 °C 19,9 °C 0,0 km/h (0 Bft)
16.08.2023 01:13 23,8 °C 19,8 °C 68 % 94 % 1018,6 hPa 0,0 l/m² 0,0 km/h (0 Bft) W-SW 245 ° 0 min 0 W/m² 18,8 °C 19,8 °C 0,0 km/h (0 Bft)
16.08.2023 01:15 23,8 °C 19,9 °C 68 % 94 % 1018,5 hPa 0,0 l/m² 0,3 km/h (0 Bft) W-SW 245 ° 0 min 0 W/m² 18,9 °C 19,9 °C 1,6 km/h (1 Bft)
16.08.2023 01:17 23,8 °C 19,9 °C 68 % 94 % 1018,5 hPa 0,2 l/m² 0,0 km/h (0 Bft) W-SW 245 ° 0 min 0 W/m² 18,9 °C 19,9 °C 1,6 km/h (1 Bft)
16.08.2023 01:19 23,8 °C 19,8 °C 68 % 94 % 1018,4 hPa 0,0 l/m² 0,0 km/h (0 Bft) W-SW 245 ° 0 min 0 W/m² 18,8 °C 19,8 °C 0,0 km/h (0 Bft)
16.08.2023 01:21 23,8 °C 19,8 °C 68 % 94 % 1018,3 hPa 0,2 l/m² 0,0 km/h (0 Bft) W-SW 245 ° 0 min 0 W/m² 18,8 °C 19,8 °C 1,6 km/h (1 Bft)
16.08.2023 01:22 23,8 °C 19,8 °C 68 % 94 % 1018,3 hPa 0,0 l/m² 0,0 km/h (0 Bft) W-SW 245 ° 0 min 0 W/m² 18,8 °C 19,8 °C 0,0 km/h (0 Bft)
16.08.2023 01:23 23,8 °C 19,8 °C 68 % 94 % 1018,3 hPa 0,0 l/m² 0,0 km/h (0 Bft) W-SW 245 ° 0 min 0 W/m² 18,8 °C 19,8 °C 0,0 km/h (0 Bft)
16.08.2023 01:24 23,8 °C 19,8 °C 68 % 94 % 1018,3 hPa 0,0 l/m² 0,3 km/h (0 Bft) W-SW 245 ° 0 min 0 W/m² 18,8 °C 19,8 °C 1,6 km/h (1 Bft)
16.08.2023 01:26 23,8 °C 19,8 °C 68 % 94 % 1018,3 hPa 0,0 l/m² 1,0 km/h (0 Bft) W-SW 245 ° 0 min 0 W/m² 18,8 °C 19,8 °C 3,2 km/h (1 Bft)
16.08.2023 01:28 23,8 °C 19,8 °C 68 % 94 % 1018,2 hPa 0,0 l/m² 0,8 km/h (0 Bft) W-SW 245 ° 0 min 0 W/m² 18,8 °C 19,8 °C 3,2 km/h (1 Bft)
16.08.2023 01:30 23,8 °C 19,8 °C 68 % 94 % 1018,2 hPa 0,0 l/m² 0,4 km/h (0 Bft) W-SW 245 ° 0 min 0 W/m² 18,8 °C 19,8 °C 1,6 km/h (1 Bft)
16.08.2023 01:32 23,8 °C 19,8 °C 68 % 94 % 1018,2 hPa 0,0 l/m² 0,3 km/h (0 Bft) W-SW 245 ° 0 min 0 W/m² 18,8 °C 19,8 °C 1,6 km/h (1 Bft)
16.08.2023 01:34 23,8 °C 19,8 °C 68 % 94 % 1018,3 hPa 0,0 l/m² 0,7 km/h (0 Bft) W-SW 245 ° 0 min 0 W/m² 18,8 °C 19,8 °C 3,2 km/h (1 Bft)
16.08.2023 01:36 23,8 °C 19,8 °C 68 % 94 % 1018,3 hPa 0,0 l/m² 0,3 km/h (0 Bft) W-SW 245 ° 0 min 0 W/m² 18,8 °C 19,8 °C 1,6 km/h (1 Bft)
16.08.2023 01:38 23,8 °C 19,8 °C 68 % 94 % 1018,3 hPa 0,0 l/m² 0,0 km/h (0 Bft) W-SW 245 ° 0 min 0 W/m² 18,8 °C 19,8 °C 0,0 km/h (0 Bft)
16.08.2023 01:40 23,8 °C 19,8 °C 68 % 94 % 1018,3 hPa 0,0 l/m² 0,6 km/h (0 Bft) W-SW 245 ° 0 min 0 W/m² 18,8 °C 19,8 °C 3,2 km/h (1 Bft)
16.08.2023 01:43 23,7 °C 19,8 °C 68 % 94 % 1018,3 hPa 0,0 l/m² 0,4 km/h (0 Bft) W-SW 245 ° 0 min 0 W/m² 18,8 °C 19,8 °C 1,6 km/h (1 Bft)
16.08.2023 01:44 23,8 °C 19,8 °C 68 % 94 % 1018,4 hPa 0,0 l/m² 0,2 km/h (0 Bft) W-SW 245 ° 0 min 0 W/m² 18,8 °C 19,8 °C 1,6 km/h (1 Bft)
16.08.2023 01:45 23,8 °C 19,8 °C 68 % 94 % 1018,4 hPa 0,0 l/m² 0,0 km/h (0 Bft) W-SW 245 ° 0 min 0 W/m² 18,8 °C 19,8 °C 0,0 km/h (0 Bft)
16.08.2023 01:47 23,8 °C 19,8 °C 68 % 94 % 1018,4 hPa 0,0 l/m² 0,1 km/h (0 Bft) W-SW 245 ° 0 min 0 W/m² 18,8 °C 19,8 °C 1,6 km/h (1 Bft)
16.08.2023 01:48 23,8 °C 19,7 °C 68 % 94 % 1018,4 hPa 0,0 l/m² 0,0 km/h (0 Bft) W-SW 245 ° 0 min 0 W/m² 18,7 °C 19,7 °C 0,0 km/h (0 Bft)
16.08.2023 01:49 23,8 °C 19,8 °C 68 % 94 % 1018,5 hPa 0,0 l/m² 0,0 km/h (0 Bft) W-SW 245 ° 0 min 0 W/m² 18,8 °C 19,8 °C 0,0 km/h (0 Bft)
16.08.2023 01:50 23,8 °C 19,8 °C 68 % 94 % 1018,5 hPa 0,0 l/m² 0,0 km/h (0 Bft) W-SW 245 ° 0 min 0 W/m² 18,8 °C 19,8 °C 0,0 km/h (0 Bft)
16.08.2023 01:52 23,8 °C 19,7 °C 68 % 94 % 1018,4 hPa 0,0 l/m² 0,0 km/h (0 Bft) W-SW 245 ° 0 min 0 W/m² 18,7 °C 19,7 °C 0,0 km/h (0 Bft)
16.08.2023 01:54 23,8 °C 19,7 °C 68 % 94 % 1018,4 hPa 0,0 l/m² 0,0 km/h (0 Bft) W-SW 245 ° 0 min 0 W/m² 18,7 °C 19,7 °C 0,0 km/h (0 Bft)
16.08.2023 01:55 23,7 °C 19,7 °C 68 % 94 % 1018,4 hPa 0,0 l/m² 0,0 km/h (0 Bft) W-SW 245 ° 0 min 0 W/m² 18,7 °C 19,7 °C 0,0 km/h (0 Bft)
16.08.2023 01:56 23,8 °C 19,7 °C 68 % 94 % 1018,4 hPa 0,0 l/m² 0,0 km/h (0 Bft) W-SW 245 ° 0 min 0 W/m² 18,7 °C 19,7 °C 0,0 km/h (0 Bft)
16.08.2023 01:57 23,8 °C 19,7 °C 68 % 94 % 1018,4 hPa 0,0 l/m² 0,0 km/h (0 Bft) W-SW 245 ° 0 min 0 W/m² 18,7 °C 19,7 °C 0,0 km/h (0 Bft)
16.08.2023 01:58 23,7 °C 19,7 °C 68 % 94 % 1018,4 hPa 0,0 l/m² 0,0 km/h (0 Bft) W-SW 245 ° 0 min 0 W/m² 18,7 °C 19,7 °C 0,0 km/h (0 Bft)
16.08.2023 01:59 23,8 °C 19,7 °C 68 % 94 % 1018,4 hPa 0,0 l/m² 0,0 km/h (0 Bft) W-SW 245 ° 0 min 0 W/m² 18,7 °C 19,7 °C 0,0 km/h (0 Bft)
16.08.2023 02:01 23,8 °C 19,7 °C 68 % 94 % 1018,5 hPa 0,0 l/m² 0,0 km/h (0 Bft) W-SW 245 ° 0 min 0 W/m² 18,7 °C 19,7 °C 0,0 km/h (0 Bft)
16.08.2023 02:03 23,7 °C 19,6 °C 68 % 94 % 1018,4 hPa 0,0 l/m² 0,0 km/h (0 Bft) W-SW 245 ° 0 min 0 W/m² 18,6 °C 19,6 °C 0,0 km/h (0 Bft)
16.08.2023 02:04 23,8 °C 19,6 °C 68 % 94 % 1018,5 hPa 0,0 l/m² 0,0 km/h (0 Bft) W-SW 245 ° 0 min 0 W/m² 18,6 °C 19,6 °C 0,0 km/h (0 Bft)
16.08.2023 02:05 23,8 °C 19,6 °C 68 % 94 % 1018,5 hPa 0,0 l/m² 1,4 km/h (1 Bft) W-SW 245 ° 0 min 0 W/m² 18,6 °C 19,6 °C 3,2 km/h (1 Bft)
16.08.2023 02:06 23,7 °C 19,6 °C 68 % 94 % 1018,4 hPa 0,0 l/m² 2,4 km/h (1 Bft) W-SW 245 ° 0 min 0 W/m² 18,6 °C 19,6 °C 4,8 km/h (1 Bft)
16.08.2023 02:07 23,8 °C 19,6 °C 68 % 94 % 1018,5 hPa 0,0 l/m² 1,4 km/h (1 Bft) W-SW 245 ° 0 min 0 W/m² 18,6 °C 19,6 °C 3,2 km/h (1 Bft)
16.08.2023 02:08 23,8 °C 19,6 °C 68 % 94 % 1018,4 hPa 0,0 l/m² 0,2 km/h (0 Bft) W-SW 245 ° 0 min 0 W/m² 18,6 °C 19,6 °C 1,6 km/h (1 Bft)
16.08.2023 02:09 23,8 °C 19,6 °C 68 % 94 % 1018,4 hPa 0,0 l/m² 0,0 km/h (0 Bft) W-SW 245 ° 0 min 0 W/m² 18,6 °C 19,6 °C 0,0 km/h (0 Bft)
16.08.2023 02:10 23,8 °C 19,6 °C 68 % 94 % 1018,4 hPa 0,0 l/m² 0,0 km/h (0 Bft) W-SW 245 ° 0 min 0 W/m² 18,6 °C 19,6 °C 0,0 km/h (0 Bft)
16.08.2023 02:12 23,7 °C 19,6 °C 68 % 94 % 1018,5 hPa 0,0 l/m² 0,0 km/h (0 Bft) W-SW 245 ° 0 min 0 W/m² 18,6 °C 19,6 °C 0,0 km/h (0 Bft)
16.08.2023 02:13 23,7 °C 19,6 °C 68 % 94 % 1018,5 hPa 0,2 l/m² 0,0 km/h (0 Bft) W-SW 245 ° 0 min 0 W/m² 18,6 °C 19,6 °C 0,0 km/h (0 Bft)
16.08.2023 02:14 23,7 °C 19,5 °C 68 % 94 % 1018,5 hPa 0,0 l/m² 0,0 km/h (0 Bft) W-SW 245 ° 0 min 0 W/m² 18,5 °C 19,5 °C 0,0 km/h (0 Bft)
16.08.2023 02:15 23,7 °C 19,5 °C 68 % 94 % 1018,4 hPa 0,0 l/m² 0,0 km/h (0 Bft) W-SW 245 ° 0 min 0 W/m² 18,5 °C 19,5 °C 0,0 km/h (0 Bft)
16.08.2023 02:16 23,7 °C 19,5 °C 68 % 94 % 1018,4 hPa 0,0 l/m² 0,0 km/h (0 Bft) W-SW 245 ° 0 min 0 W/m² 18,5 °C 19,5 °C 0,0 km/h (0 Bft)
16.08.2023 02:18 23,7 °C 19,4 °C 68 % 94 % 1018,4 hPa 0,0 l/m² 0,0 km/h (0 Bft) W-SW 245 ° 0 min 0 W/m² 18,4 °C 19,4 °C 0,0 km/h (0 Bft)
16.08.2023 02:19 23,7 °C 19,4 °C 68 % 94 % 1018,5 hPa 0,0 l/m² 0,0 km/h (0 Bft) W-SW 245 ° 0 min 0 W/m² 18,4 °C 19,4 °C 0,0 km/h (0 Bft)
16.08.2023 02:21 23,7 °C 19,4 °C 68 % 94 % 1018,5 hPa 0,0 l/m² 0,0 km/h (0 Bft) W-SW 245 ° 0 min 0 W/m² 18,4 °C 19,4 °C 0,0 km/h (0 Bft)
16.08.2023 02:23 23,8 °C 19,4 °C 68 % 94 % 1018,6 hPa 0,0 l/m² 0,0 km/h (0 Bft) W-SW 245 ° 0 min 0 W/m² 18,4 °C 19,4 °C 0,0 km/h (0 Bft)
16.08.2023 02:24 23,8 °C 19,3 °C 68 % 94 % 1018,5 hPa 0,0 l/m² 0,0 km/h (0 Bft) W-SW 245 ° 0 min 0 W/m² 18,3 °C 19,3 °C 0,0 km/h (0 Bft)
16.08.2023 02:25 23,8 °C 19,4 °C 68 % 94 % 1018,6 hPa 0,0 l/m² 0,0 km/h (0 Bft) W-SW 245 ° 0 min 0 W/m² 18,4 °C 19,4 °C 0,0 km/h (0 Bft)
16.08.2023 02:26 23,7 °C 19,3 °C 68 % 94 % 1018,6 hPa 0,0 l/m² 0,0 km/h (0 Bft) W-SW 245 ° 0 min 0 W/m² 18,3 °C 19,3 °C 0,0 km/h (0 Bft)
16.08.2023 02:27 23,7 °C 19,3 °C 68 % 94 % 1018,6 hPa 0,0 l/m² 0,0 km/h (0 Bft) W-SW 245 ° 0 min 0 W/m² 18,3 °C 19,3 °C 0,0 km/h (0 Bft)
16.08.2023 02:28 23,7 °C 19,3 °C 68 % 94 % 1018,6 hPa 0,0 l/m² 0,0 km/h (0 Bft) W-SW 245 ° 0 min 0 W/m² 18,3 °C 19,3 °C 0,0 km/h (0 Bft)
16.08.2023 02:29 23,8 °C 19,3 °C 68 % 94 % 1018,7 hPa 0,0 l/m² 0,0 km/h (0 Bft) W-SW 245 ° 0 min 0 W/m² 18,3 °C 19,3 °C 0,0 km/h (0 Bft)
16.08.2023 02:31 23,7 °C 19,3 °C 68 % 94 % 1018,6 hPa 0,0 l/m² 0,0 km/h (0 Bft) W-SW 245 ° 0 min 0 W/m² 18,3 °C 19,3 °C 0,0 km/h (0 Bft)
16.08.2023 02:33 23,7 °C 19,3 °C 68 % 94 % 1018,7 hPa 0,0 l/m² 0,0 km/h (0 Bft) W-SW 245 ° 0 min 0 W/m² 18,3 °C 19,3 °C 0,0 km/h (0 Bft)
16.08.2023 02:34 23,7 °C 19,3 °C 68 % 94 % 1018,6 hPa 0,0 l/m² 0,0 km/h (0 Bft) W-SW 245 ° 0 min 0 W/m² 18,3 °C 19,3 °C 0,0 km/h (0 Bft)
16.08.2023 02:35 23,7 °C 19,3 °C 68 % 94 % 1018,7 hPa 0,0 l/m² 0,0 km/h (0 Bft) W-SW 245 ° 0 min 0 W/m² 18,3 °C 19,3 °C 0,0 km/h (0 Bft)
16.08.2023 02:36 23,7 °C 19,3 °C 68 % 94 % 1018,6 hPa 0,0 l/m² 0,0 km/h (0 Bft) W-SW 245 ° 0 min 0 W/m² 18,3 °C 19,3 °C 0,0 km/h (0 Bft)
16.08.2023 02:37 23,7 °C 19,3 °C 68 % 94 % 1018,7 hPa 0,0 l/m² 0,0 km/h (0 Bft) W-SW 245 ° 0 min 0 W/m² 18,3 °C 19,3 °C 0,0 km/h (0 Bft)
16.08.2023 02:38 23,7 °C 19,3 °C 68 % 94 % 1018,7 hPa 0,0 l/m² 0,0 km/h (0 Bft) W-SW 245 ° 0 min 0 W/m² 18,3 °C 19,3 °C 0,0 km/h (0 Bft)
16.08.2023 02:39 23,7 °C 19,3 °C 68 % 94 % 1018,7 hPa 0,0 l/m² 0,0 km/h (0 Bft) W-SW 245 ° 0 min 0 W/m² 18,3 °C 19,3 °C 0,0 km/h (0 Bft)
16.08.2023 02:41 23,8 °C 19,2 °C 68 % 94 % 1018,7 hPa 0,0 l/m² 0,0 km/h (0 Bft) W-SW 245 ° 0 min 0 W/m² 18,2 °C 19,2 °C 0,0 km/h (0 Bft)
16.08.2023 02:43 23,8 °C 19,2 °C 68 % 94 % 1018,7 hPa 0,0 l/m² 0,0 km/h (0 Bft) W-SW 245 ° 0 min 0 W/m² 18,2 °C 19,2 °C 0,0 km/h (0 Bft)
16.08.2023 02:44 23,7 °C 19,2 °C 68 % 94 % 1018,7 hPa 0,0 l/m² 0,0 km/h (0 Bft) W-SW 245 ° 0 min 0 W/m² 18,2 °C 19,2 °C 0,0 km/h (0 Bft)
16.08.2023 02:45 23,7 °C 19,2 °C 67 % 94 % 1018,7 hPa 0,0 l/m² 0,0 km/h (0 Bft) W-SW 245 ° 0 min 0 W/m² 18,2 °C 19,2 °C 0,0 km/h (0 Bft)
16.08.2023 02:46 23,7 °C 19,2 °C 67 % 94 % 1018,7 hPa 0,0 l/m² 0,0 km/h (0 Bft) W-SW 245 ° 0 min 0 W/m² 18,2 °C 19,2 °C 0,0 km/h (0 Bft)
16.08.2023 02:47 23,7 °C 19,2 °C 68 % 94 % 1018,7 hPa 0,0 l/m² 0,0 km/h (0 Bft) W-SW 245 ° 0 min 0 W/m² 18,2 °C 19,2 °C 0,0 km/h (0 Bft)
16.08.2023 02:48 23,7 °C 19,1 °C 68 % 94 % 1018,8 hPa 0,0 l/m² 0,0 km/h (0 Bft) W-SW 245 ° 0 min 0 W/m² 18,1 °C 19,1 °C 0,0 km/h (0 Bft)
16.08.2023 02:49 23,7 °C 19,1 °C 68 % 94 % 1018,7 hPa 0,0 l/m² 0,0 km/h (0 Bft) W-SW 245 ° 0 min 0 W/m² 18,1 °C 19,1 °C 0,0 km/h (0 Bft)
16.08.2023 02:51 23,7 °C 19,1 °C 68 % 94 % 1018,7 hPa 0,0 l/m² 0,0 km/h (0 Bft) W-SW 245 ° 0 min 0 W/m² 18,1 °C 19,1 °C 0,0 km/h (0 Bft)
16.08.2023 02:53 23,7 °C 19,1 °C 67 % 94 % 1018,6 hPa 0,0 l/m² 0,0 km/h (0 Bft) W-SW 245 ° 0 min 0 W/m² 18,1 °C 19,1 °C 0,0 km/h (0 Bft)
16.08.2023 02:54 23,7 °C 19,1 °C 68 % 94 % 1018,6 hPa 0,0 l/m² 0,0 km/h (0 Bft) W-SW 245 ° 0 min 0 W/m² 18,1 °C 19,1 °C 0,0 km/h (0 Bft)
16.08.2023 02:55 23,7 °C 19,1 °C 68 % 94 % 1018,6 hPa 0,0 l/m² 0,0 km/h (0 Bft) W-SW 245 ° 0 min 0 W/m² 18,1 °C 19,1 °C 0,0 km/h (0 Bft)
16.08.2023 02:56 23,7 °C 19,1 °C 68 % 94 % 1018,7 hPa 0,0 l/m² 0,0 km/h (0 Bft) W-SW 245 ° 0 min 0 W/m² 18,1 °C 19,1 °C 0,0 km/h (0 Bft)
16.08.2023 02:57 23,7 °C 19,1 °C 68 % 94 % 1018,7 hPa 0,0 l/m² 0,0 km/h (0 Bft) W-SW 245 ° 0 min 0 W/m² 18,1 °C 19,1 °C 0,0 km/h (0 Bft)
16.08.2023 02:58 23,7 °C 19,1 °C 68 % 94 % 1018,6 hPa 0,0 l/m² 0,0 km/h (0 Bft) W-SW 245 ° 0 min 0 W/m² 18,1 °C 19,1 °C 0,0 km/h (0 Bft)
16.08.2023 02:59 23,7 °C 19,0 °C 67 % 94 % 1018,6 hPa 0,0 l/m² 0,0 km/h (0 Bft) W-SW 245 ° 0 min 0 W/m² 18,0 °C 19,0 °C 0,0 km/h (0 Bft)
16.08.2023 03:00 23,7 °C 19,0 °C 68 % 94 % 1018,6 hPa 0,0 l/m² 0,0 km/h (0 Bft) N 0 ° 0 min 0 W/m² 18,0 °C 19,0 °C 0,0 km/h (0 Bft)
16.08.2023 03:06 23,7 °C 19,0 °C 67 % 94 % 1018,7 hPa 0,0 l/m² 0,0 km/h (0 Bft) W-SW 245 ° 0 min 0 W/m² 18,0 °C 19,0 °C 0,0 km/h (0 Bft)
16.08.2023 03:08 23,7 °C 18,9 °C 67 % 94 % 1018,7 hPa 0,0 l/m² 0,0 km/h (0 Bft) W-SW 245 ° 0 min 0 W/m² 17,9 °C 18,9 °C 0,0 km/h (0 Bft)
16.08.2023 03:09 23,7 °C 18,9 °C 67 % 94 % 1018,7 hPa 0,0 l/m² 0,0 km/h (0 Bft) W-SW 245 ° 0 min 0 W/m² 17,9 °C 18,9 °C 0,0 km/h (0 Bft)
16.08.2023 03:11 23,7 °C 18,9 °C 68 % 94 % 1018,7 hPa 0,0 l/m² 0,0 km/h (0 Bft) W-SW 245 ° 0 min 0 W/m² 17,9 °C 18,9 °C 0,0 km/h (0 Bft)
16.08.2023 03:12 23,7 °C 18,9 °C 67 % 94 % 1018,7 hPa 0,0 l/m² 0,0 km/h (0 Bft) W-SW 245 ° 0 min 0 W/m² 17,9 °C 18,9 °C 0,0 km/h (0 Bft)
16.08.2023 03:14 23,7 °C 18,9 °C 67 % 94 % 1018,7 hPa 0,0 l/m² 0,0 km/h (0 Bft) W-SW 245 ° 0 min 0 W/m² 17,9 °C 18,9 °C 0,0 km/h (0 Bft)
16.08.2023 03:16 23,7 °C 18,8 °C 67 % 94 % 1018,7 hPa 0,0 l/m² 0,0 km/h (0 Bft) W-SW 245 ° 0 min 0 W/m² 17,8 °C 18,8 °C 0,0 km/h (0 Bft)
16.08.2023 03:18 23,7 °C 18,8 °C 67 % 94 % 1018,8 hPa 0,0 l/m² 0,1 km/h (0 Bft) W-SW 245 ° 0 min 0 W/m² 17,8 °C 18,8 °C 1,6 km/h (1 Bft)
16.08.2023 03:20 23,7 °C 18,8 °C 67 % 94 % 1018,7 hPa 0,0 l/m² 0,0 km/h (0 Bft) W-SW 245 ° 0 min 0 W/m² 17,8 °C 18,8 °C 0,0 km/h (0 Bft)
16.08.2023 03:21 23,7 °C 18,8 °C 67 % 94 % 1018,6 hPa 0,0 l/m² 0,0 km/h (0 Bft) W-SW 245 ° 0 min 0 W/m² 17,8 °C 18,8 °C 0,0 km/h (0 Bft)
16.08.2023 03:22 23,7 °C 18,8 °C 67 % 94 % 1018,6 hPa 0,0 l/m² 0,0 km/h (0 Bft) W-SW 245 ° 0 min 0 W/m² 17,8 °C 18,8 °C 0,0 km/h (0 Bft)
16.08.2023 03:24 23,7 °C 18,8 °C 67 % 94 % 1018,6 hPa 0,0 l/m² 0,0 km/h (0 Bft) W-SW 245 ° 0 min 0 W/m² 17,8 °C 18,8 °C 0,0 km/h (0 Bft)
16.08.2023 03:26 23,7 °C 18,8 °C 67 % 94 % 1018,6 hPa 0,0 l/m² 0,0 km/h (0 Bft) W-SW 245 ° 0 min 0 W/m² 17,8 °C 18,8 °C 0,0 km/h (0 Bft)
16.08.2023 03:28 23,7 °C 18,8 °C 67 % 94 % 1018,7 hPa 0,0 l/m² 0,0 km/h (0 Bft) W-SW 245 ° 0 min 0 W/m² 17,8 °C 18,8 °C 0,0 km/h (0 Bft)
16.08.2023 03:30 23,7 °C 18,8 °C 67 % 94 % 1018,7 hPa 0,0 l/m² 0,0 km/h (0 Bft) W-SW 245 ° 0 min 0 W/m² 17,8 °C 18,8 °C 0,0 km/h (0 Bft)
16.08.2023 03:31 23,7 °C 18,7 °C 67 % 94 % 1018,7 hPa 0,0 l/m² 0,0 km/h (0 Bft) W-SW 245 ° 0 min 0 W/m² 17,7 °C 18,7 °C 0,0 km/h (0 Bft)
16.08.2023 03:32 23,7 °C 18,7 °C 67 % 94 % 1018,8 hPa 0,0 l/m² 0,0 km/h (0 Bft) W-SW 245 ° 0 min 0 W/m² 17,7 °C 18,7 °C 0,0 km/h (0 Bft)
16.08.2023 03:34 23,7 °C 18,7 °C 67 % 94 % 1018,8 hPa 0,0 l/m² 0,0 km/h (0 Bft) W-SW 245 ° 0 min 0 W/m² 17,7 °C 18,7 °C 0,0 km/h (0 Bft)
16.08.2023 03:36 23,7 °C 18,7 °C 67 % 94 % 1018,7 hPa 0,0 l/m² 0,0 km/h (0 Bft) W-SW 245 ° 0 min 0 W/m² 17,7 °C 18,7 °C 0,0 km/h (0 Bft)
16.08.2023 03:38 23,7 °C 18,7 °C 67 % 94 % 1018,8 hPa 0,0 l/m² 0,0 km/h (0 Bft) W-SW 245 ° 0 min 0 W/m² 17,7 °C 18,7 °C 0,0 km/h (0 Bft)
16.08.2023 03:40 23,7 °C 18,6 °C 67 % 94 % 1018,8 hPa 0,0 l/m² 0,0 km/h (0 Bft) W-SW 245 ° 0 min 0 W/m² 17,6 °C 18,6 °C 0,0 km/h (0 Bft)
16.08.2023 03:41 23,7 °C 18,6 °C 67 % 94 % 1018,8 hPa 0,0 l/m² 0,0 km/h (0 Bft) W-SW 245 ° 0 min 0 W/m² 17,6 °C 18,6 °C 0,0 km/h (0 Bft)
16.08.2023 03:42 23,7 °C 18,6 °C 67 % 94 % 1018,8 hPa 0,0 l/m² 0,0 km/h (0 Bft) W-SW 245 ° 0 min 0 W/m² 17,6 °C 18,6 °C 0,0 km/h (0 Bft)
16.08.2023 03:44 23,7 °C 18,6 °C 67 % 94 % 1018,9 hPa 0,0 l/m² 0,0 km/h (0 Bft) W-SW 245 ° 0 min 0 W/m² 17,6 °C 18,6 °C 0,0 km/h (0 Bft)
16.08.2023 03:46 23,7 °C 18,6 °C 67 % 94 % 1018,9 hPa 0,0 l/m² 0,0 km/h (0 Bft) W-SW 245 ° 0 min 0 W/m² 17,6 °C 18,6 °C 0,0 km/h (0 Bft)
16.08.2023 03:47 23,7 °C 18,6 °C 67 % 94 % 1018,9 hPa 0,0 l/m² 0,0 km/h (0 Bft) W-SW 245 ° 0 min 0 W/m² 17,6 °C 18,6 °C 0,0 km/h (0 Bft)
16.08.2023 03:49 23,7 °C 18,6 °C 67 % 94 % 1018,8 hPa 0,0 l/m² 0,0 km/h (0 Bft) W-SW 245 ° 0 min 0 W/m² 17,6 °C 18,6 °C 0,0 km/h (0 Bft)
16.08.2023 03:50 23,7 °C 18,6 °C 67 % 94 % 1018,8 hPa 0,0 l/m² 0,0 km/h (0 Bft) W-SW 245 ° 0 min 0 W/m² 17,6 °C 18,6 °C 0,0 km/h (0 Bft)
16.08.2023 03:52 23,7 °C 18,6 °C 67 % 95 % 1018,9 hPa 0,0 l/m² 0,0 km/h (0 Bft) W-SW 245 ° 0 min 0 W/m² 17,8 °C 18,6 °C 0,0 km/h (0 Bft)
16.08.2023 03:53 23,7 °C 18,6 °C 67 % 95 % 1018,9 hPa 0,0 l/m² 0,0 km/h (0 Bft) W-SW 245 ° 0 min 0 W/m² 17,8 °C 18,6 °C 0,0 km/h (0 Bft)
16.08.2023 03:55 23,7 °C 18,6 °C 67 % 95 % 1018,9 hPa 0,0 l/m² 0,0 km/h (0 Bft) W-SW 245 ° 0 min 0 W/m² 17,8 °C 18,6 °C 0,0 km/h (0 Bft)
16.08.2023 03:57 23,7 °C 18,6 °C 67 % 94 % 1018,9 hPa 0,0 l/m² 0,0 km/h (0 Bft) W-SW 245 ° 0 min 0 W/m² 17,6 °C 18,6 °C 0,0 km/h (0 Bft)
16.08.2023 03:59 23,7 °C 18,6 °C 67 % 94 % 1018,9 hPa 0,0 l/m² 0,0 km/h (0 Bft) W-SW 245 ° 0 min 0 W/m² 17,6 °C 18,6 °C 0,0 km/h (0 Bft)
16.08.2023 04:00 23,7 °C 18,5 °C 67 % 94 % 1019,0 hPa 0,0 l/m² 0,0 km/h (0 Bft) W-SW 245 ° 0 min 0 W/m² 17,5 °C 18,5 °C 0,0 km/h (0 Bft)
16.08.2023 04:02 23,7 °C 18,6 °C 67 % 94 % 1019,0 hPa 0,0 l/m² 0,0 km/h (0 Bft) W-SW 245 ° 0 min 0 W/m² 17,6 °C 18,6 °C 0,0 km/h (0 Bft)
16.08.2023 04:03 23,7 °C 18,6 °C 67 % 94 % 1019,0 hPa 0,0 l/m² 0,0 km/h (0 Bft) W-SW 245 ° 0 min 0 W/m² 17,6 °C 18,6 °C 0,0 km/h (0 Bft)
16.08.2023 04:05 23,7 °C 18,5 °C 67 % 94 % 1019,1 hPa 0,0 l/m² 0,0 km/h (0 Bft) W-SW 245 ° 0 min 0 W/m² 17,5 °C 18,5 °C 0,0 km/h (0 Bft)
16.08.2023 04:07 23,7 °C 18,5 °C 67 % 94 % 1019,1 hPa 0,0 l/m² 0,0 km/h (0 Bft) W-SW 245 ° 0 min 0 W/m² 17,5 °C 18,5 °C 0,0 km/h (0 Bft)
16.08.2023 04:09 23,7 °C 18,4 °C 67 % 94 % 1019,0 hPa 0,0 l/m² 0,0 km/h (0 Bft) W-SW 245 ° 0 min 0 W/m² 17,4 °C 18,4 °C 0,0 km/h (0 Bft)
16.08.2023 04:10 23,7 °C 18,4 °C 67 % 94 % 1019,0 hPa 0,0 l/m² 0,0 km/h (0 Bft) W-SW 245 ° 0 min 0 W/m² 17,4 °C 18,4 °C 0,0 km/h (0 Bft)
16.08.2023 04:12 23,7 °C 18,4 °C 67 % 94 % 1019,1 hPa 0,0 l/m² 0,0 km/h (0 Bft) W-SW 245 ° 0 min 0 W/m² 17,4 °C 18,4 °C 0,0 km/h (0 Bft)
16.08.2023 04:13 23,7 °C 18,4 °C 67 % 94 % 1019,0 hPa 0,0 l/m² 0,0 km/h (0 Bft) W-SW 245 ° 0 min 0 W/m² 17,4 °C 18,4 °C 0,0 km/h (0 Bft)
16.08.2023 04:15 23,7 °C 18,4 °C 67 % 94 % 1019,0 hPa 0,0 l/m² 0,0 km/h (0 Bft) W-SW 245 ° 0 min 0 W/m² 17,4 °C 18,4 °C 0,0 km/h (0 Bft)
16.08.2023 04:17 23,7 °C 18,4 °C 67 % 94 % 1019,0 hPa 0,0 l/m² 0,0 km/h (0 Bft) W-SW 245 ° 0 min 0 W/m² 17,4 °C 18,4 °C 0,0 km/h (0 Bft)
16.08.2023 04:19 23,7 °C 18,3 °C 67 % 95 % 1019,0 hPa 0,0 l/m² 1,0 km/h (0 Bft) W-SW 245 ° 0 min 0 W/m² 17,5 °C 18,3 °C 3,2 km/h (1 Bft)
16.08.2023 04:21 23,7 °C 18,3 °C 67 % 95 % 1019,0 hPa 0,0 l/m² 0,9 km/h (0 Bft) W-SW 245 ° 0 min 0 W/m² 17,5 °C 18,3 °C 1,6 km/h (1 Bft)
16.08.2023 04:22 23,7 °C 18,3 °C 67 % 95 % 1019,1 hPa 0,0 l/m² 0,0 km/h (0 Bft) W-SW 245 ° 0 min 0 W/m² 17,5 °C 18,3 °C 0,0 km/h (0 Bft)
16.08.2023 04:23 23,7 °C 18,3 °C 67 % 95 % 1019,1 hPa 0,0 l/m² 0,0 km/h (0 Bft) W-SW 245 ° 0 min 0 W/m² 17,5 °C 18,3 °C 0,0 km/h (0 Bft)
16.08.2023 04:25 23,7 °C 18,3 °C 67 % 95 % 1019,0 hPa 0,0 l/m² 0,0 km/h (0 Bft) W-SW 245 ° 0 min 0 W/m² 17,5 °C 18,3 °C 0,0 km/h (0 Bft)
16.08.2023 04:27 23,7 °C 18,3 °C 67 % 95 % 1019,0 hPa 0,0 l/m² 0,0 km/h (0 Bft) W-SW 245 ° 0 min 0 W/m² 17,5 °C 18,3 °C 0,0 km/h (0 Bft)
16.08.2023 04:29 23,7 °C 18,3 °C 67 % 95 % 1019,0 hPa 0,0 l/m² 0,0 km/h (0 Bft) W-SW 245 ° 0 min 0 W/m² 17,5 °C 18,3 °C 0,0 km/h (0 Bft)
16.08.2023 04:30 23,7 °C 18,3 °C 67 % 95 % 1019,0 hPa 0,0 l/m² 0,0 km/h (0 Bft) W-SW 245 ° 0 min 0 W/m² 17,5 °C 18,3 °C 0,0 km/h (0 Bft)
16.08.2023 04:32 23,7 °C 18,3 °C 67 % 95 % 1019,0 hPa 0,0 l/m² 0,1 km/h (0 Bft) W-SW 245 ° 0 min 0 W/m² 17,5 °C 18,3 °C 1,6 km/h (1 Bft)
16.08.2023 04:33 23,7 °C 18,2 °C 67 % 95 % 1019,0 hPa 0,0 l/m² 0,7 km/h (0 Bft) W-SW 245 ° 0 min 0 W/m² 17,4 °C 18,2 °C 1,6 km/h (1 Bft)
16.08.2023 04:35 23,7 °C 18,2 °C 67 % 95 % 1019,0 hPa 0,0 l/m² 0,0 km/h (0 Bft) W-SW 245 ° 0 min 0 W/m² 17,4 °C 18,2 °C 0,0 km/h (0 Bft)
16.08.2023 04:37 23,7 °C 18,2 °C 67 % 95 % 1019,1 hPa 0,0 l/m² 0,0 km/h (0 Bft) W-SW 245 ° 0 min 0 W/m² 17,4 °C 18,2 °C 0,0 km/h (0 Bft)
16.08.2023 04:39 23,7 °C 18,2 °C 67 % 95 % 1019,0 hPa 0,0 l/m² 0,0 km/h (0 Bft) W-SW 245 ° 0 min 0 W/m² 17,4 °C 18,2 °C 0,0 km/h (0 Bft)
16.08.2023 04:40 23,7 °C 18,2 °C 67 % 95 % 1019,0 hPa 0,0 l/m² 0,0 km/h (0 Bft) W-SW 245 ° 0 min 0 W/m² 17,4 °C 18,2 °C 0,0 km/h (0 Bft)
16.08.2023 04:41 23,7 °C 18,2 °C 67 % 95 % 1019,0 hPa 0,0 l/m² 0,0 km/h (0 Bft) W-SW 245 ° 0 min 0 W/m² 17,4 °C 18,2 °C 0,0 km/h (0 Bft)
16.08.2023 04:42 23,7 °C 18,2 °C 67 % 95 % 1019,0 hPa 0,0 l/m² 0,0 km/h (0 Bft) W-SW 245 ° 0 min 0 W/m² 17,4 °C 18,2 °C 0,0 km/h (0 Bft)
16.08.2023 04:45 23,7 °C 18,2 °C 67 % 95 % 1019,0 hPa 0,0 l/m² 0,0 km/h (0 Bft) W-SW 245 ° 0 min 0 W/m² 17,4 °C 18,2 °C 0,0 km/h (0 Bft)
16.08.2023 04:47 23,7 °C 18,2 °C 67 % 95 % 1019,0 hPa 0,0 l/m² 0,0 km/h (0 Bft) W-SW 245 ° 0 min 0 W/m² 17,4 °C 18,2 °C 0,0 km/h (0 Bft)
16.08.2023 04:49 23,7 °C 18,2 °C 67 % 95 % 1019,0 hPa 0,0 l/m² 0,0 km/h (0 Bft) W-SW 245 ° 0 min 0 W/m² 17,4 °C 18,2 °C 0,0 km/h (0 Bft)
16.08.2023 04:50 23,7 °C 18,1 °C 67 % 95 % 1019,0 hPa 0,0 l/m² 0,0 km/h (0 Bft) W-SW 245 ° 0 min 0 W/m² 17,3 °C 18,1 °C 0,0 km/h (0 Bft)
16.08.2023 04:52 23,7 °C 18,1 °C 67 % 95 % 1019,0 hPa 0,0 l/m² 0,0 km/h (0 Bft) W-SW 245 ° 0 min 0 W/m² 17,3 °C 18,1 °C 0,0 km/h (0 Bft)
16.08.2023 04:53 23,7 °C 18,1 °C 67 % 95 % 1019,0 hPa 0,0 l/m² 0,0 km/h (0 Bft) W-SW 245 ° 0 min 0 W/m² 17,3 °C 18,1 °C 0,0 km/h (0 Bft)
16.08.2023 04:55 23,7 °C 18,1 °C 67 % 95 % 1019,0 hPa 0,0 l/m² 1,1 km/h (1 Bft) W-SW 245 ° 0 min 0 W/m² 17,3 °C 18,1 °C 3,2 km/h (1 Bft)
16.08.2023 04:56 23,7 °C 18,1 °C 67 % 95 % 1019,1 hPa 0,0 l/m² 0,4 km/h (0 Bft) W-SW 245 ° 0 min 0 W/m² 17,3 °C 18,1 °C 1,6 km/h (1 Bft)
16.08.2023 04:58 23,7 °C 18,1 °C 67 % 95 % 1019,0 hPa 0,0 l/m² 0,0 km/h (0 Bft) W-SW 245 ° 0 min 0 W/m² 17,3 °C 18,1 °C 0,0 km/h (0 Bft)
16.08.2023 05:00 23,7 °C 18,1 °C 68 % 95 % 1019,1 hPa 0,0 l/m² 0,0 km/h (0 Bft) W-SW 245 ° 0 min 0 W/m² 17,3 °C 18,1 °C 0,0 km/h (0 Bft)
16.08.2023 05:01 23,7 °C 18,1 °C 68 % 95 % 1019,1 hPa 0,0 l/m² 0,0 km/h (0 Bft) W-SW 245 ° 0 min 0 W/m² 17,3 °C 18,1 °C 0,0 km/h (0 Bft)
16.08.2023 05:02 23,7 °C 18,1 °C 68 % 95 % 1019,1 hPa 0,0 l/m² 0,0 km/h (0 Bft) W-SW 245 ° 0 min 0 W/m² 17,3 °C 18,1 °C 0,0 km/h (0 Bft)
16.08.2023 05:04 23,7 °C 18,1 °C 68 % 95 % 1019,1 hPa 0,0 l/m² 0,0 km/h (0 Bft) W-SW 245 ° 0 min 0 W/m² 17,3 °C 18,1 °C 0,0 km/h (0 Bft)
16.08.2023 05:06 23,7 °C 18,1 °C 68 % 95 % 1019,0 hPa 0,0 l/m² 0,0 km/h (0 Bft) W-SW 245 ° 0 min 0 W/m² 17,3 °C 18,1 °C 0,0 km/h (0 Bft)
16.08.2023 05:08 23,7 °C 18,1 °C 68 % 95 % 1019,0 hPa 0,0 l/m² 0,0 km/h (0 Bft) W-SW 245 ° 0 min 0 W/m² 17,3 °C 18,1 °C 0,0 km/h (0 Bft)
16.08.2023 05:10 23,7 °C 18,1 °C 68 % 95 % 1019,0 hPa 0,0 l/m² 0,0 km/h (0 Bft) W-SW 245 ° 0 min 0 W/m² 17,3 °C 18,1 °C 0,0 km/h (0 Bft)
16.08.2023 05:11 23,7 °C 18,0 °C 68 % 95 % 1019,1 hPa 0,0 l/m² 0,0 km/h (0 Bft) W-SW 245 ° 0 min 0 W/m² 17,2 °C 18,0 °C 0,0 km/h (0 Bft)
16.08.2023 05:12 23,7 °C 18,1 °C 68 % 95 % 1019,0 hPa 0,0 l/m² 0,0 km/h (0 Bft) W-SW 245 ° 0 min 0 W/m² 17,3 °C 18,1 °C 0,0 km/h (0 Bft)
16.08.2023 05:14 23,7 °C 18,0 °C 68 % 95 % 1019,0 hPa 0,0 l/m² 0,0 km/h (0 Bft) W-SW 245 ° 0 min 0 W/m² 17,2 °C 18,0 °C 0,0 km/h (0 Bft)
16.08.2023 05:15 23,8 °C 18,0 °C 68 % 95 % 1019,1 hPa 0,0 l/m² 0,0 km/h (0 Bft) W-SW 245 ° 0 min 0 W/m² 17,2 °C 18,0 °C 0,0 km/h (0 Bft)
16.08.2023 05:17 23,8 °C 18,0 °C 68 % 95 % 1019,0 hPa 0,0 l/m² 0,0 km/h (0 Bft) W-SW 245 ° 0 min 0 W/m² 17,2 °C 18,0 °C 0,0 km/h (0 Bft)
16.08.2023 05:19 23,7 °C 18,0 °C 68 % 95 % 1019,0 hPa 0,0 l/m² 0,0 km/h (0 Bft) W-SW 245 ° 0 min 0 W/m² 17,2 °C 18,0 °C 0,0 km/h (0 Bft)
16.08.2023 05:21 23,8 °C 17,9 °C 68 % 95 % 1019,1 hPa 0,0 l/m² 0,0 km/h (0 Bft) W-SW 245 ° 0 min 0 W/m² 17,1 °C 17,9 °C 0,0 km/h (0 Bft)
16.08.2023 05:22 23,8 °C 17,9 °C 68 % 95 % 1019,1 hPa 0,0 l/m² 0,0 km/h (0 Bft) W-SW 245 ° 0 min 0 W/m² 17,1 °C 17,9 °C 0,0 km/h (0 Bft)
16.08.2023 05:23 23,8 °C 18,0 °C 68 % 95 % 1019,1 hPa 0,0 l/m² 0,0 km/h (0 Bft) W-SW 245 ° 0 min 0 W/m² 17,2 °C 18,0 °C 0,0 km/h (0 Bft)
16.08.2023 05:25 23,8 °C 17,9 °C 68 % 95 % 1019,2 hPa 0,0 l/m² 0,0 km/h (0 Bft) W-SW 245 ° 0 min 0 W/m² 17,1 °C 17,9 °C 0,0 km/h (0 Bft)
16.08.2023 05:27 23,8 °C 17,9 °C 68 % 95 % 1019,1 hPa 0,0 l/m² 0,0 km/h (0 Bft) W-SW 245 ° 0 min 0 W/m² 17,1 °C 17,9 °C 0,0 km/h (0 Bft)
16.08.2023 05:29 23,7 °C 17,9 °C 68 % 95 % 1019,1 hPa 0,0 l/m² 0,0 km/h (0 Bft) W-SW 245 ° 0 min 0 W/m² 17,1 °C 17,9 °C 0,0 km/h (0 Bft)
16.08.2023 05:31 23,7 °C 17,9 °C 68 % 95 % 1019,1 hPa 0,0 l/m² 0,0 km/h (0 Bft) W-SW 245 ° 0 min 0 W/m² 17,1 °C 17,9 °C 0,0 km/h (0 Bft)
16.08.2023 05:32 23,7 °C 17,9 °C 68 % 95 % 1019,2 hPa 0,0 l/m² 0,0 km/h (0 Bft) W-SW 245 ° 0 min 0 W/m² 17,1 °C 17,9 °C 0,0 km/h (0 Bft)
16.08.2023 05:33 23,7 °C 17,9 °C 67 % 95 % 1019,2 hPa 0,0 l/m² 0,0 km/h (0 Bft) W-SW 245 ° 0 min 0 W/m² 17,1 °C 17,9 °C 0,0 km/h (0 Bft)
16.08.2023 05:35 23,8 °C 17,9 °C 68 % 95 % 1019,1 hPa 0,0 l/m² 0,0 km/h (0 Bft) W-SW 245 ° 0 min 0 W/m² 17,1 °C 17,9 °C 0,0 km/h (0 Bft)
16.08.2023 05:37 23,7 °C 17,9 °C 67 % 95 % 1019,1 hPa 0,0 l/m² 0,0 km/h (0 Bft) W-SW 245 ° 0 min 0 W/m² 17,1 °C 17,9 °C 0,0 km/h (0 Bft)
16.08.2023 05:39 23,7 °C 17,9 °C 67 % 95 % 1019,1 hPa 0,0 l/m² 0,0 km/h (0 Bft) W-SW 245 ° 0 min 0 W/m² 17,1 °C 17,9 °C 0,0 km/h (0 Bft)
16.08.2023 05:41 23,7 °C 17,9 °C 67 % 95 % 1019,2 hPa 0,0 l/m² 0,0 km/h (0 Bft) W-SW 245 ° 0 min 0 W/m² 17,1 °C 17,9 °C 0,0 km/h (0 Bft)
16.08.2023 05:42 23,7 °C 17,9 °C 67 % 95 % 1019,2 hPa 0,0 l/m² 0,0 km/h (0 Bft) W-SW 245 ° 0 min 0 W/m² 17,1 °C 17,9 °C 0,0 km/h (0 Bft)
16.08.2023 05:43 23,7 °C 17,9 °C 67 % 95 % 1019,3 hPa 0,0 l/m² 0,0 km/h (0 Bft) W-SW 245 ° 0 min 0 W/m² 17,1 °C 17,9 °C 0,0 km/h (0 Bft)
16.08.2023 05:45 23,7 °C 17,9 °C 67 % 95 % 1019,3 hPa 0,0 l/m² 0,0 km/h (0 Bft) W-SW 245 ° 0 min 0 W/m² 17,1 °C 17,9 °C 0,0 km/h (0 Bft)
16.08.2023 05:47 23,7 °C 17,9 °C 67 % 95 % 1019,2 hPa 0,0 l/m² 0,0 km/h (0 Bft) W-SW 245 ° 0 min 0 W/m² 17,1 °C 17,9 °C 0,0 km/h (0 Bft)
16.08.2023 05:49 23,7 °C 17,9 °C 67 % 95 % 1019,2 hPa 0,0 l/m² 0,8 km/h (0 Bft) W-SW 245 ° 0 min 0 W/m² 17,1 °C 17,9 °C 3,2 km/h (1 Bft)
16.08.2023 05:51 23,7 °C 17,9 °C 67 % 95 % 1019,3 hPa 0,0 l/m² 2,0 km/h (1 Bft) W-SW 245 ° 0 min 0 W/m² 17,1 °C 17,9 °C 3,2 km/h (1 Bft)
16.08.2023 05:52 23,7 °C 17,9 °C 67 % 96 % 1019,3 hPa 0,0 l/m² 2,0 km/h (1 Bft) W-SW 245 ° 0 min 0 W/m² 17,3 °C 17,9 °C 3,2 km/h (1 Bft)
16.08.2023 05:53 23,7 °C 17,9 °C 67 % 96 % 1019,3 hPa 0,0 l/m² 1,9 km/h (1 Bft) W-SW 245 ° 0 min 0 W/m² 17,3 °C 17,9 °C 3,2 km/h (1 Bft)
16.08.2023 05:55 23,7 °C 17,9 °C 67 % 96 % 1019,2 hPa 0,0 l/m² 1,1 km/h (1 Bft) W-SW 245 ° 0 min 0 W/m² 17,3 °C 17,9 °C 1,6 km/h (1 Bft)
16.08.2023 05:57 23,7 °C 17,9 °C 67 % 96 % 1019,3 hPa 0,0 l/m² 1,2 km/h (1 Bft) W-SW 245 ° 0 min 0 W/m² 17,3 °C 17,9 °C 3,2 km/h (1 Bft)
16.08.2023 05:59 23,7 °C 17,9 °C 67 % 96 % 1019,3 hPa 0,0 l/m² 0,0 km/h (0 Bft) W-SW 245 ° 0 min 0 W/m² 17,3 °C 17,9 °C 0,0 km/h (0 Bft)
16.08.2023 06:01 23,7 °C 17,9 °C 67 % 95 % 1019,2 hPa 0,0 l/m² 0,0 km/h (0 Bft) W-SW 245 ° 0 min 0 W/m² 17,1 °C 17,9 °C 0,0 km/h (0 Bft)
16.08.2023 06:02 23,7 °C 17,8 °C 67 % 95 % 1019,2 hPa 0,0 l/m² 0,0 km/h (0 Bft) W-SW 245 ° 0 min 0 W/m² 17,0 °C 17,8 °C 0,0 km/h (0 Bft)
16.08.2023 06:03 23,7 °C 17,8 °C 67 % 95 % 1019,2 hPa 0,0 l/m² 0,0 km/h (0 Bft) W-SW 245 ° 0 min 0 W/m² 17,0 °C 17,8 °C 0,0 km/h (0 Bft)
16.08.2023 06:05 23,7 °C 17,8 °C 67 % 95 % 1019,2 hPa 0,0 l/m² 0,2 km/h (0 Bft) W-SW 245 ° 0 min 5 W/m² 17,0 °C 17,8 °C 1,6 km/h (1 Bft)
16.08.2023 06:07 23,7 °C 17,8 °C 67 % 95 % 1019,2 hPa 0,0 l/m² 0,0 km/h (0 Bft) W-SW 245 ° 0 min 5 W/m² 17,0 °C 17,8 °C 0,0 km/h (0 Bft)
16.08.2023 06:09 23,7 °C 17,8 °C 68 % 95 % 1019,2 hPa 0,0 l/m² 0,0 km/h (0 Bft) W-SW 245 ° 0 min 5 W/m² 17,0 °C 17,8 °C 0,0 km/h (0 Bft)
16.08.2023 06:11 23,7 °C 17,8 °C 68 % 95 % 1019,2 hPa 0,0 l/m² 0,1 km/h (0 Bft) W-SW 245 ° 0 min 7 W/m² 17,0 °C 17,8 °C 1,6 km/h (1 Bft)
16.08.2023 06:12 23,7 °C 17,8 °C 68 % 96 % 1019,2 hPa 0,0 l/m² 0,0 km/h (0 Bft) W-SW 245 ° 0 min 7 W/m² 17,2 °C 17,8 °C 0,0 km/h (0 Bft)
16.08.2023 06:13 23,7 °C 17,8 °C 68 % 96 % 1019,2 hPa 0,0 l/m² 1,8 km/h (1 Bft) W-SW 245 ° 0 min 7 W/m² 17,2 °C 17,8 °C 4,8 km/h (1 Bft)
16.08.2023 06:15 23,7 °C 17,8 °C 68 % 96 % 1019,2 hPa 0,0 l/m² 2,4 km/h (1 Bft) W-SW 245 ° 0 min 7 W/m² 17,2 °C 17,8 °C 3,2 km/h (1 Bft)
16.08.2023 06:17 23,7 °C 17,8 °C 68 % 96 % 1019,3 hPa 0,0 l/m² 0,0 km/h (0 Bft) W-SW 245 ° 0 min 11 W/m² 17,2 °C 17,8 °C 1,6 km/h (1 Bft)
16.08.2023 06:19 23,7 °C 17,8 °C 68 % 96 % 1019,3 hPa 0,0 l/m² 1,0 km/h (0 Bft) W-SW 245 ° 0 min 12 W/m² 17,2 °C 17,8 °C 3,2 km/h (1 Bft)
16.08.2023 06:21 23,7 °C 17,8 °C 68 % 96 % 1019,3 hPa 0,0 l/m² 1,8 km/h (1 Bft) W-SW 245 ° 0 min 12 W/m² 17,2 °C 17,8 °C 3,2 km/h (1 Bft)
16.08.2023 06:22 23,7 °C 17,8 °C 68 % 96 % 1019,4 hPa 0,0 l/m² 0,8 km/h (0 Bft) W-SW 245 ° 0 min 14 W/m² 17,2 °C 17,8 °C 3,2 km/h (1 Bft)
16.08.2023 06:23 23,7 °C 17,8 °C 68 % 96 % 1019,4 hPa 0,0 l/m² 1,4 km/h (1 Bft) W-SW 245 ° 0 min 16 W/m² 17,2 °C 17,8 °C 1,6 km/h (1 Bft)
16.08.2023 06:25 23,7 °C 17,8 °C 68 % 96 % 1019,4 hPa 0,0 l/m² 1,2 km/h (1 Bft) W-SW 245 ° 0 min 18 W/m² 17,2 °C 17,8 °C 3,2 km/h (1 Bft)
16.08.2023 06:27 23,7 °C 17,8 °C 68 % 96 % 1019,5 hPa 0,0 l/m² 0,0 km/h (0 Bft) W-SW 245 ° 0 min 21 W/m² 17,2 °C 17,8 °C 1,6 km/h (1 Bft)
16.08.2023 06:29 23,7 °C 17,8 °C 68 % 96 % 1019,5 hPa 0,0 l/m² 0,0 km/h (0 Bft) W-SW 245 ° 0 min 23 W/m² 17,2 °C 17,8 °C 0,0 km/h (0 Bft)
16.08.2023 06:31 23,7 °C 17,8 °C 68 % 96 % 1019,5 hPa 0,0 l/m² 0,0 km/h (0 Bft) W-SW 245 ° 0 min 23 W/m² 17,2 °C 17,8 °C 0,0 km/h (0 Bft)
16.08.2023 06:32 23,7 °C 17,8 °C 68 % 96 % 1019,5 hPa 0,0 l/m² 0,0 km/h (0 Bft) W-SW 245 ° 0 min 23 W/m² 17,2 °C 17,8 °C 0,0 km/h (0 Bft)
16.08.2023 06:33 23,7 °C 17,8 °C 68 % 96 % 1019,5 hPa 0,0 l/m² 0,0 km/h (0 Bft) W-SW 245 ° 0 min 23 W/m² 17,2 °C 17,8 °C 0,0 km/h (0 Bft)
16.08.2023 06:36 23,8 °C 17,8 °C 68 % 96 % 1019,5 hPa 0,0 l/m² 0,0 km/h (0 Bft) W-SW 245 ° 0 min 23 W/m² 17,2 °C 17,8 °C 0,0 km/h (0 Bft)
16.08.2023 06:38 23,8 °C 17,8 °C 68 % 96 % 1019,5 hPa 0,0 l/m² 0,0 km/h (0 Bft) W-SW 245 ° 0 min 23 W/m² 17,2 °C 17,8 °C 0,0 km/h (0 Bft)
16.08.2023 06:40 23,8 °C 17,9 °C 68 % 96 % 1019,5 hPa 0,0 l/m² 0,0 km/h (0 Bft) W-SW 245 ° 0 min 25 W/m² 17,3 °C 17,9 °C 0,0 km/h (0 Bft)
16.08.2023 06:41 23,8 °C 17,9 °C 68 % 96 % 1019,5 hPa 0,0 l/m² 0,0 km/h (0 Bft) W-SW 245 ° 0 min 26 W/m² 17,3 °C 17,9 °C 0,0 km/h (0 Bft)
16.08.2023 06:43 23,8 °C 17,9 °C 68 % 96 % 1019,5 hPa 0,0 l/m² 0,6 km/h (0 Bft) W-SW 245 ° 0 min 26 W/m² 17,3 °C 17,9 °C 1,6 km/h (1 Bft)
16.08.2023 06:44 23,8 °C 17,9 °C 68 % 96 % 1019,4 hPa 0,0 l/m² 0,1 km/h (0 Bft) W-SW 245 ° 0 min 25 W/m² 17,3 °C 17,9 °C 1,6 km/h (1 Bft)
16.08.2023 06:47 23,8 °C 17,9 °C 68 % 96 % 1019,6 hPa 0,0 l/m² 0,0 km/h (0 Bft) W-SW 245 ° 0 min 25 W/m² 17,3 °C 17,9 °C 0,0 km/h (0 Bft)
16.08.2023 06:49 23,7 °C 17,8 °C 68 % 96 % 1019,5 hPa 0,0 l/m² 0,0 km/h (0 Bft) W-SW 245 ° 0 min 25 W/m² 17,2 °C 17,8 °C 0,0 km/h (0 Bft)
16.08.2023 06:51 23,7 °C 17,8 °C 68 % 96 % 1019,6 hPa 0,0 l/m² 0,0 km/h (0 Bft) W-SW 245 ° 0 min 23 W/m² 17,2 °C 17,8 °C 0,0 km/h (0 Bft)
16.08.2023 06:52 23,8 °C 17,9 °C 68 % 96 % 1019,5 hPa 0,0 l/m² 0,5 km/h (0 Bft) W-SW 245 ° 0 min 21 W/m² 17,3 °C 17,9 °C 3,2 km/h (1 Bft)
16.08.2023 06:53 23,7 °C 17,8 °C 68 % 96 % 1019,5 hPa 0,0 l/m² 0,7 km/h (0 Bft) W-SW 245 ° 0 min 21 W/m² 17,2 °C 17,8 °C 3,2 km/h (1 Bft)
16.08.2023 06:55 23,7 °C 17,9 °C 68 % 96 % 1019,5 hPa 0,0 l/m² 1,1 km/h (1 Bft) W-SW 245 ° 0 min 21 W/m² 17,3 °C 17,9 °C 3,2 km/h (1 Bft)
16.08.2023 06:57 23,8 °C 17,9 °C 68 % 96 % 1019,5 hPa 0,0 l/m² 2,6 km/h (1 Bft) W-SW 245 ° 0 min 23 W/m² 17,3 °C 17,9 °C 4,8 km/h (1 Bft)
16.08.2023 06:59 23,7 °C 17,9 °C 68 % 96 % 1019,4 hPa 0,0 l/m² 0,8 km/h (0 Bft) W-SW 245 ° 0 min 25 W/m² 17,3 °C 17,9 °C 3,2 km/h (1 Bft)
16.08.2023 07:01 23,8 °C 17,9 °C 67 % 96 % 1019,5 hPa 0,0 l/m² 0,0 km/h (0 Bft) W-SW 245 ° 0 min 25 W/m² 17,3 °C 17,9 °C 0,0 km/h (0 Bft)
16.08.2023 07:02 23,7 °C 17,9 °C 67 % 96 % 1019,5 hPa 0,0 l/m² 0,0 km/h (0 Bft) W-SW 245 ° 0 min 26 W/m² 17,3 °C 17,9 °C 0,0 km/h (0 Bft)
16.08.2023 07:03 23,7 °C 17,9 °C 67 % 96 % 1019,5 hPa 0,0 l/m² 0,0 km/h (0 Bft) W-SW 245 ° 0 min 28 W/m² 17,3 °C 17,9 °C 0,0 km/h (0 Bft)
16.08.2023 07:05 23,7 °C 17,9 °C 67 % 96 % 1019,5 hPa 0,0 l/m² 0,0 km/h (0 Bft) W-SW 245 ° 0 min 28 W/m² 17,3 °C 17,9 °C 0,0 km/h (0 Bft)
16.08.2023 07:07 23,7 °C 17,9 °C 67 % 96 % 1019,5 hPa 0,0 l/m² 0,0 km/h (0 Bft) W-SW 245 ° 0 min 28 W/m² 17,3 °C 17,9 °C 0,0 km/h (0 Bft)
16.08.2023 07:09 23,7 °C 18,0 °C 67 % 96 % 1019,6 hPa 0,0 l/m² 0,0 km/h (0 Bft) W-SW 245 ° 0 min 26 W/m² 17,4 °C 18,0 °C 0,0 km/h (0 Bft)
16.08.2023 07:11 23,7 °C 18,0 °C 67 % 96 % 1019,7 hPa 0,0 l/m² 0,5 km/h (0 Bft) W-SW 245 ° 0 min 21 W/m² 17,4 °C 18,0 °C 3,2 km/h (1 Bft)
16.08.2023 07:12 23,7 °C 18,1 °C 67 % 96 % 1019,8 hPa 0,0 l/m² 2,1 km/h (1 Bft) W-NW 292 ° 0 min 16 W/m² 17,5 °C 18,1 °C 6,4 km/h (2 Bft)
16.08.2023 07:13 23,7 °C 18,1 °C 67 % 96 % 1019,8 hPa 0,0 l/m² 3,1 km/h (1 Bft) W-NW 292 ° 0 min 12 W/m² 17,5 °C 18,1 °C 4,8 km/h (1 Bft)
16.08.2023 07:16 23,7 °C 18,1 °C 67 % 96 % 1019,9 hPa 0,0 l/m² 5,8 km/h (2 Bft) NW 309 ° 0 min 19 W/m² 17,5 °C 18,1 °C 11,3 km/h (2 Bft)
16.08.2023 07:18 23,7 °C 18,1 °C 67 % 96 % 1019,9 hPa 0,0 l/m² 1,9 km/h (1 Bft) NW 304 ° 0 min 30 W/m² 17,5 °C 18,1 °C 6,4 km/h (2 Bft)
16.08.2023 07:20 23,7 °C 18,2 °C 67 % 96 % 1019,9 hPa 0,0 l/m² 0,8 km/h (0 Bft) NW 309 ° 0 min 32 W/m² 17,6 °C 18,2 °C 4,8 km/h (1 Bft)
16.08.2023 07:21 23,7 °C 18,2 °C 67 % 96 % 1019,9 hPa 0,0 l/m² 4,0 km/h (1 Bft) NW 319 ° 0 min 23 W/m² 17,6 °C 18,2 °C 6,4 km/h (2 Bft)
16.08.2023 07:23 23,7 °C 18,2 °C 67 % 96 % 1019,9 hPa 0,0 l/m² 4,0 km/h (1 Bft) NW 325 ° 0 min 23 W/m² 17,6 °C 18,2 °C 6,4 km/h (2 Bft)
16.08.2023 07:24 23,7 °C 18,2 °C 67 % 96 % 1019,9 hPa 0,0 l/m² 4,2 km/h (1 Bft) N-NW 329 ° 0 min 26 W/m² 17,6 °C 18,2 °C 4,8 km/h (1 Bft)
16.08.2023 07:26 23,7 °C 18,2 °C 67 % 96 % 1019,9 hPa 0,0 l/m² 0,2 km/h (0 Bft) N-NW 329 ° 0 min 39 W/m² 17,6 °C 18,2 °C 3,2 km/h (1 Bft)
16.08.2023 07:28 23,7 °C 18,2 °C 67 % 96 % 1020,0 hPa 0,0 l/m² 1,0 km/h (0 Bft) NW 316 ° 0 min 32 W/m² 17,6 °C 18,2 °C 4,8 km/h (1 Bft)
16.08.2023 07:30 23,7 °C 18,3 °C 67 % 96 % 1020,0 hPa 0,0 l/m² 1,7 km/h (1 Bft) NW 311 ° 0 min 25 W/m² 17,6 °C 18,3 °C 4,8 km/h (1 Bft)
16.08.2023 07:31 23,7 °C 18,3 °C 67 % 96 % 1020,0 hPa 0,0 l/m² 1,6 km/h (1 Bft) W-NW 288 ° 0 min 25 W/m² 17,6 °C 18,3 °C 4,8 km/h (1 Bft)
16.08.2023 07:32 23,7 °C 18,3 °C 67 % 96 % 1020,0 hPa 0,0 l/m² 1,3 km/h (1 Bft) W-NW 292 ° 0 min 37 W/m² 17,6 °C 18,3 °C 3,2 km/h (1 Bft)
16.08.2023 07:33 23,7 °C 18,3 °C 67 % 96 % 1020,0 hPa 0,0 l/m² 0,7 km/h (0 Bft) W-NW 292 ° 0 min 42 W/m² 17,6 °C 18,3 °C 3,2 km/h (1 Bft)
16.08.2023 07:35 23,7 °C 18,3 °C 67 % 96 % 1020,1 hPa 0,0 l/m² 0,0 km/h (0 Bft) W-NW 292 ° 0 min 37 W/m² 17,6 °C 18,3 °C 0,0 km/h (0 Bft)
16.08.2023 07:37 23,7 °C 18,3 °C 67 % 96 % 1020,1 hPa 0,0 l/m² 1,6 km/h (1 Bft) NW 326 ° 0 min 26 W/m² 17,6 °C 18,3 °C 4,8 km/h (1 Bft)
16.08.2023 07:39 23,7 °C 18,4 °C 67 % 96 % 1020,1 hPa 0,0 l/m² 2,3 km/h (1 Bft) N-NW 330 ° 0 min 33 W/m² 17,7 °C 18,4 °C 4,8 km/h (1 Bft)
16.08.2023 07:41 23,7 °C 18,4 °C 67 % 96 % 1020,1 hPa 0,0 l/m² 0,2 km/h (0 Bft) N-NW 330 ° 0 min 47 W/m² 17,7 °C 18,4 °C 1,6 km/h (1 Bft)
16.08.2023 07:42 23,7 °C 18,4 °C 67 % 96 % 1020,1 hPa 0,0 l/m² 0,0 km/h (0 Bft) N-NW 330 ° 0 min 49 W/m² 17,7 °C 18,4 °C 0,0 km/h (0 Bft)
16.08.2023 07:43 23,7 °C 18,4 °C 67 % 96 % 1020,1 hPa 0,0 l/m² 0,0 km/h (0 Bft) N-NW 330 ° 0 min 46 W/m² 17,7 °C 18,4 °C 0,0 km/h (0 Bft)
16.08.2023 07:45 23,7 °C 18,4 °C 67 % 96 % 1020,3 hPa 0,0 l/m² 0,0 km/h (0 Bft) N-NW 329 ° 0 min 40 W/m² 17,7 °C 18,4 °C 0,0 km/h (0 Bft)
16.08.2023 07:47 23,7 °C 18,4 °C 67 % 96 % 1020,1 hPa 0,0 l/m² 0,0 km/h (0 Bft) N-NW 329 ° 2 min 53 W/m² 17,7 °C 18,4 °C 0,0 km/h (0 Bft)
16.08.2023 07:49 23,7 °C 18,4 °C 67 % 96 % 1020,1 hPa 0,0 l/m² 0,0 km/h (0 Bft) N-NW 329 ° 2 min 63 W/m² 17,7 °C 18,4 °C 0,0 km/h (0 Bft)
16.08.2023 07:51 23,7 °C 18,4 °C 67 % 96 % 1020,1 hPa 0,0 l/m² 0,0 km/h (0 Bft) N-NW 330 ° 2 min 63 W/m² 17,7 °C 18,4 °C 0,0 km/h (0 Bft)
16.08.2023 07:52 23,7 °C 18,4 °C 67 % 96 % 1020,1 hPa 0,0 l/m² 0,0 km/h (0 Bft) N-NW 329 ° 1 min 69 W/m² 17,7 °C 18,4 °C 0,0 km/h (0 Bft)
16.08.2023 07:53 23,7 °C 18,4 °C 67 % 96 % 1020,1 hPa 0,0 l/m² 0,0 km/h (0 Bft) N-NW 329 ° 1 min 74 W/m² 17,7 °C 18,4 °C 0,0 km/h (0 Bft)
16.08.2023 07:55 23,7 °C 18,4 °C 67 % 96 % 1020,1 hPa 0,0 l/m² 0,0 km/h (0 Bft) N-NW 329 ° 2 min 81 W/m² 17,7 °C 18,4 °C 0,0 km/h (0 Bft)
16.08.2023 07:57 23,7 °C 18,5 °C 67 % 96 % 1020,1 hPa 0,0 l/m² 0,0 km/h (0 Bft) N-NW 330 ° 2 min 79 W/m² 17,8 °C 18,5 °C 0,0 km/h (0 Bft)
16.08.2023 07:58 23,7 °C 18,4 °C 67 % 96 % 1020,1 hPa 0,0 l/m² 0,0 km/h (0 Bft) N-NW 329 ° 1 min 81 W/m² 17,7 °C 18,4 °C 0,0 km/h (0 Bft)
16.08.2023 07:59 23,7 °C 18,4 °C 67 % 96 % 1020,2 hPa 0,0 l/m² 0,0 km/h (0 Bft) N-NW 329 ° 1 min 84 W/m² 17,7 °C 18,4 °C 0,0 km/h (0 Bft)
16.08.2023 08:00 23,7 °C 18,5 °C 67 % 96 % 1020,2 hPa 0,0 l/m² 0,0 km/h (0 Bft) N-NW 329 ° 1 min 88 W/m² 17,8 °C 18,5 °C 0,0 km/h (0 Bft)
16.08.2023 08:01 23,7 °C 18,5 °C 67 % 96 % 1020,2 hPa 0,0 l/m² 0,0 km/h (0 Bft) N-NW 329 ° 1 min 91 W/m² 17,8 °C 18,5 °C 0,0 km/h (0 Bft)
16.08.2023 08:03 23,7 °C 18,5 °C 67 % 96 % 1020,1 hPa 0,0 l/m² 0,0 km/h (0 Bft) N-NW 329 ° 2 min 90 W/m² 17,8 °C 18,5 °C 0,0 km/h (0 Bft)
16.08.2023 08:04 23,7 °C 18,6 °C 67 % 96 % 1020,2 hPa 0,0 l/m² 0,0 km/h (0 Bft) N-NW 329 ° 1 min 90 W/m² 17,9 °C 18,6 °C 0,0 km/h (0 Bft)
16.08.2023 08:05 23,7 °C 18,6 °C 67 % 96 % 1020,2 hPa 0,0 l/m² 0,0 km/h (0 Bft) N-NW 329 ° 1 min 91 W/m² 17,9 °C 18,6 °C 0,0 km/h (0 Bft)
16.08.2023 08:06 23,7 °C 18,6 °C 67 % 96 % 1020,2 hPa 0,0 l/m² 0,0 km/h (0 Bft) N-NW 329 ° 1 min 98 W/m² 17,9 °C 18,6 °C 0,0 km/h (0 Bft)
16.08.2023 08:07 23,7 °C 18,6 °C 67 % 96 % 1020,1 hPa 0,0 l/m² 0,0 km/h (0 Bft) N-NW 329 ° 1 min 102 W/m² 17,9 °C 18,6 °C 0,0 km/h (0 Bft)
16.08.2023 08:08 23,7 °C 18,6 °C 67 % 96 % 1020,1 hPa 0,0 l/m² 0,0 km/h (0 Bft) N-NW 329 ° 1 min 102 W/m² 17,9 °C 18,6 °C 0,0 km/h (0 Bft)
16.08.2023 08:09 23,7 °C 18,7 °C 67 % 96 % 1020,1 hPa 0,0 l/m² 0,0 km/h (0 Bft) N-NW 330 ° 1 min 102 W/m² 18,0 °C 18,7 °C 0,0 km/h (0 Bft)
16.08.2023 08:10 23,7 °C 18,7 °C 67 % 96 % 1020,1 hPa 0,0 l/m² 0,0 km/h (0 Bft) N-NW 329 ° 1 min 104 W/m² 18,0 °C 18,7 °C 0,0 km/h (0 Bft)
16.08.2023 08:11 23,7 °C 18,7 °C 67 % 96 % 1020,1 hPa 0,0 l/m² 0,0 km/h (0 Bft) N-NW 329 ° 1 min 105 W/m² 18,0 °C 18,7 °C 0,0 km/h (0 Bft)
16.08.2023 08:12 23,7 °C 18,7 °C 67 % 96 % 1020,1 hPa 0,0 l/m² 0,0 km/h (0 Bft) N-NW 330 ° 1 min 109 W/m² 18,0 °C 18,7 °C 0,0 km/h (0 Bft)
16.08.2023 08:13 23,7 °C 18,7 °C 67 % 96 % 1020,2 hPa 0,0 l/m² 0,0 km/h (0 Bft) N-NW 329 ° 1 min 111 W/m² 18,0 °C 18,7 °C 0,0 km/h (0 Bft)
16.08.2023 08:14 23,7 °C 18,8 °C 67 % 97 % 1020,2 hPa 0,0 l/m² 0,0 km/h (0 Bft) N-NW 330 ° 1 min 114 W/m² 18,3 °C 18,8 °C 0,0 km/h (0 Bft)
16.08.2023 08:15 23,7 °C 18,8 °C 67 % 97 % 1020,2 hPa 0,0 l/m² 0,0 km/h (0 Bft) N-NW 329 ° 1 min 114 W/m² 18,3 °C 18,8 °C 0,0 km/h (0 Bft)
16.08.2023 08:16 23,7 °C 18,8 °C 67 % 97 % 1020,2 hPa 0,0 l/m² 0,0 km/h (0 Bft) N-NW 329 ° 1 min 113 W/m² 18,3 °C 18,8 °C 0,0 km/h (0 Bft)
16.08.2023 08:17 23,7 °C 18,8 °C 67 % 97 % 1020,1 hPa 0,0 l/m² 0,0 km/h (0 Bft) N-NW 329 ° 1 min 111 W/m² 18,3 °C 18,8 °C 0,0 km/h (0 Bft)
16.08.2023 08:18 23,7 °C 18,8 °C 67 % 97 % 1020,2 hPa 0,0 l/m² 0,0 km/h (0 Bft) N-NW 329 ° 1 min 109 W/m² 18,3 °C 18,8 °C 0,0 km/h (0 Bft)
16.08.2023 08:19 23,7 °C 18,9 °C 67 % 97 % 1020,1 hPa 0,0 l/m² 0,0 km/h (0 Bft) N-NW 329 ° 1 min 107 W/m² 18,4 °C 18,9 °C 0,0 km/h (0 Bft)
16.08.2023 08:20 23,7 °C 18,9 °C 67 % 97 % 1020,2 hPa 0,0 l/m² 0,0 km/h (0 Bft) N-NW 329 ° 1 min 107 W/m² 18,4 °C 18,9 °C 0,0 km/h (0 Bft)
16.08.2023 08:21 23,7 °C 18,9 °C 67 % 97 % 1020,2 hPa 0,0 l/m² 0,0 km/h (0 Bft) N-NW 329 ° 1 min 109 W/m² 18,4 °C 18,9 °C 0,0 km/h (0 Bft)
16.08.2023 08:23 23,7 °C 19,0 °C 67 % 97 % 1020,2 hPa 0,0 l/m² 0,0 km/h (0 Bft) N-NW 330 ° 2 min 113 W/m² 18,5 °C 19,0 °C 0,0 km/h (0 Bft)
16.08.2023 08:24 23,7 °C 19,0 °C 67 % 97 % 1020,3 hPa 0,0 l/m² 0,0 km/h (0 Bft) N-NW 330 ° 1 min 113 W/m² 18,5 °C 19,0 °C 0,0 km/h (0 Bft)
16.08.2023 08:25 23,7 °C 19,0 °C 67 % 97 % 1020,3 hPa 0,0 l/m² 0,0 km/h (0 Bft) N-NW 330 ° 1 min 116 W/m² 18,5 °C 19,0 °C 0,0 km/h (0 Bft)
16.08.2023 08:26 23,7 °C 19,1 °C 67 % 96 % 1020,2 hPa 0,0 l/m² 0,0 km/h (0 Bft) N-NW 330 ° 1 min 116 W/m² 18,4 °C 19,1 °C 0,0 km/h (0 Bft)
16.08.2023 08:27 23,7 °C 19,1 °C 67 % 96 % 1020,3 hPa 0,0 l/m² 0,0 km/h (0 Bft) N-NW 329 ° 1 min 114 W/m² 18,4 °C 19,1 °C 0,0 km/h (0 Bft)
16.08.2023 08:28 23,7 °C 19,1 °C 67 % 97 % 1020,2 hPa 0,0 l/m² 0,0 km/h (0 Bft) N-NW 330 ° 1 min 113 W/m² 18,6 °C 19,1 °C 0,0 km/h (0 Bft)
16.08.2023 08:29 23,7 °C 19,1 °C 67 % 97 % 1020,2 hPa 0,0 l/m² 0,0 km/h (0 Bft) N-NW 330 ° 1 min 111 W/m² 18,6 °C 19,1 °C 0,0 km/h (0 Bft)
16.08.2023 08:30 23,7 °C 19,1 °C 67 % 97 % 1020,3 hPa 0,0 l/m² 0,0 km/h (0 Bft) N-NW 330 ° 1 min 111 W/m² 18,6 °C 19,1 °C 0,0 km/h (0 Bft)
16.08.2023 08:31 23,7 °C 19,1 °C 67 % 97 % 1020,2 hPa 0,0 l/m² 0,0 km/h (0 Bft) N-NW 330 ° 1 min 109 W/m² 18,6 °C 19,1 °C 0,0 km/h (0 Bft)
16.08.2023 08:33 23,7 °C 19,2 °C 67 % 97 % 1020,2 hPa 0,0 l/m² 0,0 km/h (0 Bft) N-NW 330 ° 2 min 111 W/m² 18,7 °C 19,2 °C 0,0 km/h (0 Bft)
16.08.2023 08:34 23,7 °C 19,2 °C 67 % 97 % 1020,2 hPa 0,0 l/m² 0,0 km/h (0 Bft) N-NW 330 ° 1 min 113 W/m² 18,7 °C 19,2 °C 0,0 km/h (0 Bft)
16.08.2023 08:35 23,7 °C 19,2 °C 67 % 97 % 1020,2 hPa 0,0 l/m² 0,0 km/h (0 Bft) N-NW 329 ° 1 min 113 W/m² 18,7 °C 19,2 °C 0,0 km/h (0 Bft)
16.08.2023 08:36 23,7 °C 19,2 °C 67 % 97 % 1020,3 hPa 0,0 l/m² 0,0 km/h (0 Bft) N-NW 330 ° 1 min 114 W/m² 18,7 °C 19,2 °C 0,0 km/h (0 Bft)
16.08.2023 08:37 23,7 °C 19,2 °C 67 % 97 % 1020,1 hPa 0,0 l/m² 0,0 km/h (0 Bft) N-NW 329 ° 1 min 116 W/m² 18,7 °C 19,2 °C 0,0 km/h (0 Bft)
16.08.2023 08:38 23,7 °C 19,2 °C 67 % 97 % 1020,2 hPa 0,0 l/m² 0,0 km/h (0 Bft) N-NW 330 ° 1 min 116 W/m² 18,7 °C 19,2 °C 0,0 km/h (0 Bft)
16.08.2023 08:39 23,7 °C 19,2 °C 67 % 97 % 1020,2 hPa 0,0 l/m² 0,0 km/h (0 Bft) N-NW 330 ° 1 min 116 W/m² 18,7 °C 19,2 °C 0,0 km/h (0 Bft)
16.08.2023 08:40 23,7 °C 19,3 °C 67 % 97 % 1020,3 hPa 0,0 l/m² 0,0 km/h (0 Bft) N-NW 329 ° 1 min 118 W/m² 18,8 °C 19,3 °C 0,0 km/h (0 Bft)
16.08.2023 08:41 23,7 °C 19,3 °C 67 % 97 % 1020,3 hPa 0,0 l/m² 0,0 km/h (0 Bft) N-NW 329 ° 1 min 120 W/m² 18,8 °C 19,3 °C 0,0 km/h (0 Bft)
16.08.2023 08:43 23,7 °C 19,3 °C 67 % 97 % 1020,2 hPa 0,0 l/m² 0,0 km/h (0 Bft) N-NW 330 ° 2 min 128 W/m² 18,8 °C 19,3 °C 0,0 km/h (0 Bft)
16.08.2023 08:44 23,7 °C 19,3 °C 67 % 97 % 1020,3 hPa 0,0 l/m² 0,0 km/h (0 Bft) N-NW 329 ° 1 min 132 W/m² 18,8 °C 19,3 °C 0,0 km/h (0 Bft)
16.08.2023 08:45 23,7 °C 19,4 °C 67 % 97 % 1020,3 hPa 0,0 l/m² 0,0 km/h (0 Bft) N-NW 329 ° 1 min 135 W/m² 18,9 °C 19,4 °C 0,0 km/h (0 Bft)
16.08.2023 08:46 23,7 °C 19,4 °C 67 % 97 % 1020,2 hPa 0,0 l/m² 0,0 km/h (0 Bft) N-NW 329 ° 1 min 139 W/m² 18,9 °C 19,4 °C 0,0 km/h (0 Bft)
16.08.2023 08:47 23,7 °C 19,4 °C 67 % 97 % 1020,2 hPa 0,0 l/m² 0,0 km/h (0 Bft) N-NW 329 ° 1 min 141 W/m² 18,9 °C 19,4 °C 0,0 km/h (0 Bft)
16.08.2023 08:48 23,7 °C 19,4 °C 67 % 97 % 1020,2 hPa 0,0 l/m² 0,0 km/h (0 Bft) N-NW 329 ° 1 min 141 W/m² 18,9 °C 19,4 °C 0,0 km/h (0 Bft)
16.08.2023 08:49 23,7 °C 19,4 °C 67 % 97 % 1020,3 hPa 0,0 l/m² 0,0 km/h (0 Bft) N-NW 329 ° 1 min 141 W/m² 18,9 °C 19,4 °C 0,0 km/h (0 Bft)
16.08.2023 08:50 23,7 °C 19,4 °C 67 % 97 % 1020,3 hPa 0,0 l/m² 0,0 km/h (0 Bft) N-NW 329 ° 1 min 141 W/m² 18,9 °C 19,4 °C 0,0 km/h (0 Bft)
16.08.2023 08:51 23,7 °C 19,5 °C 67 % 97 % 1020,2 hPa 0,0 l/m² 0,0 km/h (0 Bft) N-NW 329 ° 1 min 141 W/m² 19,0 °C 19,5 °C 0,0 km/h (0 Bft)
16.08.2023 08:53 23,7 °C 19,6 °C 67 % 97 % 1020,3 hPa 0,0 l/m² 0,0 km/h (0 Bft) N-NW 329 ° 2 min 141 W/m² 19,1 °C 19,6 °C 1,6 km/h (1 Bft)
16.08.2023 08:54 23,7 °C 19,6 °C 67 % 97 % 1020,3 hPa 0,0 l/m² 0,0 km/h (0 Bft) N-NW 329 ° 1 min 142 W/m² 19,1 °C 19,6 °C 0,0 km/h (0 Bft)
16.08.2023 08:55 23,7 °C 19,6 °C 67 % 97 % 1020,2 hPa 0,0 l/m² 0,0 km/h (0 Bft) N-NW 329 ° 1 min 151 W/m² 19,1 °C 19,6 °C 0,0 km/h (0 Bft)
16.08.2023 08:56 23,7 °C 19,6 °C 67 % 97 % 1020,2 hPa 0,0 l/m² 0,0 km/h (0 Bft) N-NW 329 ° 1 min 155 W/m² 19,1 °C 19,6 °C 0,0 km/h (0 Bft)
16.08.2023 08:57 23,7 °C 19,6 °C 67 % 97 % 1020,3 hPa 0,0 l/m² 0,0 km/h (0 Bft) N-NW 329 ° 1 min 160 W/m² 19,1 °C 19,6 °C 0,0 km/h (0 Bft)
16.08.2023 08:58 23,7 °C 19,6 °C 67 % 97 % 1020,3 hPa 0,0 l/m² 0,0 km/h (0 Bft) N-NW 329 ° 1 min 163 W/m² 19,1 °C 19,6 °C 0,0 km/h (0 Bft)
16.08.2023 08:59 23,7 °C 19,6 °C 67 % 97 % 1020,2 hPa 0,0 l/m² 0,0 km/h (0 Bft) N-NW 329 ° 1 min 167 W/m² 19,1 °C 19,6 °C 0,0 km/h (0 Bft)
16.08.2023 09:00 23,7 °C 19,7 °C 67 % 97 % 1020,2 hPa 0,0 l/m² 0,0 km/h (0 Bft) N-NW 329 ° 1 min 174 W/m² 19,2 °C 19,7 °C 0,0 km/h (0 Bft)
16.08.2023 09:01 23,7 °C 19,7 °C 67 % 97 % 1020,3 hPa 0,0 l/m² 0,0 km/h (0 Bft) N-NW 329 ° 1 min 176 W/m² 19,2 °C 19,7 °C 0,0 km/h (0 Bft)
16.08.2023 09:03 23,7 °C 19,7 °C 67 % 97 % 1020,3 hPa 0,0 l/m² 0,0 km/h (0 Bft) N-NW 329 ° 2 min 179 W/m² 19,2 °C 19,7 °C 0,0 km/h (0 Bft)
16.08.2023 09:04 23,7 °C 19,7 °C 67 % 97 % 1020,3 hPa 0,0 l/m² 0,1 km/h (0 Bft) N-NW 329 ° 1 min 181 W/m² 19,2 °C 19,7 °C 1,6 km/h (1 Bft)
16.08.2023 09:05 23,7 °C 19,8 °C 67 % 97 % 1020,3 hPa 0,0 l/m² 0,0 km/h (0 Bft) N-NW 329 ° 1 min 181 W/m² 19,3 °C 19,8 °C 0,0 km/h (0 Bft)
16.08.2023 09:06 23,7 °C 19,8 °C 67 % 97 % 1020,3 hPa 0,0 l/m² 0,0 km/h (0 Bft) S-SO 164 ° 1 min 176 W/m² 19,3 °C 19,8 °C 0,0 km/h (0 Bft)
16.08.2023 09:07 23,7 °C 19,8 °C 67 % 97 % 1020,3 hPa 0,0 l/m² 0,0 km/h (0 Bft) S-SO 164 ° 1 min 174 W/m² 19,3 °C 19,8 °C 0,0 km/h (0 Bft)
16.08.2023 09:08 23,7 °C 19,8 °C 67 % 97 % 1020,3 hPa 0,0 l/m² 0,0 km/h (0 Bft) S-SO 164 ° 1 min 171 W/m² 19,3 °C 19,8 °C 0,0 km/h (0 Bft)
16.08.2023 09:09 23,7 °C 19,8 °C 67 % 97 % 1020,3 hPa 0,0 l/m² 0,0 km/h (0 Bft) S-SO 164 ° 1 min 169 W/m² 19,3 °C 19,8 °C 0,0 km/h (0 Bft)
16.08.2023 09:10 23,7 °C 19,8 °C 67 % 97 % 1020,2 hPa 0,0 l/m² 0,0 km/h (0 Bft) S-SO 164 ° 1 min 169 W/m² 19,3 °C 19,8 °C 0,0 km/h (0 Bft)
16.08.2023 09:11 23,7 °C 19,8 °C 67 % 97 % 1020,2 hPa 0,0 l/m² 0,0 km/h (0 Bft) S-SO 164 ° 1 min 169 W/m² 19,3 °C 19,8 °C 0,0 km/h (0 Bft)
16.08.2023 09:12 23,7 °C 19,8 °C 67 % 97 % 1020,3 hPa 0,0 l/m² 0,0 km/h (0 Bft) S-SO 164 ° 1 min 174 W/m² 19,3 °C 19,8 °C 0,0 km/h (0 Bft)
16.08.2023 09:13 23,7 °C 19,8 °C 67 % 97 % 1020,3 hPa 0,0 l/m² 0,0 km/h (0 Bft) S-SO 164 ° 1 min 176 W/m² 19,3 °C 19,8 °C 0,0 km/h (0 Bft)
16.08.2023 09:14 23,7 °C 19,8 °C 67 % 97 % 1020,3 hPa 0,0 l/m² 0,0 km/h (0 Bft) S-SO 164 ° 1 min 179 W/m² 19,3 °C 19,8 °C 0,0 km/h (0 Bft)
16.08.2023 09:15 23,7 °C 19,8 °C 67 % 97 % 1020,3 hPa 0,0 l/m² 0,0 km/h (0 Bft) S-SO 164 ° 1 min 181 W/m² 19,3 °C 19,8 °C 0,0 km/h (0 Bft)
16.08.2023 09:16 23,7 °C 19,9 °C 67 % 97 % 1020,3 hPa 0,0 l/m² 0,0 km/h (0 Bft) S-SO 164 ° 1 min 185 W/m² 19,4 °C 19,9 °C 0,0 km/h (0 Bft)
16.08.2023 09:17 23,7 °C 19,9 °C 67 % 97 % 1020,3 hPa 0,0 l/m² 0,0 km/h (0 Bft) S-SO 164 ° 1 min 188 W/m² 19,4 °C 19,9 °C 0,0 km/h (0 Bft)
16.08.2023 09:18 23,6 °C 19,9 °C 67 % 97 % 1020,3 hPa 0,0 l/m² 0,0 km/h (0 Bft) S-SO 164 ° 1 min 192 W/m² 19,4 °C 19,9 °C 0,0 km/h (0 Bft)
16.08.2023 09:19 23,6 °C 19,9 °C 67 % 97 % 1020,2 hPa 0,0 l/m² 0,0 km/h (0 Bft) S-SO 164 ° 1 min 202 W/m² 19,4 °C 19,9 °C 0,0 km/h (0 Bft)
16.08.2023 09:21 23,7 °C 19,9 °C 67 % 97 % 1020,3 hPa 0,0 l/m² 0,0 km/h (0 Bft) S-SO 164 ° 2 min 211 W/m² 19,4 °C 19,9 °C 0,0 km/h (0 Bft)
16.08.2023 09:23 23,7 °C 20,0 °C 67 % 97 % 1020,4 hPa 0,0 l/m² 0,0 km/h (0 Bft) S-SO 164 ° 2 min 216 W/m² 19,5 °C 20,0 °C 0,0 km/h (0 Bft)
16.08.2023 09:24 23,7 °C 20,0 °C 67 % 97 % 1020,4 hPa 0,0 l/m² 0,0 km/h (0 Bft) S-SO 164 ° 1 min 218 W/m² 19,5 °C 20,0 °C 0,0 km/h (0 Bft)
16.08.2023 09:25 23,7 °C 19,9 °C 67 % 97 % 1020,4 hPa 0,0 l/m² 0,0 km/h (0 Bft) S-SO 164 ° 1 min 220 W/m² 19,4 °C 19,9 °C 0,0 km/h (0 Bft)
16.08.2023 09:26 23,7 °C 20,0 °C 67 % 97 % 1020,4 hPa 0,0 l/m² 0,0 km/h (0 Bft) S-SO 164 ° 1 min 221 W/m² 19,5 °C 20,0 °C 0,0 km/h (0 Bft)
16.08.2023 09:27 23,7 °C 20,0 °C 67 % 97 % 1020,3 hPa 0,0 l/m² 0,0 km/h (0 Bft) S-SO 164 ° 1 min 223 W/m² 19,5 °C 20,0 °C 0,0 km/h (0 Bft)
16.08.2023 09:28 23,7 °C 20,0 °C 67 % 97 % 1020,4 hPa 0,0 l/m² 0,1 km/h (0 Bft) S-SO 164 ° 1 min 227 W/m² 19,5 °C 20,0 °C 1,6 km/h (1 Bft)
16.08.2023 09:29 23,7 °C 20,0 °C 67 % 97 % 1020,3 hPa 0,0 l/m² 1,1 km/h (1 Bft) S-SO 164 ° 1 min 229 W/m² 19,5 °C 20,0 °C 1,6 km/h (1 Bft)
16.08.2023 09:31 23,7 °C 20,1 °C 67 % 97 % 1020,4 hPa 0,0 l/m² 0,2 km/h (0 Bft) S-SO 164 ° 2 min 236 W/m² 19,6 °C 20,1 °C 1,6 km/h (1 Bft)
16.08.2023 09:33 23,7 °C 20,1 °C 67 % 97 % 1020,4 hPa 0,0 l/m² 0,0 km/h (0 Bft) S-SO 164 ° 2 min 234 W/m² 19,6 °C 20,1 °C 1,6 km/h (1 Bft)
16.08.2023 09:34 23,7 °C 20,2 °C 67 % 97 % 1020,4 hPa 0,0 l/m² 0,2 km/h (0 Bft) S-SO 164 ° 1 min 232 W/m² 19,7 °C 20,2 °C 1,6 km/h (1 Bft)
16.08.2023 09:35 23,6 °C 20,2 °C 67 % 97 % 1020,5 hPa 0,0 l/m² 0,1 km/h (0 Bft) S-SO 164 ° 1 min 229 W/m² 19,7 °C 20,2 °C 1,6 km/h (1 Bft)
16.08.2023 09:36 23,7 °C 20,2 °C 67 % 97 % 1020,5 hPa 0,0 l/m² 0,0 km/h (0 Bft) S-SO 164 ° 1 min 221 W/m² 19,7 °C 20,2 °C 0,0 km/h (0 Bft)
16.08.2023 09:37 23,7 °C 20,2 °C 67 % 97 % 1020,5 hPa 0,0 l/m² 0,0 km/h (0 Bft) S-SO 164 ° 1 min 216 W/m² 19,7 °C 20,2 °C 0,0 km/h (0 Bft)
16.08.2023 09:38 23,6 °C 20,3 °C 67 % 97 % 1020,6 hPa 0,0 l/m² 0,0 km/h (0 Bft) S-SO 164 ° 1 min 209 W/m² 19,8 °C 20,3 °C 0,0 km/h (0 Bft)
16.08.2023 09:39 23,6 °C 20,3 °C 67 % 97 % 1020,6 hPa 0,0 l/m² 0,0 km/h (0 Bft) S-SO 164 ° 1 min 202 W/m² 19,8 °C 20,3 °C 0,0 km/h (0 Bft)
16.08.2023 09:41 23,7 °C 20,2 °C 67 % 97 % 1020,6 hPa 0,0 l/m² 0,0 km/h (0 Bft) S-SO 164 ° 2 min 181 W/m² 19,7 °C 20,2 °C 0,0 km/h (0 Bft)
16.08.2023 09:43 23,7 °C 20,3 °C 67 % 97 % 1020,5 hPa 0,0 l/m² 0,0 km/h (0 Bft) S-SO 164 ° 2 min 163 W/m² 19,8 °C 20,3 °C 0,0 km/h (0 Bft)
16.08.2023 09:44 23,7 °C 20,3 °C 67 % 97 % 1020,5 hPa 0,0 l/m² 0,0 km/h (0 Bft) S-SO 164 ° 1 min 155 W/m² 19,8 °C 20,3 °C 0,0 km/h (0 Bft)
16.08.2023 09:46 23,7 °C 20,3 °C 67 % 97 % 1020,5 hPa 0,0 l/m² 1,0 km/h (0 Bft) S-SO 164 ° 2 min 141 W/m² 19,8 °C 20,3 °C 1,6 km/h (1 Bft)
16.08.2023 09:47 23,7 °C 20,3 °C 67 % 97 % 1020,6 hPa 0,0 l/m² 0,8 km/h (0 Bft) S-SO 164 ° 1 min 132 W/m² 19,8 °C 20,3 °C 1,6 km/h (1 Bft)
16.08.2023 09:48 23,7 °C 20,3 °C 67 % 97 % 1020,5 hPa 0,0 l/m² 0,1 km/h (0 Bft) S-SO 164 ° 1 min 130 W/m² 19,8 °C 20,3 °C 1,6 km/h (1 Bft)
16.08.2023 09:49 23,7 °C 20,3 °C 67 % 97 % 1020,6 hPa 0,0 l/m² 0,0 km/h (0 Bft) S-SO 164 ° 1 min 132 W/m² 19,8 °C 20,3 °C 0,0 km/h (0 Bft)
16.08.2023 09:51 23,7 °C 20,3 °C 67 % 97 % 1020,5 hPa 0,0 l/m² 0,0 km/h (0 Bft) S-SO 164 ° 2 min 144 W/m² 19,8 °C 20,3 °C 0,0 km/h (0 Bft)
16.08.2023 09:53 23,7 °C 20,2 °C 67 % 97 % 1020,6 hPa 0,0 l/m² 0,0 km/h (0 Bft) S-SO 164 ° 2 min 179 W/m² 19,7 °C 20,2 °C 0,0 km/h (0 Bft)
16.08.2023 09:54 23,6 °C 20,3 °C 67 % 97 % 1020,5 hPa 0,0 l/m² 0,0 km/h (0 Bft) S-SO 164 ° 1 min 192 W/m² 19,8 °C 20,3 °C 0,0 km/h (0 Bft)
16.08.2023 09:55 23,7 °C 20,3 °C 67 % 97 % 1020,6 hPa 0,0 l/m² 0,0 km/h (0 Bft) S-SO 164 ° 1 min 206 W/m² 19,8 °C 20,3 °C 0,0 km/h (0 Bft)
16.08.2023 09:56 23,7 °C 20,3 °C 67 % 97 % 1020,6 hPa 0,0 l/m² 0,3 km/h (0 Bft) S-SO 164 ° 1 min 220 W/m² 19,8 °C 20,3 °C 1,6 km/h (1 Bft)
16.08.2023 09:57 23,7 °C 20,3 °C 67 % 97 % 1020,6 hPa 0,0 l/m² 0,2 km/h (0 Bft) S-SO 164 ° 1 min 232 W/m² 19,8 °C 20,3 °C 1,6 km/h (1 Bft)
16.08.2023 09:58 23,7 °C 20,3 °C 67 % 97 % 1020,5 hPa 0,0 l/m² 0,0 km/h (0 Bft) S-SO 164 ° 1 min 239 W/m² 19,8 °C 20,3 °C 0,0 km/h (0 Bft)
16.08.2023 09:59 23,7 °C 20,3 °C 67 % 97 % 1020,5 hPa 0,0 l/m² 0,0 km/h (0 Bft) S-SO 164 ° 1 min 243 W/m² 19,8 °C 20,3 °C 0,0 km/h (0 Bft)
16.08.2023 10:01 23,7 °C 20,3 °C 67 % 97 % 1020,5 hPa 0,0 l/m² 0,4 km/h (0 Bft) S-SO 164 ° 2 min 251 W/m² 19,8 °C 20,3 °C 1,6 km/h (1 Bft)
16.08.2023 10:03 23,7 °C 20,4 °C 67 % 97 % 1020,5 hPa 0,0 l/m² 2,9 km/h (1 Bft) SO 127 ° 2 min 260 W/m² 19,9 °C 20,4 °C 4,8 km/h (1 Bft)
16.08.2023 10:04 23,7 °C 20,4 °C 67 % 97 % 1020,5 hPa 0,0 l/m² 2,8 km/h (1 Bft) SO 127 ° 1 min 265 W/m² 19,9 °C 20,4 °C 4,8 km/h (1 Bft)
16.08.2023 10:05 23,7 °C 20,4 °C 67 % 97 % 1020,6 hPa 0,0 l/m² 2,1 km/h (1 Bft) SO 127 ° 1 min 267 W/m² 19,9 °C 20,4 °C 4,8 km/h (1 Bft)
16.08.2023 10:06 23,7 °C 20,4 °C 67 % 97 % 1020,5 hPa 0,0 l/m² 2,3 km/h (1 Bft) SO 127 ° 1 min 267 W/m² 19,9 °C 20,4 °C 3,2 km/h (1 Bft)
16.08.2023 10:07 23,7 °C 20,4 °C 67 % 97 % 1020,6 hPa 0,0 l/m² 0,0 km/h (0 Bft) SO 127 ° 1 min 265 W/m² 19,9 °C 20,4 °C 0,0 km/h (0 Bft)
16.08.2023 10:08 23,7 °C 20,5 °C 67 % 97 % 1020,6 hPa 0,0 l/m² 0,1 km/h (0 Bft) SO 127 ° 1 min 262 W/m² 20,0 °C 20,5 °C 1,6 km/h (1 Bft)
16.08.2023 10:09 23,7 °C 20,5 °C 67 % 97 % 1020,6 hPa 0,0 l/m² 2,5 km/h (1 Bft) SO 127 ° 1 min 260 W/m² 20,0 °C 20,5 °C 4,8 km/h (1 Bft)
16.08.2023 10:11 23,7 °C 20,5 °C 67 % 97 % 1020,5 hPa 0,0 l/m² 2,4 km/h (1 Bft) SO 127 ° 2 min 253 W/m² 20,0 °C 20,5 °C 3,2 km/h (1 Bft)
16.08.2023 10:13 23,7 °C 20,5 °C 67 % 96 % 1020,6 hPa 0,0 l/m² 1,0 km/h (0 Bft) SO 127 ° 2 min 248 W/m² 19,8 °C 20,5 °C 3,2 km/h (1 Bft)
16.08.2023 10:14 23,7 °C 20,5 °C 67 % 96 % 1020,6 hPa 0,0 l/m² 3,0 km/h (1 Bft) SO 127 ° 1 min 248 W/m² 19,8 °C 20,5 °C 4,8 km/h (1 Bft)
16.08.2023 10:15 23,7 °C 20,6 °C 67 % 97 % 1020,6 hPa 0,0 l/m² 2,9 km/h (1 Bft) SO 127 ° 1 min 250 W/m² 20,1 °C 20,6 °C 3,2 km/h (1 Bft)
16.08.2023 10:16 23,7 °C 20,5 °C 67 % 97 % 1020,6 hPa 0,0 l/m² 4,3 km/h (1 Bft) O-SO 114 ° 1 min 251 W/m² 20,0 °C 20,5 °C 6,4 km/h (2 Bft)
16.08.2023 10:17 23,7 °C 20,6 °C 67 % 96 % 1020,6 hPa 0,0 l/m² 4,5 km/h (1 Bft) O-SO 108 ° 1 min 257 W/m² 19,9 °C 20,6 °C 6,4 km/h (2 Bft)
16.08.2023 10:18 23,7 °C 20,6 °C 67 % 97 % 1020,6 hPa 0,0 l/m² 3,7 km/h (1 Bft) O-SO 108 ° 1 min 262 W/m² 20,1 °C 20,6 °C 4,8 km/h (1 Bft)
16.08.2023 10:19 23,7 °C 20,6 °C 67 % 97 % 1020,5 hPa 0,0 l/m² 2,4 km/h (1 Bft) O-SO 108 ° 1 min 269 W/m² 20,1 °C 20,6 °C 3,2 km/h (1 Bft)
16.08.2023 10:21 23,7 °C 20,6 °C 67 % 97 % 1020,6 hPa 0,0 l/m² 2,6 km/h (1 Bft) O 92 ° 2 min 281 W/m² 20,1 °C 20,6 °C 6,4 km/h (2 Bft)
16.08.2023 10:23 23,7 °C 20,7 °C 67 % 97 % 1020,5 hPa 0,0 l/m² 2,2 km/h (1 Bft) O 85 ° 2 min 306 W/m² 20,2 °C 20,7 °C 4,8 km/h (1 Bft)
16.08.2023 10:24 23,7 °C 20,7 °C 67 % 97 % 1020,5 hPa 0,0 l/m² 0,9 km/h (0 Bft) O 85 ° 1 min 315 W/m² 20,2 °C 20,7 °C 4,8 km/h (1 Bft)
16.08.2023 10:25 23,7 °C 20,7 °C 67 % 97 % 1020,4 hPa 0,0 l/m² 4,4 km/h (1 Bft) O 85 ° 1 min 327 W/m² 20,2 °C 20,7 °C 6,4 km/h (2 Bft)
16.08.2023 10:26 23,7 °C 20,8 °C 67 % 96 % 1020,5 hPa 0,0 l/m² 3,5 km/h (1 Bft) O 84 ° 1 min 343 W/m² 20,1 °C 20,8 °C 8,0 km/h (2 Bft)
16.08.2023 10:27 23,7 °C 20,8 °C 67 % 96 % 1020,5 hPa 0,0 l/m² 4,3 km/h (1 Bft) O-NO 74 ° 1 min 362 W/m² 20,1 °C 20,8 °C 6,4 km/h (2 Bft)
16.08.2023 10:28 23,7 °C 20,8 °C 67 % 97 % 1020,5 hPa 0,0 l/m² 4,1 km/h (1 Bft) O-NO 72 ° 1 min 381 W/m² 20,3 °C 20,8 °C 6,4 km/h (2 Bft)
16.08.2023 10:29 23,7 °C 20,9 °C 67 % 97 % 1020,5 hPa 0,0 l/m² 4,8 km/h (1 Bft) O-NO 71 ° 1 min 403 W/m² 20,4 °C 20,9 °C 6,4 km/h (2 Bft)
16.08.2023 10:31 23,7 °C 20,9 °C 67 % 97 % 1020,5 hPa 0,0 l/m² 2,8 km/h (1 Bft) O-NO 74 ° 2 min 436 W/m² 20,4 °C 20,9 °C 4,8 km/h (1 Bft)
16.08.2023 10:33 23,7 °C 21,0 °C 67 % 97 % 1020,4 hPa 0,0 l/m² 2,8 km/h (1 Bft) O 79 ° 2 min 404 W/m² 20,5 °C 21,0 °C 6,4 km/h (2 Bft)
16.08.2023 10:34 23,7 °C 21,1 °C 67 % 97 % 1020,5 hPa 0,0 l/m² 6,2 km/h (2 Bft) O 86 ° 1 min 357 W/m² 20,6 °C 21,1 °C 8,0 km/h (2 Bft)
16.08.2023 10:35 23,7 °C 21,1 °C 67 % 97 % 1020,5 hPa 0,0 l/m² 4,4 km/h (1 Bft) O 86 ° 1 min 350 W/m² 20,6 °C 21,1 °C 6,4 km/h (2 Bft)
16.08.2023 10:36 23,7 °C 21,1 °C 67 % 97 % 1020,5 hPa 0,0 l/m² 2,5 km/h (1 Bft) O 86 ° 1 min 350 W/m² 20,6 °C 21,1 °C 3,2 km/h (1 Bft)
16.08.2023 10:37 23,7 °C 21,1 °C 67 % 96 % 1020,5 hPa 0,0 l/m² 4,9 km/h (1 Bft) O 88 ° 1 min 362 W/m² 20,4 °C 21,1 °C 6,4 km/h (2 Bft)
16.08.2023 10:38 23,7 °C 21,2 °C 67 % 96 % 1020,5 hPa 0,0 l/m² 5,2 km/h (1 Bft) O 82 ° 1 min 380 W/m² 20,5 °C 21,2 °C 6,4 km/h (2 Bft)
16.08.2023 10:39 23,7 °C 21,1 °C 67 % 96 % 1020,6 hPa 0,0 l/m² 4,4 km/h (1 Bft) O 82 ° 1 min 399 W/m² 20,4 °C 21,1 °C 6,4 km/h (2 Bft)
16.08.2023 10:41 23,7 °C 21,2 °C 67 % 96 % 1020,5 hPa 0,0 l/m² 2,0 km/h (1 Bft) O 82 ° 2 min 422 W/m² 20,5 °C 21,2 °C 3,2 km/h (1 Bft)
16.08.2023 10:43 23,7 °C 21,2 °C 67 % 96 % 1020,5 hPa 0,0 l/m² 0,0 km/h (0 Bft) O 82 ° 2 min 411 W/m² 20,5 °C 21,2 °C 1,6 km/h (1 Bft)
16.08.2023 10:44 23,7 °C 21,3 °C 67 % 96 % 1020,5 hPa 0,0 l/m² 1,5 km/h (1 Bft) O 82 ° 1 min 396 W/m² 20,6 °C 21,3 °C 3,2 km/h (1 Bft)
16.08.2023 10:45 23,7 °C 21,3 °C 67 % 96 % 1020,5 hPa 0,0 l/m² 3,9 km/h (1 Bft) O 82 ° 1 min 383 W/m² 20,6 °C 21,3 °C 4,8 km/h (1 Bft)
16.08.2023 10:46 23,7 °C 21,3 °C 67 % 96 % 1020,5 hPa 0,0 l/m² 2,5 km/h (1 Bft) O 82 ° 1 min 367 W/m² 20,6 °C 21,3 °C 4,8 km/h (1 Bft)
16.08.2023 10:47 23,7 °C 21,3 °C 67 % 96 % 1020,6 hPa 0,0 l/m² 3,0 km/h (1 Bft) O 82 ° 1 min 366 W/m² 20,6 °C 21,3 °C 4,8 km/h (1 Bft)
16.08.2023 10:48 23,7 °C 21,3 °C 67 % 96 % 1020,6 hPa 0,0 l/m² 3,7 km/h (1 Bft) O 82 ° 1 min 366 W/m² 20,6 °C 21,3 °C 4,8 km/h (1 Bft)
16.08.2023 10:49 23,8 °C 21,4 °C 67 % 96 % 1020,6 hPa 0,0 l/m² 1,6 km/h (1 Bft) O 82 ° 1 min 373 W/m² 20,7 °C 21,4 °C 3,2 km/h (1 Bft)
16.08.2023 10:51 23,7 °C 21,4 °C 67 % 96 % 1020,5 hPa 0,0 l/m² 0,2 km/h (0 Bft) O 82 ° 2 min 374 W/m² 20,7 °C 21,4 °C 1,6 km/h (1 Bft)
16.08.2023 10:53 23,7 °C 21,6 °C 67 % 96 % 1020,6 hPa 0,0 l/m² 1,0 km/h (0 Bft) O 80 ° 2 min 376 W/m² 20,9 °C 21,6 °C 4,8 km/h (1 Bft)
16.08.2023 10:54 23,8 °C 21,6 °C 67 % 96 % 1020,6 hPa 0,0 l/m² 0,6 km/h (0 Bft) O 80 ° 1 min 397 W/m² 20,9 °C 21,6 °C 3,2 km/h (1 Bft)
16.08.2023 10:55 23,7 °C 21,7 °C 67 % 96 % 1020,5 hPa 0,0 l/m² 1,3 km/h (1 Bft) O 79 ° 1 min 464 W/m² 21,0 °C 21,7 °C 3,2 km/h (1 Bft)
16.08.2023 10:56 23,8 °C 21,7 °C 67 % 96 % 1020,6 hPa 0,0 l/m² 3,8 km/h (1 Bft) NO 51 ° 1 min 464 W/m² 21,0 °C 21,7 °C 4,8 km/h (1 Bft)
16.08.2023 10:57 23,7 °C 21,8 °C 67 % 96 % 1020,5 hPa 0,0 l/m² 2,4 km/h (1 Bft) NO 51 ° 1 min 464 W/m² 21,1 °C 21,8 °C 4,8 km/h (1 Bft)
16.08.2023 10:58 23,7 °C 21,8 °C 67 % 96 % 1020,6 hPa 0,0 l/m² 0,5 km/h (0 Bft) NO 51 ° 1 min 464 W/m² 21,1 °C 21,8 °C 1,6 km/h (1 Bft)
16.08.2023 10:59 23,7 °C 21,9 °C 67 % 96 % 1020,5 hPa 0,0 l/m² 3,4 km/h (1 Bft) NO 51 ° 1 min 464 W/m² 21,2 °C 21,9 °C 6,4 km/h (2 Bft)
16.08.2023 11:01 23,7 °C 22,0 °C 67 % 96 % 1020,6 hPa 0,0 l/m² 3,2 km/h (1 Bft) NO 40 ° 2 min 519 W/m² 21,3 °C 22,0 °C 8,0 km/h (2 Bft)
16.08.2023 11:03 23,8 °C 22,0 °C 67 % 96 % 1020,6 hPa 0,0 l/m² 2,9 km/h (1 Bft) NO 40 ° 2 min 327 W/m² 21,3 °C 22,0 °C 6,4 km/h (2 Bft)
16.08.2023 11:04 23,7 °C 22,1 °C 66 % 96 % 1020,5 hPa 0,0 l/m² 2,7 km/h (1 Bft) NO 40 ° 1 min 338 W/m² 21,4 °C 22,1 °C 4,8 km/h (1 Bft)
16.08.2023 11:05 23,7 °C 22,1 °C 66 % 96 % 1020,6 hPa 0,0 l/m² 0,5 km/h (0 Bft) NO 40 ° 1 min 338 W/m² 21,4 °C 22,1 °C 3,2 km/h (1 Bft)
16.08.2023 11:06 23,8 °C 22,2 °C 66 % 96 % 1020,6 hPa 0,0 l/m² 0,6 km/h (0 Bft) NO 40 ° 1 min 343 W/m² 21,5 °C 22,2 °C 3,2 km/h (1 Bft)
16.08.2023 11:07 23,8 °C 22,2 °C 67 % 95 % 1020,6 hPa 0,0 l/m² 0,0 km/h (0 Bft) NO 40 ° 1 min 355 W/m² 21,4 °C 22,2 °C 0,0 km/h (0 Bft)
16.08.2023 11:08 23,8 °C 22,2 °C 66 % 95 % 1020,6 hPa 0,0 l/m² 2,2 km/h (1 Bft) NO 40 ° 1 min 366 W/m² 21,4 °C 22,2 °C 4,8 km/h (1 Bft)
16.08.2023 11:09 23,8 °C 22,3 °C 67 % 95 % 1020,5 hPa 0,0 l/m² 5,4 km/h (2 Bft) N 5 ° 1 min 415 W/m² 21,5 °C 22,3 °C 8,0 km/h (2 Bft)
16.08.2023 11:11 23,8 °C 22,3 °C 66 % 95 % 1020,6 hPa 0,0 l/m² 3,7 km/h (1 Bft) N 10 ° 2 min 415 W/m² 21,5 °C 22,3 °C 6,4 km/h (2 Bft)
16.08.2023 11:13 23,8 °C 22,4 °C 66 % 95 % 1020,5 hPa 0,0 l/m² 1,0 km/h (0 Bft) N 10 ° 2 min 415 W/m² 21,6 °C 22,4 °C 3,2 km/h (1 Bft)
16.08.2023 11:14 23,8 °C 22,5 °C 66 % 95 % 1020,5 hPa 0,0 l/m² 0,0 km/h (0 Bft) N 10 ° 1 min 475 W/m² 21,7 °C 22,5 °C 0,0 km/h (0 Bft)
16.08.2023 11:15 23,8 °C 22,5 °C 66 % 95 % 1020,6 hPa 0,0 l/m² 1,7 km/h (1 Bft) N-NO 29 ° 1 min 385 W/m² 21,7 °C 22,5 °C 6,4 km/h (2 Bft)
16.08.2023 11:16 23,8 °C 22,6 °C 66 % 94 % 1020,6 hPa 0,0 l/m² 3,2 km/h (1 Bft) N-NO 13 ° 1 min 390 W/m² 21,6 °C 22,6 °C 6,4 km/h (2 Bft)
16.08.2023 11:17 23,8 °C 22,6 °C 66 % 94 % 1020,6 hPa 0,0 l/m² 3,1 km/h (1 Bft) N 355 ° 1 min 469 W/m² 21,6 °C 22,6 °C 6,4 km/h (2 Bft)
16.08.2023 11:18 23,8 °C 22,6 °C 66 % 94 % 1020,6 hPa 0,0 l/m² 1,7 km/h (1 Bft) N 355 ° 1 min 469 W/m² 21,6 °C 22,6 °C 4,8 km/h (1 Bft)
16.08.2023 11:19 23,8 °C 22,7 °C 66 % 94 % 1020,6 hPa 0,0 l/m² 3,6 km/h (1 Bft) N-NO 20 ° 1 min 733 W/m² 21,7 °C 22,7 °C 6,4 km/h (2 Bft)
16.08.2023 11:21 23,8 °C 22,8 °C 66 % 94 % 1020,5 hPa 0,0 l/m² 1,6 km/h (1 Bft) N-NO 20 ° 2 min 457 W/m² 21,8 °C 22,8 °C 3,2 km/h (1 Bft)
16.08.2023 11:23 23,8 °C 22,9 °C 66 % 93 % 1020,5 hPa 0,0 l/m² 1,6 km/h (1 Bft) N-NO 13 ° 2 min 457 W/m² 21,7 °C 22,9 °C 4,8 km/h (1 Bft)
16.08.2023 11:24 23,8 °C 22,9 °C 66 % 93 % 1020,6 hPa 0,0 l/m² 0,3 km/h (0 Bft) N-NO 13 ° 1 min 422 W/m² 21,7 °C 22,9 °C 1,6 km/h (1 Bft)
16.08.2023 11:25 23,8 °C 23,0 °C 66 % 93 % 1020,6 hPa 0,0 l/m² 1,9 km/h (1 Bft) N 5 ° 1 min 399 W/m² 21,8 °C 23,0 °C 4,8 km/h (1 Bft)
16.08.2023 11:26 23,8 °C 23,1 °C 66 % 93 % 1020,6 hPa 0,0 l/m² 0,1 km/h (0 Bft) N 5 ° 1 min 376 W/m² 21,9 °C 23,1 °C 1,6 km/h (1 Bft)
16.08.2023 11:27 23,8 °C 23,1 °C 66 % 93 % 1020,6 hPa 0,0 l/m² 1,5 km/h (1 Bft) N 10 ° 1 min 383 W/m² 21,9 °C 23,1 °C 6,4 km/h (2 Bft)
16.08.2023 11:28 23,8 °C 23,2 °C 66 % 92 % 1020,6 hPa 0,0 l/m² 2,7 km/h (1 Bft) N 10 ° 1 min 383 W/m² 21,8 °C 23,2 °C 4,8 km/h (1 Bft)
16.08.2023 11:29 23,8 °C 23,2 °C 66 % 92 % 1020,6 hPa 0,0 l/m² 0,5 km/h (0 Bft) N 10 ° 1 min 374 W/m² 21,8 °C 23,2 °C 1,6 km/h (1 Bft)
16.08.2023 11:31 23,8 °C 23,2 °C 66 % 91 % 1020,6 hPa 0,0 l/m² 1,1 km/h (1 Bft) N 11 ° 2 min 378 W/m² 21,6 °C 23,2 °C 3,2 km/h (1 Bft)
16.08.2023 11:33 23,8 °C 23,3 °C 66 % 91 % 1020,6 hPa 0,0 l/m² 0,0 km/h (0 Bft) N 11 ° 2 min 462 W/m² 21,7 °C 23,3 °C 0,0 km/h (0 Bft)
16.08.2023 11:34 23,8 °C 23,4 °C 66 % 90 % 1020,5 hPa 0,0 l/m² 0,1 km/h (0 Bft) N 9 ° 1 min 457 W/m² 21,7 °C 23,4 °C 1,6 km/h (1 Bft)
16.08.2023 11:35 23,8 °C 23,5 °C 66 % 91 % 1020,5 hPa 0,0 l/m² 3,5 km/h (1 Bft) NO 53 ° 1 min 468 W/m² 21,9 °C 23,5 °C 4,8 km/h (1 Bft)
16.08.2023 11:36 23,8 °C 23,6 °C 66 % 90 % 1020,5 hPa 0,0 l/m² 0,8 km/h (0 Bft) NO 53 ° 1 min 438 W/m² 21,9 °C 23,6 °C 1,6 km/h (1 Bft)
16.08.2023 11:37 23,8 °C 23,6 °C 66 % 89 % 1020,6 hPa 0,0 l/m² 0,0 km/h (0 Bft) NO 53 ° 1 min 390 W/m² 21,7 °C 23,6 °C 0,0 km/h (0 Bft)
16.08.2023 11:38 23,8 °C 23,6 °C 66 % 89 % 1020,5 hPa 0,0 l/m² 0,0 km/h (0 Bft) NO 53 ° 1 min 380 W/m² 21,7 °C 23,6 °C 0,0 km/h (0 Bft)
16.08.2023 11:39 23,8 °C 23,7 °C 66 % 89 % 1020,5 hPa 0,0 l/m² 1,0 km/h (0 Bft) NO 53 ° 1 min 408 W/m² 21,8 °C 23,7 °C 1,6 km/h (1 Bft)
16.08.2023 11:41 23,8 °C 23,8 °C 66 % 88 % 1020,5 hPa 0,0 l/m² 1,6 km/h (1 Bft) NO 53 ° 2 min 429 W/m² 21,7 °C 23,8 °C 3,2 km/h (1 Bft)
16.08.2023 11:43 23,8 °C 23,8 °C 66 % 88 % 1020,5 hPa 0,0 l/m² 1,4 km/h (1 Bft) NO 53 ° 2 min 323 W/m² 21,7 °C 23,8 °C 3,2 km/h (1 Bft)
16.08.2023 11:44 23,8 °C 23,9 °C 66 % 87 % 1020,5 hPa 0,0 l/m² 1,5 km/h (1 Bft) NO 53 ° 1 min 294 W/m² 21,6 °C 23,9 °C 3,2 km/h (1 Bft)
16.08.2023 11:45 23,8 °C 23,9 °C 66 % 87 % 1020,5 hPa 0,0 l/m² 0,0 km/h (0 Bft) NO 53 ° 1 min 272 W/m² 21,6 °C 23,9 °C 0,0 km/h (0 Bft)
16.08.2023 11:46 23,8 °C 23,9 °C 66 % 86 % 1020,5 hPa 0,0 l/m² 0,8 km/h (0 Bft) NO 53 ° 1 min 267 W/m² 21,4 °C 23,9 °C 1,6 km/h (1 Bft)
16.08.2023 11:47 23,8 °C 23,9 °C 66 % 86 % 1020,5 hPa 0,0 l/m² 1,0 km/h (0 Bft) O-NO 58 ° 1 min 264 W/m² 21,4 °C 23,9 °C 4,8 km/h (1 Bft)
16.08.2023 11:48 23,8 °C 24,0 °C 66 % 86 % 1020,5 hPa 0,0 l/m² 4,8 km/h (1 Bft) O-SO 119 ° 1 min 265 W/m² 21,5 °C 24,0 °C 6,4 km/h (2 Bft)
16.08.2023 11:49 23,8 °C 24,0 °C 66 % 86 % 1020,6 hPa 0,0 l/m² 3,4 km/h (1 Bft) W-SW 246 ° 1 min 278 W/m² 21,5 °C 24,0 °C 9,7 km/h (2 Bft)
16.08.2023 11:51 23,8 °C 24,1 °C 66 % 85 % 1020,5 hPa 0,0 l/m² 2,3 km/h (1 Bft) W-SW 247 ° 2 min 302 W/m² 21,4 °C 24,1 °C 4,8 km/h (1 Bft)
16.08.2023 11:53 23,8 °C 24,1 °C 66 % 85 % 1020,5 hPa 0,0 l/m² 0,9 km/h (0 Bft) W-SW 247 ° 2 min 246 W/m² 21,4 °C 24,1 °C 3,2 km/h (1 Bft)
16.08.2023 11:54 23,8 °C 24,1 °C 66 % 84 % 1020,5 hPa 0,0 l/m² 0,3 km/h (0 Bft) W-SW 247 ° 1 min 258 W/m² 21,2 °C 24,1 °C 1,6 km/h (1 Bft)
16.08.2023 11:55 23,8 °C 24,1 °C 66 % 84 % 1020,5 hPa 0,0 l/m² 0,5 km/h (0 Bft) W-SW 247 ° 1 min 285 W/m² 21,2 °C 24,1 °C 1,6 km/h (1 Bft)
16.08.2023 11:56 23,9 °C 24,1 °C 66 % 84 % 1020,4 hPa 0,0 l/m² 0,4 km/h (0 Bft) W-SW 247 ° 1 min 339 W/m² 21,2 °C 24,1 °C 1,6 km/h (1 Bft)
16.08.2023 11:57 23,8 °C 24,1 °C 66 % 84 % 1020,5 hPa 0,0 l/m² 1,5 km/h (1 Bft) W-SW 247 ° 1 min 424 W/m² 21,2 °C 24,1 °C 4,8 km/h (1 Bft)
16.08.2023 11:58 23,9 °C 24,1 °C 66 % 83 % 1020,5 hPa 0,0 l/m² 2,7 km/h (1 Bft) W-SW 247 ° 1 min 424 W/m² 21,0 °C 24,1 °C 3,2 km/h (1 Bft)
16.08.2023 11:59 23,8 °C 24,2 °C 66 % 84 % 1020,5 hPa 0,0 l/m² 1,2 km/h (1 Bft) W-SW 247 ° 1 min 424 W/m² 21,3 °C 24,2 °C 3,2 km/h (1 Bft)
16.08.2023 12:01 23,9 °C 24,2 °C 66 % 85 % 1020,4 hPa 0,0 l/m² 0,7 km/h (0 Bft) W-SW 246 ° 2 min 967 W/m² 21,5 °C 24,2 °C 3,2 km/h (1 Bft)
16.08.2023 12:03 23,9 °C 24,4 °C 66 % 86 % 1020,4 hPa 0,0 l/m² 1,0 km/h (0 Bft) W-SW 244 ° 2 min 919 W/m² 21,9 °C 24,4 °C 4,8 km/h (1 Bft)
16.08.2023 12:04 23,9 °C 24,5 °C 66 % 85 % 1020,5 hPa 0,0 l/m² 2,5 km/h (1 Bft) N 355 ° 1 min 921 W/m² 21,8 °C 24,5 °C 6,4 km/h (2 Bft)
16.08.2023 12:05 23,9 °C 24,6 °C 66 % 85 % 1020,4 hPa 0,0 l/m² 0,2 km/h (0 Bft) N 355 ° 1 min 925 W/m² 21,9 °C 24,6 °C 3,2 km/h (1 Bft)
16.08.2023 12:06 23,9 °C 24,6 °C 66 % 84 % 1020,5 hPa 0,0 l/m² 3,6 km/h (1 Bft) N-NW 338 ° 1 min 888 W/m² 21,7 °C 24,6 °C 4,8 km/h (1 Bft)
16.08.2023 12:07 23,9 °C 24,7 °C 66 % 84 % 1020,4 hPa 0,0 l/m² 1,3 km/h (1 Bft) N-NW 337 ° 1 min 888 W/m² 21,8 °C 24,7 °C 4,8 km/h (1 Bft)
16.08.2023 12:08 23,9 °C 24,7 °C 66 % 84 % 1020,4 hPa 0,0 l/m² 4,0 km/h (1 Bft) N-NW 337 ° 1 min 220 W/m² 21,8 °C 24,7 °C 6,4 km/h (2 Bft)
16.08.2023 12:09 23,9 °C 24,8 °C 66 % 83 % 1020,4 hPa 0,0 l/m² 4,7 km/h (1 Bft) N 355 ° 1 min 216 W/m² 21,7 °C 24,8 °C 6,4 km/h (2 Bft)
16.08.2023 12:11 23,9 °C 24,8 °C 66 % 82 % 1020,4 hPa 0,0 l/m² 2,5 km/h (1 Bft) N 355 ° 2 min 243 W/m² 21,5 °C 24,8 °C 4,8 km/h (1 Bft)
16.08.2023 12:13 23,9 °C 24,9 °C 66 % 83 % 1020,4 hPa 0,0 l/m² 1,8 km/h (1 Bft) N 350 ° 2 min 276 W/m² 21,8 °C 24,9 °C 4,8 km/h (1 Bft)
16.08.2023 12:14 23,9 °C 24,9 °C 66 % 83 % 1020,5 hPa 0,0 l/m² 1,7 km/h (1 Bft) N 349 ° 1 min 306 W/m² 21,8 °C 24,9 °C 3,2 km/h (1 Bft)
16.08.2023 12:15 23,9 °C 24,9 °C 66 % 82 % 1020,5 hPa 0,0 l/m² 2,3 km/h (1 Bft) N 351 ° 1 min 332 W/m² 21,6 °C 24,9 °C 3,2 km/h (1 Bft)
16.08.2023 12:16 23,9 °C 25,0 °C 66 % 82 % 1020,4 hPa 0,0 l/m² 2,7 km/h (1 Bft) N 11 ° 1 min 364 W/m² 21,7 °C 25,0 °C 6,4 km/h (2 Bft)
16.08.2023 12:17 23,9 °C 25,0 °C 66 % 82 % 1020,4 hPa 0,0 l/m² 3,5 km/h (1 Bft) N 11 ° 1 min 452 W/m² 21,7 °C 25,0 °C 6,4 km/h (2 Bft)
16.08.2023 12:18 23,9 °C 25,0 °C 66 % 82 % 1020,4 hPa 0,0 l/m² 1,9 km/h (1 Bft) N 11 ° 1 min 448 W/m² 21,7 °C 25,0 °C 4,8 km/h (1 Bft)
16.08.2023 12:19 23,9 °C 25,1 °C 66 % 82 % 1020,4 hPa 0,0 l/m² 3,4 km/h (1 Bft) N-NO 17 ° 1 min 461 W/m² 21,8 °C 25,1 °C 6,4 km/h (2 Bft)
16.08.2023 12:21 23,9 °C 25,1 °C 66 % 82 % 1020,4 hPa 0,0 l/m² 2,6 km/h (1 Bft) N-NO 17 ° 2 min 585 W/m² 21,8 °C 25,1 °C 4,8 km/h (1 Bft)
16.08.2023 12:23 23,9 °C 25,1 °C 66 % 81 % 1020,4 hPa 0,0 l/m² 1,0 km/h (0 Bft) N-NO 17 ° 2 min 385 W/m² 21,6 °C 25,1 °C 3,2 km/h (1 Bft)
16.08.2023 12:24 23,9 °C 25,2 °C 66 % 81 % 1020,4 hPa 0,0 l/m² 4,3 km/h (1 Bft) N 355 ° 1 min 385 W/m² 21,7 °C 25,2 °C 8,0 km/h (2 Bft)
16.08.2023 12:25 23,9 °C 25,2 °C 66 % 81 % 1020,4 hPa 0,0 l/m² 3,5 km/h (1 Bft) N 355 ° 1 min 385 W/m² 21,7 °C 25,2 °C 4,8 km/h (1 Bft)
16.08.2023 12:26 23,9 °C 25,3 °C 66 % 81 % 1020,4 hPa 0,0 l/m² 3,3 km/h (1 Bft) N 355 ° 1 min 385 W/m² 21,8 °C 25,3 °C 4,8 km/h (1 Bft)
16.08.2023 12:27 23,9 °C 25,3 °C 66 % 81 % 1020,4 hPa 0,0 l/m² 1,9 km/h (1 Bft) N 9 ° 1 min 299 W/m² 21,8 °C 25,3 °C 4,8 km/h (1 Bft)
16.08.2023 12:28 23,9 °C 25,3 °C 66 % 81 % 1020,4 hPa 0,0 l/m² 3,7 km/h (1 Bft) N 9 ° 1 min 308 W/m² 21,8 °C 25,3 °C 6,4 km/h (2 Bft)
16.08.2023 12:29 23,9 °C 25,3 °C 66 % 80 % 1020,3 hPa 0,0 l/m² 3,4 km/h (1 Bft) N 9 ° 1 min 311 W/m² 21,6 °C 25,3 °C 4,8 km/h (1 Bft)
16.08.2023 12:31 23,9 °C 25,3 °C 66 % 79 % 1020,4 hPa 0,0 l/m² 2,5 km/h (1 Bft) N 9 ° 2 min 316 W/m² 21,4 °C 25,3 °C 4,8 km/h (1 Bft)
16.08.2023 12:33 23,9 °C 25,3 °C 66 % 78 % 1020,4 hPa 0,0 l/m² 1,0 km/h (0 Bft) N 9 ° 2 min 336 W/m² 21,2 °C 25,3 °C 3,2 km/h (1 Bft)
16.08.2023 12:34 23,9 °C 25,3 °C 66 % 78 % 1020,4 hPa 0,0 l/m² 0,4 km/h (0 Bft) N 9 ° 1 min 341 W/m² 21,2 °C 25,3 °C 3,2 km/h (1 Bft)
16.08.2023 12:35 24,0 °C 25,3 °C 66 % 78 % 1020,4 hPa 0,0 l/m² 1,3 km/h (1 Bft) N 9 ° 1 min 385 W/m² 21,2 °C 25,3 °C 1,6 km/h (1 Bft)
16.08.2023 12:37 23,9 °C 25,4 °C 66 % 79 % 1020,5 hPa 0,0 l/m² 0,3 km/h (0 Bft) N 9 ° 2 min 385 W/m² 21,5 °C 25,4 °C 1,6 km/h (1 Bft)
16.08.2023 12:38 23,9 °C 25,4 °C 66 % 79 % 1020,5 hPa 0,0 l/m² 0,2 km/h (0 Bft) N 9 ° 1 min 385 W/m² 21,5 °C 25,4 °C 1,6 km/h (1 Bft)
16.08.2023 12:39 23,9 °C 25,5 °C 66 % 79 % 1020,4 hPa 0,0 l/m² 0,0 km/h (0 Bft) N 9 ° 1 min 385 W/m² 21,6 °C 25,5 °C 0,0 km/h (0 Bft)
16.08.2023 12:41 24,0 °C 25,6 °C 66 % 79 % 1020,4 hPa 0,0 l/m² 1,8 km/h (1 Bft) N-NO 18 ° 2 min 385 W/m² 21,7 °C 25,6 °C 4,8 km/h (1 Bft)
16.08.2023 12:43 24,0 °C 25,7 °C 66 % 80 % 1020,4 hPa 0,0 l/m² 1,5 km/h (1 Bft) N 9 ° 2 min 408 W/m² 22,0 °C 25,7 °C 3,2 km/h (1 Bft)
16.08.2023 12:45 24,0 °C 25,8 °C 66 % 79 % 1020,4 hPa 0,0 l/m² 0,8 km/h (0 Bft) N 9 ° 2 min 462 W/m² 21,9 °C 25,8 °C 1,6 km/h (1 Bft)
16.08.2023 12:46 24,0 °C 25,8 °C 66 % 79 % 1020,4 hPa 0,0 l/m² 0,6 km/h (0 Bft) N 9 ° 1 min 508 W/m² 21,9 °C 25,8 °C 3,2 km/h (1 Bft)
16.08.2023 12:47 24,0 °C 25,8 °C 66 % 79 % 1020,4 hPa 0,0 l/m² 2,7 km/h (1 Bft) N 11 ° 1 min 436 W/m² 21,9 °C 25,8 °C 4,8 km/h (1 Bft)
16.08.2023 12:48 24,0 °C 25,8 °C 66 % 78 % 1020,4 hPa 0,0 l/m² 1,0 km/h (0 Bft) N 11 ° 1 min 439 W/m² 21,7 °C 25,8 °C 3,2 km/h (1 Bft)
16.08.2023 12:49 24,0 °C 25,8 °C 66 % 78 % 1020,4 hPa 0,0 l/m² 0,1 km/h (0 Bft) N 11 ° 1 min 455 W/m² 21,7 °C 25,8 °C 1,6 km/h (1 Bft)
16.08.2023 12:51 24,0 °C 25,9 °C 66 % 78 % 1020,4 hPa 0,0 l/m² 0,6 km/h (0 Bft) N 11 ° 2 min 420 W/m² 21,8 °C 25,9 °C 3,2 km/h (1 Bft)
16.08.2023 12:53 24,0 °C 25,9 °C 66 % 77 % 1020,4 hPa 0,0 l/m² 3,0 km/h (1 Bft) NO 53 ° 2 min 506 W/m² 21,5 °C 25,9 °C 4,8 km/h (1 Bft)
16.08.2023 12:54 24,0 °C 25,9 °C 66 % 77 % 1020,4 hPa 0,0 l/m² 4,7 km/h (1 Bft) O-NO 69 ° 1 min 489 W/m² 21,5 °C 25,9 °C 6,4 km/h (2 Bft)
16.08.2023 12:55 24,0 °C 25,9 °C 66 % 77 % 1020,4 hPa 0,0 l/m² 5,0 km/h (1 Bft) O-NO 77 ° 1 min 434 W/m² 21,5 °C 25,9 °C 6,4 km/h (2 Bft)
16.08.2023 12:56 24,0 °C 26,0 °C 66 % 78 % 1020,4 hPa 0,0 l/m² 3,9 km/h (1 Bft) O-NO 66 ° 1 min 425 W/m² 21,9 °C 26,0 °C 6,4 km/h (2 Bft)
16.08.2023 12:57 24,0 °C 25,9 °C 66 % 77 % 1020,3 hPa 0,0 l/m² 1,5 km/h (1 Bft) O-NO 66 ° 1 min 448 W/m² 21,5 °C 25,9 °C 3,2 km/h (1 Bft)
16.08.2023 12:58 24,0 °C 25,9 °C 66 % 75 % 1020,3 hPa 0,0 l/m² 1,6 km/h (1 Bft) NO 51 ° 1 min 448 W/m² 21,1 °C 25,9 °C 6,4 km/h (2 Bft)
16.08.2023 12:59 24,0 °C 25,9 °C 66 % 77 % 1020,4 hPa 0,0 l/m² 5,3 km/h (1 Bft) NO 51 ° 1 min 448 W/m² 21,5 °C 25,9 °C 6,4 km/h (2 Bft)
16.08.2023 13:01 24,0 °C 26,1 °C 66 % 75 % 1020,3 hPa 0,0 l/m² 4,6 km/h (1 Bft) NO 54 ° 2 min 448 W/m² 21,3 °C 26,1 °C 6,4 km/h (2 Bft)
16.08.2023 13:03 24,1 °C 26,1 °C 66 % 76 % 1020,3 hPa 0,0 l/m² 1,1 km/h (1 Bft) NO 54 ° 2 min 790 W/m² 21,5 °C 26,1 °C 4,8 km/h (1 Bft)
16.08.2023 13:04 24,0 °C 26,2 °C 66 % 76 % 1020,4 hPa 0,0 l/m² 0,9 km/h (0 Bft) O-NO 60 ° 1 min 791 W/m² 21,6 °C 26,2 °C 6,4 km/h (2 Bft)
16.08.2023 13:05 24,1 °C 26,3 °C 66 % 79 % 1020,4 hPa 0,0 l/m² 7,4 km/h (2 Bft) O 96 ° 1 min 791 W/m² 22,4 °C 26,1 °C 9,7 km/h (2 Bft)
16.08.2023 13:06 24,0 °C 26,3 °C 66 % 79 % 1020,4 hPa 0,0 l/m² 10,0 km/h (2 Bft) O-SO 103 ° 1 min 791 W/m² 22,4 °C 25,6 °C 12,9 km/h (3 Bft)
16.08.2023 13:07 24,1 °C 26,4 °C 66 % 77 % 1020,4 hPa 0,0 l/m² 5,3 km/h (1 Bft) O-SO 103 ° 1 min 394 W/m² 22,0 °C 26,4 °C 9,7 km/h (2 Bft)
16.08.2023 13:08 24,1 °C 26,3 °C 66 % 75 % 1020,4 hPa 0,0 l/m² 3,4 km/h (1 Bft) O-SO 103 ° 1 min 380 W/m² 21,5 °C 26,3 °C 6,4 km/h (2 Bft)
16.08.2023 13:09 24,1 °C 26,3 °C 66 % 75 % 1020,4 hPa 0,0 l/m² 3,7 km/h (1 Bft) O-SO 103 ° 1 min 364 W/m² 21,5 °C 26,3 °C 4,8 km/h (1 Bft)
16.08.2023 13:11 24,1 °C 26,3 °C 66 % 74 % 1020,4 hPa 0,0 l/m² 2,8 km/h (1 Bft) O-SO 103 ° 2 min 355 W/m² 21,3 °C 26,3 °C 4,8 km/h (1 Bft)
16.08.2023 13:13 24,1 °C 26,3 °C 66 % 76 % 1020,4 hPa 0,0 l/m² 2,5 km/h (1 Bft) O-SO 103 ° 2 min 432 W/m² 21,7 °C 26,3 °C 4,8 km/h (1 Bft)
16.08.2023 13:14 24,1 °C 26,3 °C 66 % 76 % 1020,4 hPa 0,0 l/m² 3,1 km/h (1 Bft) O-SO 103 ° 1 min 473 W/m² 21,7 °C 26,3 °C 4,8 km/h (1 Bft)
16.08.2023 13:15 24,1 °C 26,3 °C 66 % 75 % 1020,4 hPa 0,0 l/m² 2,5 km/h (1 Bft) O-SO 103 ° 1 min 459 W/m² 21,5 °C 26,3 °C 4,8 km/h (1 Bft)
16.08.2023 13:17 24,1 °C 26,3 °C 66 % 75 % 1020,4 hPa 0,0 l/m² 1,8 km/h (1 Bft) O-SO 103 ° 2 min 487 W/m² 21,5 °C 26,3 °C 3,2 km/h (1 Bft)
16.08.2023 13:18 24,1 °C 26,3 °C 66 % 75 % 1020,4 hPa 0,0 l/m² 0,2 km/h (0 Bft) O-SO 103 ° 1 min 385 W/m² 21,5 °C 26,3 °C 1,6 km/h (1 Bft)
16.08.2023 13:19 24,1 °C 26,2 °C 66 % 74 % 1020,4 hPa 0,0 l/m² 0,0 km/h (0 Bft) O-SO 103 ° 1 min 353 W/m² 21,2 °C 26,2 °C 0,0 km/h (0 Bft)
16.08.2023 13:21 24,1 °C 26,2 °C 66 % 75 % 1020,4 hPa 0,0 l/m² 1,0 km/h (0 Bft) O-SO 103 ° 2 min 320 W/m² 21,4 °C 26,2 °C 3,2 km/h (1 Bft)
16.08.2023 13:23 24,1 °C 26,2 °C 66 % 74 % 1020,5 hPa 0,0 l/m² 0,2 km/h (0 Bft) O-SO 103 ° 2 min 287 W/m² 21,2 °C 26,2 °C 1,6 km/h (1 Bft)
16.08.2023 13:24 24,1 °C 26,2 °C 66 % 75 % 1020,4 hPa 0,0 l/m² 2,2 km/h (1 Bft) O-SO 103 ° 1 min 278 W/m² 21,4 °C 26,2 °C 3,2 km/h (1 Bft)
16.08.2023 13:25 24,1 °C 26,2 °C 66 % 75 % 1020,4 hPa 0,0 l/m² 2,5 km/h (1 Bft) O-SO 103 ° 1 min 276 W/m² 21,4 °C 26,2 °C 4,8 km/h (1 Bft)
16.08.2023 13:26 24,2 °C 26,2 °C 66 % 75 % 1020,4 hPa 0,0 l/m² 3,2 km/h (1 Bft) O-SO 103 ° 1 min 279 W/m² 21,4 °C 26,2 °C 4,8 km/h (1 Bft)
16.08.2023 13:27 24,2 °C 26,2 °C 66 % 75 % 1020,4 hPa 0,0 l/m² 1,2 km/h (1 Bft) O-SO 103 ° 1 min 285 W/m² 21,4 °C 26,2 °C 3,2 km/h (1 Bft)
16.08.2023 13:28 24,2 °C 26,2 °C 66 % 76 % 1020,4 hPa 0,0 l/m² 0,3 km/h (0 Bft) O-SO 103 ° 1 min 288 W/m² 21,6 °C 26,2 °C 1,6 km/h (1 Bft)
16.08.2023 13:29 24,2 °C 26,2 °C 66 % 77 % 1020,4 hPa 0,0 l/m² 0,9 km/h (0 Bft) O-SO 103 ° 1 min 290 W/m² 21,8 °C 26,2 °C 3,2 km/h (1 Bft)
16.08.2023 13:31 24,2 °C 26,2 °C 66 % 76 % 1020,3 hPa 0,0 l/m² 1,2 km/h (1 Bft) O-SO 105 ° 2 min 295 W/m² 21,6 °C 26,2 °C 4,8 km/h (1 Bft)
16.08.2023 13:33 24,2 °C 26,2 °C 66 % 76 % 1020,4 hPa 0,0 l/m² 3,3 km/h (1 Bft) O-SO 104 ° 2 min 299 W/m² 21,6 °C 26,2 °C 4,8 km/h (1 Bft)
16.08.2023 13:34 24,2 °C 26,2 °C 66 % 76 % 1020,4 hPa 0,0 l/m² 3,1 km/h (1 Bft) O-SO 104 ° 1 min 301 W/m² 21,6 °C 26,2 °C 4,8 km/h (1 Bft)
16.08.2023 13:35 24,2 °C 26,2 °C 66 % 76 % 1020,4 hPa 0,0 l/m² 2,1 km/h (1 Bft) O-SO 104 ° 1 min 304 W/m² 21,6 °C 26,2 °C 6,4 km/h (2 Bft)
16.08.2023 13:36 24,2 °C 26,2 °C 66 % 75 % 1020,4 hPa 0,0 l/m² 2,5 km/h (1 Bft) O-SO 104 ° 1 min 302 W/m² 21,4 °C 26,2 °C 4,8 km/h (1 Bft)
16.08.2023 13:37 24,2 °C 26,2 °C 66 % 74 % 1020,4 hPa 0,0 l/m² 0,0 km/h (0 Bft) O-SO 104 ° 1 min 315 W/m² 21,2 °C 26,2 °C 0,0 km/h (0 Bft)
16.08.2023 13:38 24,2 °C 26,2 °C 66 % 74 % 1020,3 hPa 0,0 l/m² 0,0 km/h (0 Bft) O-SO 104 ° 1 min 339 W/m² 21,2 °C 26,2 °C 0,0 km/h (0 Bft)
16.08.2023 13:39 24,2 °C 26,2 °C 66 % 75 % 1020,4 hPa 0,0 l/m² 0,4 km/h (0 Bft) O-SO 104 ° 1 min 339 W/m² 21,4 °C 26,2 °C 1,6 km/h (1 Bft)
16.08.2023 13:41 24,2 °C 26,1 °C 66 % 74 % 1020,4 hPa 0,0 l/m² 0,2 km/h (0 Bft) O-SO 104 ° 2 min 339 W/m² 21,1 °C 26,1 °C 1,6 km/h (1 Bft)
16.08.2023 13:43 24,2 °C 26,2 °C 66 % 74 % 1020,4 hPa 0,0 l/m² 1,4 km/h (1 Bft) O-SO 104 ° 2 min 299 W/m² 21,2 °C 26,2 °C 3,2 km/h (1 Bft)
16.08.2023 13:44 24,2 °C 26,2 °C 66 % 76 % 1020,4 hPa 0,0 l/m² 0,8 km/h (0 Bft) O-SO 104 ° 1 min 278 W/m² 21,6 °C 26,2 °C 1,6 km/h (1 Bft)
16.08.2023 13:45 24,2 °C 26,3 °C 66 % 76 % 1020,4 hPa 0,0 l/m² 0,9 km/h (0 Bft) O-SO 104 ° 1 min 267 W/m² 21,7 °C 26,3 °C 3,2 km/h (1 Bft)
16.08.2023 13:47 24,2 °C 26,2 °C 66 % 75 % 1020,4 hPa 0,0 l/m² 1,4 km/h (1 Bft) O-SO 104 ° 2 min 294 W/m² 21,4 °C 26,2 °C 3,2 km/h (1 Bft)
16.08.2023 13:48 24,2 °C 26,2 °C 66 % 75 % 1020,4 hPa 0,0 l/m² 0,9 km/h (0 Bft) O-SO 104 ° 1 min 360 W/m² 21,4 °C 26,2 °C 3,2 km/h (1 Bft)
16.08.2023 13:49 24,2 °C 26,2 °C 66 % 75 % 1020,4 hPa 0,0 l/m² 2,5 km/h (1 Bft) O-SO 104 ° 1 min 360 W/m² 21,4 °C 26,2 °C 4,8 km/h (1 Bft)
16.08.2023 13:51 24,2 °C 26,2 °C 66 % 76 % 1020,5 hPa 0,0 l/m² 2,4 km/h (1 Bft) O-SO 104 ° 2 min 401 W/m² 21,6 °C 26,2 °C 4,8 km/h (1 Bft)
16.08.2023 13:53 24,3 °C 26,3 °C 66 % 75 % 1020,5 hPa 0,0 l/m² 1,7 km/h (1 Bft) O-SO 104 ° 2 min 436 W/m² 21,5 °C 26,3 °C 3,2 km/h (1 Bft)
16.08.2023 13:54 24,3 °C 26,3 °C 66 % 76 % 1020,5 hPa 0,0 l/m² 4,1 km/h (1 Bft) O-SO 104 ° 1 min 373 W/m² 21,7 °C 26,3 °C 6,4 km/h (2 Bft)
16.08.2023 13:55 24,3 °C 26,3 °C 66 % 76 % 1020,4 hPa 0,0 l/m² 3,5 km/h (1 Bft) O-SO 104 ° 1 min 373 W/m² 21,7 °C 26,3 °C 6,4 km/h (2 Bft)
16.08.2023 13:56 24,3 °C 26,3 °C 66 % 74 % 1020,3 hPa 0,0 l/m² 2,0 km/h (1 Bft) O-SO 104 ° 1 min 373 W/m² 21,3 °C 26,3 °C 3,2 km/h (1 Bft)
16.08.2023 13:57 24,3 °C 26,3 °C 66 % 75 % 1020,4 hPa 0,0 l/m² 1,4 km/h (1 Bft) O-SO 104 ° 1 min 373 W/m² 21,5 °C 26,3 °C 3,2 km/h (1 Bft)
16.08.2023 13:58 24,3 °C 26,3 °C 66 % 75 % 1020,3 hPa 0,0 l/m² 1,4 km/h (1 Bft) O-SO 104 ° 1 min 346 W/m² 21,5 °C 26,3 °C 3,2 km/h (1 Bft)
16.08.2023 13:59 24,3 °C 26,3 °C 66 % 75 % 1020,4 hPa 0,0 l/m² 0,2 km/h (0 Bft) O-SO 104 ° 1 min 336 W/m² 21,5 °C 26,3 °C 1,6 km/h (1 Bft)
16.08.2023 14:01 24,3 °C 26,4 °C 66 % 74 % 1020,4 hPa 0,0 l/m² 1,8 km/h (1 Bft) O-SO 104 ° 2 min 334 W/m² 21,4 °C 26,4 °C 4,8 km/h (1 Bft)
16.08.2023 14:03 24,3 °C 26,4 °C 66 % 73 % 1020,4 hPa 0,0 l/m² 2,0 km/h (1 Bft) O-SO 104 ° 2 min 364 W/m² 21,2 °C 26,4 °C 4,8 km/h (1 Bft)
16.08.2023 14:04 24,3 °C 26,4 °C 66 % 74 % 1020,4 hPa 0,0 l/m² 0,0 km/h (0 Bft) O-SO 104 ° 1 min 434 W/m² 21,4 °C 26,4 °C 0,0 km/h (0 Bft)
16.08.2023 14:05 24,3 °C 26,4 °C 66 % 75 % 1020,4 hPa 0,0 l/m² 0,0 km/h (0 Bft) O-SO 104 ° 1 min 998 W/m² 21,6 °C 26,4 °C 0,0 km/h (0 Bft)
16.08.2023 14:06 24,3 °C 26,4 °C 66 % 76 % 1020,3 hPa 0,0 l/m² 0,3 km/h (0 Bft) O-SO 104 ° 1 min 979 W/m² 21,8 °C 26,4 °C 1,6 km/h (1 Bft)
16.08.2023 14:07 24,3 °C 26,5 °C 66 % 75 % 1020,4 hPa 0,0 l/m² 1,0 km/h (0 Bft) O-SO 104 ° 1 min 995 W/m² 21,7 °C 26,5 °C 1,6 km/h (1 Bft)
16.08.2023 14:08 24,3 °C 26,6 °C 66 % 74 % 1020,4 hPa 0,0 l/m² 2,7 km/h (1 Bft) O-SO 104 ° 1 min 995 W/m² 21,6 °C 26,6 °C 4,8 km/h (1 Bft)
16.08.2023 14:09 24,3 °C 26,6 °C 66 % 72 % 1020,3 hPa 0,0 l/m² 1,1 km/h (1 Bft) O-SO 104 ° 1 min 995 W/m² 21,1 °C 26,6 °C 3,2 km/h (1 Bft)
16.08.2023 14:11 24,4 °C 26,7 °C 66 % 71 % 1020,4 hPa 0,0 l/m² 1,2 km/h (1 Bft) O-SO 105 ° 2 min 995 W/m² 21,0 °C 26,7 °C 3,2 km/h (1 Bft)
16.08.2023 14:13 24,4 °C 26,8 °C 66 % 73 % 1020,4 hPa 0,0 l/m² 3,5 km/h (1 Bft) O-SO 108 ° 2 min 995 W/m² 21,5 °C 26,8 °C 4,8 km/h (1 Bft)
16.08.2023 14:14 24,4 °C 26,8 °C 66 % 71 % 1020,3 hPa 0,0 l/m² 3,9 km/h (1 Bft) S-SO 150 ° 1 min 364 W/m² 21,1 °C 26,8 °C 4,8 km/h (1 Bft)
16.08.2023 14:15 24,4 °C 26,8 °C 66 % 72 % 1020,3 hPa 0,0 l/m² 3,0 km/h (1 Bft) S-SO 150 ° 1 min 401 W/m² 21,3 °C 26,8 °C 4,8 km/h (1 Bft)
16.08.2023 14:16 24,4 °C 26,8 °C 66 % 73 % 1020,3 hPa 0,0 l/m² 3,1 km/h (1 Bft) S-SO 150 ° 1 min 374 W/m² 21,5 °C 26,8 °C 4,8 km/h (1 Bft)
16.08.2023 14:17 24,4 °C 26,8 °C 66 % 74 % 1020,3 hPa 0,0 l/m² 4,3 km/h (1 Bft) S-SO 150 ° 1 min 343 W/m² 21,8 °C 26,8 °C 4,8 km/h (1 Bft)
16.08.2023 14:18 24,4 °C 26,8 °C 65 % 73 % 1020,4 hPa 0,0 l/m² 3,7 km/h (1 Bft) S-SO 150 ° 1 min 327 W/m² 21,5 °C 26,8 °C 4,8 km/h (1 Bft)
16.08.2023 14:19 24,3 °C 26,8 °C 65 % 72 % 1020,3 hPa 0,0 l/m² 4,5 km/h (1 Bft) S-SO 150 ° 1 min 309 W/m² 21,3 °C 26,8 °C 6,4 km/h (2 Bft)
16.08.2023 14:21 24,4 °C 26,8 °C 65 % 74 % 1020,3 hPa 0,0 l/m² 3,0 km/h (1 Bft) S-SO 150 ° 2 min 272 W/m² 21,8 °C 26,8 °C 4,8 km/h (1 Bft)
16.08.2023 14:23 24,3 °C 26,8 °C 65 % 73 % 1020,3 hPa 0,0 l/m² 4,3 km/h (1 Bft) S-SO 150 ° 2 min 258 W/m² 21,5 °C 26,8 °C 6,4 km/h (2 Bft)
16.08.2023 14:24 24,3 °C 26,7 °C 65 % 72 % 1020,3 hPa 0,0 l/m² 3,2 km/h (1 Bft) S-SO 150 ° 1 min 257 W/m² 21,2 °C 26,7 °C 4,8 km/h (1 Bft)
16.08.2023 14:25 24,3 °C 26,7 °C 65 % 72 % 1020,3 hPa 0,0 l/m² 1,4 km/h (1 Bft) S-SO 150 ° 1 min 253 W/m² 21,2 °C 26,7 °C 3,2 km/h (1 Bft)
16.08.2023 14:27 24,3 °C 26,6 °C 65 % 71 % 1020,2 hPa 0,0 l/m² 2,7 km/h (1 Bft) S-SO 150 ° 2 min 237 W/m² 20,9 °C 26,6 °C 4,8 km/h (1 Bft)
16.08.2023 14:28 24,3 °C 26,7 °C 65 % 72 % 1020,2 hPa 0,0 l/m² 3,9 km/h (1 Bft) S-SO 150 ° 1 min 236 W/m² 21,2 °C 26,7 °C 4,8 km/h (1 Bft)
16.08.2023 14:29 24,3 °C 26,6 °C 65 % 73 % 1020,2 hPa 0,0 l/m² 3,9 km/h (1 Bft) S-SO 150 ° 1 min 244 W/m² 21,3 °C 26,6 °C 4,8 km/h (1 Bft)
16.08.2023 14:31 24,3 °C 26,6 °C 65 % 74 % 1020,2 hPa 0,0 l/m² 4,5 km/h (1 Bft) S-SO 150 ° 2 min 257 W/m² 21,6 °C 26,6 °C 6,4 km/h (2 Bft)
16.08.2023 14:33 24,3 °C 26,4 °C 65 % 73 % 1020,2 hPa 0,0 l/m² 4,0 km/h (1 Bft) S-SO 150 ° 2 min 264 W/m² 21,2 °C 26,4 °C 4,8 km/h (1 Bft)
16.08.2023 14:34 24,3 °C 26,4 °C 65 % 73 % 1020,2 hPa 0,0 l/m² 2,4 km/h (1 Bft) S-SO 150 ° 1 min 267 W/m² 21,2 °C 26,4 °C 4,8 km/h (1 Bft)
16.08.2023 14:35 24,3 °C 26,4 °C 65 % 72 % 1020,2 hPa 0,0 l/m² 1,0 km/h (0 Bft) S-SO 150 ° 1 min 264 W/m² 20,9 °C 26,4 °C 3,2 km/h (1 Bft)
16.08.2023 14:36 24,3 °C 26,3 °C 66 % 73 % 1020,1 hPa 0,0 l/m² 3,0 km/h (1 Bft) S-SO 150 ° 1 min 260 W/m² 21,1 °C 26,3 °C 3,2 km/h (1 Bft)
16.08.2023 14:37 24,3 °C 26,3 °C 65 % 73 % 1020,1 hPa 0,0 l/m² 2,1 km/h (1 Bft) S-SO 150 ° 1 min 262 W/m² 21,1 °C 26,3 °C 4,8 km/h (1 Bft)
16.08.2023 14:38 24,3 °C 26,4 °C 65 % 74 % 1020,0 hPa 0,0 l/m² 1,1 km/h (1 Bft) S-SO 150 ° 1 min 258 W/m² 21,4 °C 26,4 °C 3,2 km/h (1 Bft)
16.08.2023 14:39 24,3 °C 26,3 °C 65 % 73 % 1020,0 hPa 0,0 l/m² 1,8 km/h (1 Bft) S-SO 150 ° 1 min 251 W/m² 21,1 °C 26,3 °C 3,2 km/h (1 Bft)
16.08.2023 14:41 24,3 °C 26,3 °C 66 % 73 % 1020,0 hPa 0,0 l/m² 4,5 km/h (1 Bft) SO 146 ° 2 min 250 W/m² 21,1 °C 26,3 °C 6,4 km/h (2 Bft)
16.08.2023 14:43 24,3 °C 26,3 °C 66 % 73 % 1019,9 hPa 0,0 l/m² 5,3 km/h (1 Bft) SO 144 ° 2 min 244 W/m² 21,1 °C 26,3 °C 6,4 km/h (2 Bft)
16.08.2023 14:44 24,3 °C 26,2 °C 65 % 72 % 1019,9 hPa 0,0 l/m² 2,3 km/h (1 Bft) SO 144 ° 1 min 239 W/m² 20,7 °C 26,2 °C 3,2 km/h (1 Bft)
16.08.2023 14:45 24,3 °C 26,2 °C 66 % 72 % 1020,0 hPa 0,0 l/m² 3,1 km/h (1 Bft) SO 144 ° 1 min 237 W/m² 20,7 °C 26,2 °C 4,8 km/h (1 Bft)
16.08.2023 14:47 24,3 °C 26,2 °C 66 % 73 % 1019,9 hPa 0,0 l/m² 3,3 km/h (1 Bft) SO 144 ° 2 min 243 W/m² 21,0 °C 26,2 °C 4,8 km/h (1 Bft)
16.08.2023 14:48 24,3 °C 26,2 °C 66 % 74 % 1019,9 hPa 0,0 l/m² 2,3 km/h (1 Bft) SO 144 ° 1 min 248 W/m² 21,2 °C 26,2 °C 3,2 km/h (1 Bft)
16.08.2023 14:49 24,3 °C 26,2 °C 66 % 74 % 1019,8 hPa 0,0 l/m² 3,4 km/h (1 Bft) SO 144 ° 1 min 250 W/m² 21,2 °C 26,2 °C 4,8 km/h (1 Bft)
16.08.2023 14:51 24,3 °C 26,1 °C 66 % 73 % 1019,8 hPa 0,0 l/m² 2,2 km/h (1 Bft) SO 144 ° 2 min 243 W/m² 20,9 °C 26,1 °C 3,2 km/h (1 Bft)
16.08.2023 14:53 24,3 °C 26,1 °C 66 % 74 % 1019,8 hPa 0,0 l/m² 3,6 km/h (1 Bft) SO 144 ° 2 min 229 W/m² 21,1 °C 26,1 °C 4,8 km/h (1 Bft)
16.08.2023 14:54 24,3 °C 26,1 °C 66 % 74 % 1019,9 hPa 0,0 l/m² 2,1 km/h (1 Bft) SO 144 ° 1 min 225 W/m² 21,1 °C 26,1 °C 3,2 km/h (1 Bft)
16.08.2023 14:55 24,3 °C 26,1 °C 66 % 74 % 1019,8 hPa 0,0 l/m² 1,1 km/h (1 Bft) SO 144 ° 1 min 220 W/m² 21,1 °C 26,1 °C 1,6 km/h (1 Bft)
16.08.2023 14:57 24,2 °C 26,1 °C 66 % 74 % 1019,9 hPa 0,0 l/m² 2,5 km/h (1 Bft) SO 144 ° 2 min 211 W/m² 21,1 °C 26,1 °C 4,8 km/h (1 Bft)
16.08.2023 14:58 24,2 °C 26,1 °C 66 % 74 % 1019,9 hPa 0,0 l/m² 2,7 km/h (1 Bft) SO 144 ° 1 min 211 W/m² 21,1 °C 26,1 °C 4,8 km/h (1 Bft)
16.08.2023 14:59 24,2 °C 26,1 °C 66 % 74 % 1019,9 hPa 0,0 l/m² 3,5 km/h (1 Bft) SO 144 ° 1 min 211 W/m² 21,1 °C 26,1 °C 4,8 km/h (1 Bft)
16.08.2023 15:01 24,2 °C 26,0 °C 66 % 75 % 1019,9 hPa 0,0 l/m² 0,6 km/h (0 Bft) SO 144 ° 2 min 214 W/m² 21,2 °C 26,0 °C 3,2 km/h (1 Bft)
16.08.2023 15:02 24,3 °C 26,0 °C 66 % 74 % 1019,8 hPa 0,0 l/m² 0,0 km/h (0 Bft) SO 144 ° 1 min 218 W/m² 21,0 °C 26,0 °C 0,0 km/h (0 Bft)
16.08.2023 15:03 24,3 °C 26,0 °C 66 % 74 % 1019,8 hPa 0,0 l/m² 0,3 km/h (0 Bft) SO 144 ° 1 min 223 W/m² 21,0 °C 26,0 °C 1,6 km/h (1 Bft)
16.08.2023 15:04 24,2 °C 26,0 °C 66 % 74 % 1019,9 hPa 0,0 l/m² 1,4 km/h (1 Bft) SO 144 ° 1 min 229 W/m² 21,0 °C 26,0 °C 3,2 km/h (1 Bft)
16.08.2023 15:05 24,2 °C 26,0 °C 66 % 74 % 1019,8 hPa 0,0 l/m² 1,5 km/h (1 Bft) SO 144 ° 1 min 229 W/m² 21,0 °C 26,0 °C 3,2 km/h (1 Bft)
16.08.2023 15:06 24,2 °C 25,9 °C 66 % 74 % 1019,8 hPa 0,0 l/m² 0,0 km/h (0 Bft) SO 144 ° 1 min 230 W/m² 20,9 °C 25,9 °C 0,0 km/h (0 Bft)
16.08.2023 15:08 24,2 °C 26,0 °C 66 % 75 % 1019,8 hPa 0,0 l/m² 2,1 km/h (1 Bft) SO 144 ° 2 min 237 W/m² 21,2 °C 26,0 °C 6,4 km/h (2 Bft)
16.08.2023 15:09 24,2 °C 26,0 °C 66 % 74 % 1019,8 hPa 0,0 l/m² 2,7 km/h (1 Bft) SO 144 ° 1 min 244 W/m² 21,0 °C 26,0 °C 4,8 km/h (1 Bft)
16.08.2023 15:11 24,2 °C 25,9 °C 66 % 74 % 1019,8 hPa 0,0 l/m² 3,3 km/h (1 Bft) SO 144 ° 2 min 255 W/m² 20,9 °C 25,9 °C 6,4 km/h (2 Bft)
16.08.2023 15:13 24,2 °C 26,0 °C 66 % 75 % 1019,8 hPa 0,0 l/m² 3,3 km/h (1 Bft) SO 144 ° 2 min 272 W/m² 21,2 °C 26,0 °C 4,8 km/h (1 Bft)
16.08.2023 15:14 24,2 °C 26,0 °C 66 % 74 % 1019,9 hPa 0,0 l/m² 1,7 km/h (1 Bft) SO 144 ° 1 min 299 W/m² 21,0 °C 26,0 °C 3,2 km/h (1 Bft)
16.08.2023 15:15 24,2 °C 26,1 °C 66 % 74 % 1019,9 hPa 0,0 l/m² 1,5 km/h (1 Bft) SO 144 ° 1 min 315 W/m² 21,1 °C 26,1 °C 3,2 km/h (1 Bft)
16.08.2023 15:16 24,2 °C 26,1 °C 66 % 75 % 1019,9 hPa 0,0 l/m² 4,6 km/h (1 Bft) SO 144 ° 1 min 380 W/m² 21,3 °C 26,1 °C 6,4 km/h (2 Bft)
16.08.2023 15:17 24,2 °C 26,1 °C 66 % 74 % 1019,8 hPa 0,0 l/m² 4,6 km/h (1 Bft) SO 144 ° 1 min 373 W/m² 21,1 °C 26,1 °C 6,4 km/h (2 Bft)
16.08.2023 15:18 24,2 °C 26,1 °C 66 % 74 % 1019,8 hPa 0,0 l/m² 3,1 km/h (1 Bft) SO 144 ° 1 min 346 W/m² 21,1 °C 26,1 °C 4,8 km/h (1 Bft)
16.08.2023 15:19 24,2 °C 26,1 °C 66 % 75 % 1019,8 hPa 0,0 l/m² 3,6 km/h (1 Bft) SO 144 ° 1 min 364 W/m² 21,3 °C 26,1 °C 4,8 km/h (1 Bft)
16.08.2023 15:21 24,2 °C 26,2 °C 66 % 76 % 1019,8 hPa 0,0 l/m² 2,1 km/h (1 Bft) SO 144 ° 2 min 353 W/m² 21,6 °C 26,2 °C 3,2 km/h (1 Bft)
16.08.2023 15:23 24,2 °C 26,2 °C 66 % 74 % 1019,8 hPa 0,0 l/m² 2,8 km/h (1 Bft) SO 144 ° 2 min 431 W/m² 21,2 °C 26,2 °C 4,8 km/h (1 Bft)
16.08.2023 15:24 24,2 °C 26,2 °C 65 % 74 % 1019,9 hPa 0,0 l/m² 0,2 km/h (0 Bft) SO 144 ° 1 min 431 W/m² 21,2 °C 26,2 °C 1,6 km/h (1 Bft)
16.08.2023 15:25 24,2 °C 26,2 °C 65 % 72 % 1019,8 hPa 0,0 l/m² 0,0 km/h (0 Bft) SO 144 ° 1 min 299 W/m² 20,7 °C 26,2 °C 0,0 km/h (0 Bft)
16.08.2023 15:26 24,2 °C 26,2 °C 65 % 73 % 1019,8 hPa 0,0 l/m² 0,6 km/h (0 Bft) SO 144 ° 1 min 294 W/m² 21,0 °C 26,2 °C 3,2 km/h (1 Bft)
16.08.2023 15:27 24,2 °C 26,2 °C 65 % 73 % 1019,8 hPa 0,0 l/m² 1,6 km/h (1 Bft) SO 144 ° 1 min 281 W/m² 21,0 °C 26,2 °C 3,2 km/h (1 Bft)
16.08.2023 15:28 24,2 °C 26,2 °C 65 % 73 % 1019,9 hPa 0,0 l/m² 2,4 km/h (1 Bft) SO 144 ° 1 min 288 W/m² 21,0 °C 26,2 °C 3,2 km/h (1 Bft)
16.08.2023 15:29 24,2 °C 26,2 °C 65 % 74 % 1019,9 hPa 0,0 l/m² 1,0 km/h (0 Bft) SO 144 ° 1 min 279 W/m² 21,2 °C 26,2 °C 3,2 km/h (1 Bft)
16.08.2023 15:30 24,2 °C 26,2 °C 65 % 73 % 1019,9 hPa 0,0 l/m² 0,5 km/h (0 Bft) SO 144 ° 1 min 276 W/m² 21,0 °C 26,2 °C 1,6 km/h (1 Bft)
16.08.2023 15:32 24,2 °C 26,3 °C 65 % 73 % 1019,9 hPa 0,0 l/m² 2,5 km/h (1 Bft) SO 144 ° 2 min 295 W/m² 21,1 °C 26,3 °C 4,8 km/h (1 Bft)
16.08.2023 15:33 24,3 °C 26,3 °C 65 % 72 % 1019,9 hPa 0,0 l/m² 1,5 km/h (1 Bft) SO 144 ° 1 min 306 W/m² 20,8 °C 26,3 °C 3,2 km/h (1 Bft)
16.08.2023 15:34 24,2 °C 26,3 °C 65 % 73 % 1019,9 hPa 0,0 l/m² 0,0 km/h (0 Bft) SO 144 ° 1 min 299 W/m² 21,1 °C 26,3 °C 0,0 km/h (0 Bft)
16.08.2023 15:35 24,3 °C 26,3 °C 65 % 72 % 1019,8 hPa 0,0 l/m² 0,0 km/h (0 Bft) SO 144 ° 1 min 287 W/m² 20,8 °C 26,3 °C 0,0 km/h (0 Bft)
16.08.2023 15:36 24,2 °C 26,3 °C 65 % 73 % 1019,9 hPa 0,0 l/m² 0,1 km/h (0 Bft) SO 144 ° 1 min 288 W/m² 21,1 °C 26,3 °C 1,6 km/h (1 Bft)
16.08.2023 15:37 24,2 °C 26,3 °C 65 % 72 % 1019,8 hPa 0,0 l/m² 1,2 km/h (1 Bft) SO 144 ° 1 min 292 W/m² 20,8 °C 26,3 °C 3,2 km/h (1 Bft)
16.08.2023 15:38 24,2 °C 26,3 °C 65 % 72 % 1019,8 hPa 0,0 l/m² 2,2 km/h (1 Bft) SO 144 ° 1 min 297 W/m² 20,8 °C 26,3 °C 3,2 km/h (1 Bft)
16.08.2023 15:39 24,3 °C 26,4 °C 65 % 72 % 1019,8 hPa 0,0 l/m² 0,8 km/h (0 Bft) SO 144 ° 1 min 329 W/m² 20,9 °C 26,4 °C 1,6 km/h (1 Bft)
16.08.2023 15:41 24,3 °C 26,4 °C 65 % 72 % 1019,7 hPa 0,0 l/m² 0,7 km/h (0 Bft) SO 144 ° 2 min 287 W/m² 20,9 °C 26,4 °C 1,6 km/h (1 Bft)
16.08.2023 15:43 24,3 °C 26,4 °C 66 % 73 % 1019,8 hPa 0,0 l/m² 0,1 km/h (0 Bft) SO 144 ° 2 min 306 W/m² 21,2 °C 26,4 °C 1,6 km/h (1 Bft)
16.08.2023 15:44 24,3 °C 26,5 °C 66 % 73 % 1019,7 hPa 0,0 l/m² 2,5 km/h (1 Bft) SO 142 ° 1 min 346 W/m² 21,3 °C 26,5 °C 4,8 km/h (1 Bft)
16.08.2023 15:46 24,3 °C 26,6 °C 66 % 72 % 1019,8 hPa 0,0 l/m² 1,5 km/h (1 Bft) SO 138 ° 2 min 362 W/m² 21,1 °C 26,6 °C 3,2 km/h (1 Bft)
16.08.2023 15:47 24,3 °C 26,6 °C 66 % 72 % 1019,8 hPa 0,0 l/m² 3,8 km/h (1 Bft) SO 134 ° 1 min 362 W/m² 21,1 °C 26,6 °C 4,8 km/h (1 Bft)
16.08.2023 15:48 24,3 °C 26,6 °C 66 % 71 % 1019,8 hPa 0,0 l/m² 3,1 km/h (1 Bft) O-SO 121 ° 1 min 362 W/m² 20,9 °C 26,6 °C 4,8 km/h (1 Bft)
16.08.2023 15:49 24,3 °C 26,6 °C 66 % 71 % 1019,7 hPa 0,0 l/m² 2,2 km/h (1 Bft) O-SO 121 ° 1 min 362 W/m² 20,9 °C 26,6 °C 3,2 km/h (1 Bft)
16.08.2023 15:51 24,3 °C 26,7 °C 66 % 71 % 1019,6 hPa 0,0 l/m² 0,0 km/h (0 Bft) O-SO 121 ° 2 min 362 W/m² 21,0 °C 26,7 °C 1,6 km/h (1 Bft)
16.08.2023 15:53 24,3 °C 26,8 °C 66 % 70 % 1019,6 hPa 0,0 l/m² 0,4 km/h (0 Bft) O-SO 121 ° 2 min 436 W/m² 20,9 °C 26,8 °C 3,2 km/h (1 Bft)
16.08.2023 15:54 24,3 °C 26,8 °C 65 % 72 % 1019,7 hPa 0,0 l/m² 0,1 km/h (0 Bft) O-SO 121 ° 1 min 756 W/m² 21,3 °C 26,8 °C 1,6 km/h (1 Bft)
16.08.2023 15:55 24,3 °C 26,9 °C 66 % 74 % 1019,6 hPa 0,0 l/m² 1,1 km/h (1 Bft) O-SO 121 ° 1 min 744 W/m² 21,9 °C 26,9 °C 3,2 km/h (1 Bft)
16.08.2023 15:56 24,3 °C 27,1 °C 65 % 73 % 1019,6 hPa 0,0 l/m² 4,9 km/h (1 Bft) N 9 ° 1 min 664 W/m² 21,8 °C 27,1 °C 6,4 km/h (2 Bft)
16.08.2023 15:57 24,3 °C 27,1 °C 65 % 72 % 1019,7 hPa 0,0 l/m² 3,6 km/h (1 Bft) N-NO 15 ° 1 min 664 W/m² 21,6 °C 27,1 °C 6,4 km/h (2 Bft)
16.08.2023 15:58 24,3 °C 27,2 °C 65 % 71 % 1019,7 hPa 0,0 l/m² 2,3 km/h (1 Bft) N-NO 16 ° 1 min 664 W/m² 21,5 °C 27,2 °C 4,8 km/h (1 Bft)
16.08.2023 15:59 24,3 °C 27,3 °C 66 % 71 % 1019,6 hPa 0,0 l/m² 3,3 km/h (1 Bft) N-NO 18 ° 1 min 664 W/m² 21,6 °C 27,3 °C 4,8 km/h (1 Bft)
16.08.2023 16:01 24,3 °C 27,3 °C 66 % 70 % 1019,6 hPa 0,0 l/m² 4,6 km/h (1 Bft) O-NO 67 ° 2 min 682 W/m² 21,3 °C 27,3 °C 8,0 km/h (2 Bft)
16.08.2023 16:03 24,3 °C 27,5 °C 66 % 71 % 1019,5 hPa 0,0 l/m² 1,9 km/h (1 Bft) O-NO 66 ° 2 min 680 W/m² 21,8 °C 27,5 °C 4,8 km/h (1 Bft)
16.08.2023 16:04 24,3 °C 27,6 °C 66 % 70 % 1019,5 hPa 0,0 l/m² 2,4 km/h (1 Bft) O-NO 58 ° 1 min 645 W/m² 21,6 °C 27,6 °C 4,8 km/h (1 Bft)
16.08.2023 16:05 24,3 °C 27,6 °C 66 % 70 % 1019,5 hPa 0,0 l/m² 2,4 km/h (1 Bft) NO 55 ° 1 min 633 W/m² 21,6 °C 27,6 °C 3,2 km/h (1 Bft)
16.08.2023 16:07 24,3 °C 27,8 °C 66 % 70 % 1019,5 hPa 0,0 l/m² 1,8 km/h (1 Bft) O-NO 59 ° 2 min 622 W/m² 21,8 °C 27,8 °C 4,8 km/h (1 Bft)
16.08.2023 16:08 24,3 °C 27,8 °C 66 % 69 % 1019,5 hPa 0,0 l/m² 5,1 km/h (1 Bft) O 88 ° 1 min 615 W/m² 21,6 °C 27,8 °C 8,0 km/h (2 Bft)
16.08.2023 16:09 24,3 °C 27,9 °C 66 % 69 % 1019,5 hPa 0,0 l/m² 9,6 km/h (2 Bft) O 91 ° 1 min 613 W/m² 21,7 °C 27,4 °C 11,3 km/h (2 Bft)
16.08.2023 16:11 24,3 °C 27,9 °C 66 % 68 % 1019,5 hPa 0,0 l/m² 5,4 km/h (2 Bft) O 94 ° 2 min 612 W/m² 21,4 °C 27,9 °C 9,7 km/h (2 Bft)
16.08.2023 16:13 24,3 °C 27,9 °C 66 % 66 % 1019,4 hPa 0,0 l/m² 4,3 km/h (1 Bft) O 96 ° 2 min 605 W/m² 20,9 °C 27,9 °C 6,4 km/h (2 Bft)
16.08.2023 16:14 24,3 °C 27,9 °C 66 % 67 % 1019,4 hPa 0,0 l/m² 3,9 km/h (1 Bft) O 96 ° 1 min 596 W/m² 21,2 °C 27,9 °C 6,4 km/h (2 Bft)
16.08.2023 16:15 24,3 °C 27,9 °C 66 % 68 % 1019,5 hPa 0,0 l/m² 8,0 km/h (2 Bft) O 88 ° 1 min 591 W/m² 21,4 °C 27,6 °C 9,7 km/h (2 Bft)
16.08.2023 16:16 24,3 °C 27,9 °C 66 % 67 % 1019,4 hPa 0,0 l/m² 6,6 km/h (2 Bft) O 83 ° 1 min 582 W/m² 21,2 °C 27,9 °C 8,0 km/h (2 Bft)
16.08.2023 16:17 24,3 °C 27,9 °C 66 % 66 % 1019,4 hPa 0,0 l/m² 4,5 km/h (1 Bft) O 83 ° 1 min 592 W/m² 20,9 °C 27,9 °C 6,4 km/h (2 Bft)
16.08.2023 16:18 24,3 °C 27,9 °C 66 % 65 % 1019,5 hPa 0,0 l/m² 2,3 km/h (1 Bft) O 83 ° 1 min 568 W/m² 20,7 °C 27,9 °C 4,8 km/h (1 Bft)
16.08.2023 16:19 24,3 °C 27,9 °C 66 % 66 % 1019,4 hPa 0,0 l/m² 0,0 km/h (0 Bft) O 83 ° 1 min 605 W/m² 20,9 °C 27,9 °C 0,0 km/h (0 Bft)
16.08.2023 16:21 24,3 °C 28,0 °C 66 % 66 % 1019,4 hPa 0,0 l/m² 0,0 km/h (0 Bft) O 83 ° 2 min 605 W/m² 21,0 °C 28,0 °C 1,6 km/h (1 Bft)
16.08.2023 16:23 24,3 °C 28,1 °C 66 % 64 % 1019,4 hPa 0,0 l/m² 0,0 km/h (0 Bft) O 83 ° 2 min 612 W/m² 20,6 °C 28,1 °C 0,0 km/h (0 Bft)
16.08.2023 16:24 24,3 °C 28,1 °C 66 % 65 % 1019,4 hPa 0,0 l/m² 0,0 km/h (0 Bft) O 83 ° 1 min 617 W/m² 20,9 °C 28,1 °C 0,0 km/h (0 Bft)
16.08.2023 16:25 24,2 °C 28,2 °C 66 % 65 % 1019,4 hPa 0,0 l/m² 0,0 km/h (0 Bft) O 83 ° 1 min 624 W/m² 21,0 °C 28,2 °C 0,0 km/h (0 Bft)
16.08.2023 16:26 24,3 °C 28,3 °C 66 % 65 % 1019,4 hPa 0,0 l/m² 0,0 km/h (0 Bft) O 83 ° 1 min 636 W/m² 21,1 °C 28,3 °C 0,0 km/h (0 Bft)
16.08.2023 16:27 24,3 °C 28,3 °C 66 % 65 % 1019,4 hPa 0,0 l/m² 2,5 km/h (1 Bft) O 83 ° 1 min 638 W/m² 21,1 °C 28,3 °C 4,8 km/h (1 Bft)
16.08.2023 16:28 24,3 °C 28,4 °C 66 % 66 % 1019,5 hPa 0,0 l/m² 3,8 km/h (1 Bft) O-NO 78 ° 1 min 642 W/m² 21,4 °C 28,4 °C 6,4 km/h (2 Bft)
16.08.2023 16:29 24,2 °C 28,4 °C 66 % 65 % 1019,5 hPa 0,0 l/m² 2,0 km/h (1 Bft) O-NO 78 ° 1 min 643 W/m² 21,2 °C 28,4 °C 4,8 km/h (1 Bft)
16.08.2023 16:31 24,3 °C 28,6 °C 66 % 65 % 1019,4 hPa 0,0 l/m² 5,2 km/h (1 Bft) O 86 ° 2 min 621 W/m² 21,4 °C 28,6 °C 12,9 km/h (3 Bft)
16.08.2023 16:33 24,2 °C 28,6 °C 66 % 65 % 1019,4 hPa 0,0 l/m² 7,7 km/h (2 Bft) O-NO 71 ° 2 min 580 W/m² 21,4 °C 28,4 °C 12,9 km/h (3 Bft)
16.08.2023 16:34 24,3 °C 28,6 °C 66 % 65 % 1019,3 hPa 0,0 l/m² 7,1 km/h (2 Bft) O-NO 62 ° 1 min 594 W/m² 21,4 °C 28,5 °C 9,7 km/h (2 Bft)
16.08.2023 16:35 24,2 °C 28,6 °C 66 % 66 % 1019,4 hPa 0,0 l/m² 3,1 km/h (1 Bft) O-NO 62 ° 1 min 589 W/m² 21,6 °C 28,6 °C 4,8 km/h (1 Bft)
16.08.2023 16:36 24,2 °C 28,7 °C 66 % 67 % 1019,4 hPa 0,0 l/m² 1,4 km/h (1 Bft) O-NO 62 ° 1 min 584 W/m² 21,9 °C 28,7 °C 3,2 km/h (1 Bft)
16.08.2023 16:37 24,2 °C 28,7 °C 66 % 65 % 1019,3 hPa 0,0 l/m² 3,9 km/h (1 Bft) O-NO 62 ° 1 min 571 W/m² 21,5 °C 28,7 °C 4,8 km/h (1 Bft)
16.08.2023 16:38 24,3 °C 28,7 °C 66 % 65 % 1019,3 hPa 0,0 l/m² 5,6 km/h (2 Bft) O-NO 69 ° 1 min 564 W/m² 21,5 °C 28,7 °C 8,0 km/h (2 Bft)
16.08.2023 16:39 24,3 °C 28,7 °C 66 % 66 % 1019,3 hPa 0,0 l/m² 8,0 km/h (2 Bft) O-NO 76 ° 1 min 559 W/m² 21,7 °C 28,5 °C 11,3 km/h (2 Bft)
16.08.2023 16:40 24,3 °C 28,7 °C 66 % 66 % 1019,2 hPa 0,0 l/m² 6,4 km/h (2 Bft) O-NO 74 ° 1 min 552 W/m² 21,7 °C 28,7 °C 11,3 km/h (2 Bft)
16.08.2023 16:42 24,2 °C 28,6 °C 66 % 66 % 1019,3 hPa 0,0 l/m² 5,8 km/h (2 Bft) O-NO 75 ° 2 min 548 W/m² 21,6 °C 28,6 °C 8,0 km/h (2 Bft)
16.08.2023 16:43 24,3 °C 28,6 °C 66 % 65 % 1019,3 hPa 0,0 l/m² 3,9 km/h (1 Bft) O-NO 75 ° 1 min 552 W/m² 21,4 °C 28,6 °C 4,8 km/h (1 Bft)
16.08.2023 16:44 24,3 °C 28,6 °C 66 % 65 % 1019,2 hPa 0,0 l/m² 5,0 km/h (1 Bft) O 81 ° 1 min 545 W/m² 21,4 °C 28,6 °C 8,0 km/h (2 Bft)
16.08.2023 16:45 24,2 °C 28,6 °C 66 % 65 % 1019,3 hPa 0,0 l/m² 6,4 km/h (2 Bft) O 83 ° 1 min 534 W/m² 21,4 °C 28,6 °C 8,0 km/h (2 Bft)
16.08.2023 16:46 24,3 °C 28,6 °C 66 % 65 % 1019,3 hPa 0,0 l/m² 6,0 km/h (2 Bft) O 83 ° 1 min 520 W/m² 21,4 °C 28,6 °C 8,0 km/h (2 Bft)
16.08.2023 16:47 24,3 °C 28,5 °C 66 % 64 % 1019,2 hPa 0,0 l/m² 5,5 km/h (2 Bft) O 83 ° 1 min 519 W/m² 21,0 °C 28,5 °C 6,4 km/h (2 Bft)
16.08.2023 16:48 24,2 °C 28,5 °C 66 % 66 % 1019,2 hPa 0,0 l/m² 4,9 km/h (1 Bft) O 83 ° 1 min 526 W/m² 21,5 °C 28,5 °C 6,4 km/h (2 Bft)
16.08.2023 16:49 24,2 °C 28,5 °C 66 % 66 % 1019,2 hPa 0,0 l/m² 8,8 km/h (2 Bft) O 84 ° 1 min 517 W/m² 21,5 °C 28,2 °C 12,9 km/h (3 Bft)
16.08.2023 16:50 24,2 °C 28,4 °C 66 % 65 % 1019,2 hPa 0,0 l/m² 5,6 km/h (2 Bft) O 84 ° 1 min 515 W/m² 21,2 °C 28,4 °C 8,0 km/h (2 Bft)
16.08.2023 16:52 24,2 °C 28,4 °C 66 % 64 % 1019,1 hPa 0,0 l/m² 3,8 km/h (1 Bft) O 83 ° 2 min 506 W/m² 20,9 °C 28,4 °C 6,4 km/h (2 Bft)
16.08.2023 16:53 24,3 °C 28,3 °C 66 % 64 % 1019,1 hPa 0,0 l/m² 4,8 km/h (1 Bft) O 85 ° 1 min 504 W/m² 20,8 °C 28,3 °C 6,4 km/h (2 Bft)
16.08.2023 16:54 24,2 °C 28,4 °C 66 % 66 % 1019,0 hPa 0,0 l/m² 6,0 km/h (2 Bft) O 86 ° 1 min 504 W/m² 21,4 °C 28,4 °C 8,0 km/h (2 Bft)
16.08.2023 16:55 24,2 °C 28,3 °C 66 % 65 % 1019,2 hPa 0,0 l/m² 4,1 km/h (1 Bft) O 87 ° 1 min 504 W/m² 21,1 °C 28,3 °C 8,0 km/h (2 Bft)
16.08.2023 16:56 24,2 °C 28,3 °C 66 % 64 % 1019,2 hPa 0,0 l/m² 4,1 km/h (1 Bft) O 87 ° 1 min 501 W/m² 20,8 °C 28,3 °C 4,8 km/h (1 Bft)
16.08.2023 16:57 24,2 °C 28,3 °C 66 % 63 % 1019,1 hPa 0,0 l/m² 1,5 km/h (1 Bft) O 87 ° 1 min 497 W/m² 20,6 °C 28,3 °C 3,2 km/h (1 Bft)
16.08.2023 16:58 24,2 °C 28,3 °C 66 % 62 % 1019,2 hPa 0,0 l/m² 0,0 km/h (0 Bft) O 87 ° 1 min 497 W/m² 20,3 °C 28,3 °C 0,0 km/h (0 Bft)
16.08.2023 16:59 24,3 °C 28,4 °C 66 % 64 % 1019,1 hPa 0,0 l/m² 0,0 km/h (0 Bft) O 87 ° 1 min 496 W/m² 20,9 °C 28,4 °C 0,0 km/h (0 Bft)
16.08.2023 17:00 24,2 °C 28,4 °C 66 % 64 % 1019,2 hPa 0,0 l/m² 2,6 km/h (1 Bft) O 87 ° 1 min 492 W/m² 20,9 °C 28,4 °C 3,2 km/h (1 Bft)
16.08.2023 17:02 24,2 °C 28,4 °C 66 % 64 % 1019,3 hPa 0,0 l/m² 1,1 km/h (1 Bft) O 87 ° 2 min 487 W/m² 20,9 °C 28,4 °C 4,8 km/h (1 Bft)
16.08.2023 17:03 24,2 °C 28,4 °C 66 % 63 % 1019,2 hPa 0,0 l/m² 0,0 km/h (0 Bft) O 87 ° 1 min 483 W/m² 20,7 °C 28,4 °C 0,0 km/h (0 Bft)
16.08.2023 17:04 24,3 °C 28,5 °C 66 % 62 % 1019,1 hPa 0,0 l/m² 0,1 km/h (0 Bft) O 87 ° 1 min 482 W/m² 20,5 °C 28,5 °C 1,6 km/h (1 Bft)
16.08.2023 17:05 24,3 °C 28,5 °C 66 % 62 % 1019,1 hPa 0,0 l/m² 0,9 km/h (0 Bft) O 87 ° 1 min 478 W/m² 20,5 °C 28,5 °C 3,2 km/h (1 Bft)
16.08.2023 17:06 24,2 °C 28,6 °C 66 % 63 % 1019,1 hPa 0,0 l/m² 1,0 km/h (0 Bft) O 87 ° 1 min 475 W/m² 20,8 °C 28,6 °C 1,6 km/h (1 Bft)
16.08.2023 17:07 24,2 °C 28,6 °C 66 % 65 % 1019,1 hPa 0,0 l/m² 4,1 km/h (1 Bft) O 87 ° 1 min 471 W/m² 21,4 °C 28,6 °C 6,4 km/h (2 Bft)
16.08.2023 17:08 24,2 °C 28,7 °C 66 % 63 % 1019,1 hPa 0,0 l/m² 5,6 km/h (2 Bft) O 80 ° 1 min 468 W/m² 20,9 °C 28,7 °C 8,0 km/h (2 Bft)
16.08.2023 17:09 24,3 °C 28,7 °C 66 % 65 % 1019,1 hPa 0,0 l/m² 5,1 km/h (1 Bft) O-NO 65 ° 1 min 464 W/m² 21,5 °C 28,7 °C 12,9 km/h (3 Bft)
16.08.2023 17:10 24,2 °C 28,7 °C 66 % 62 % 1019,0 hPa 0,0 l/m² 7,4 km/h (2 Bft) O-NO 65 ° 1 min 455 W/m² 20,7 °C 28,6 °C 11,3 km/h (2 Bft)
16.08.2023 17:12 24,3 °C 28,7 °C 66 % 62 % 1019,0 hPa 0,0 l/m² 5,3 km/h (1 Bft) O-NO 57 ° 2 min 448 W/m² 20,7 °C 28,7 °C 8,0 km/h (2 Bft)
16.08.2023 17:13 24,2 °C 28,7 °C 66 % 62 % 1019,1 hPa 0,0 l/m² 5,9 km/h (2 Bft) O-NO 67 ° 1 min 446 W/m² 20,7 °C 28,7 °C 8,0 km/h (2 Bft)
16.08.2023 17:14 24,3 °C 28,7 °C 66 % 64 % 1019,0 hPa 0,0 l/m² 7,5 km/h (2 Bft) O 92 ° 1 min 446 W/m² 21,2 °C 28,6 °C 11,3 km/h (2 Bft)
16.08.2023 17:15 24,2 °C 28,7 °C 66 % 63 % 1019,1 hPa 0,0 l/m² 6,8 km/h (2 Bft) O 92 ° 1 min 446 W/m² 20,9 °C 28,6 °C 9,7 km/h (2 Bft)
16.08.2023 17:17 24,2 °C 28,7 °C 66 % 65 % 1019,1 hPa 0,0 l/m² 6,8 km/h (2 Bft) O 88 ° 2 min 432 W/m² 21,5 °C 28,6 °C 12,9 km/h (3 Bft)
16.08.2023 17:18 24,2 °C 28,7 °C 66 % 64 % 1019,1 hPa 0,0 l/m² 3,6 km/h (1 Bft) O-NO 78 ° 1 min 427 W/m² 21,2 °C 28,7 °C 6,4 km/h (2 Bft)
16.08.2023 17:19 24,3 °C 28,7 °C 66 % 64 % 1019,0 hPa 0,0 l/m² 4,0 km/h (1 Bft) O-NO 73 ° 1 min 427 W/m² 21,2 °C 28,7 °C 6,4 km/h (2 Bft)
16.08.2023 17:21 24,3 °C 28,7 °C 66 % 64 % 1019,0 hPa 0,0 l/m² 3,1 km/h (1 Bft) O-NO 69 ° 2 min 425 W/m² 21,2 °C 28,7 °C 6,4 km/h (2 Bft)
16.08.2023 17:23 24,3 °C 28,7 °C 66 % 62 % 1018,9 hPa 0,0 l/m² 3,0 km/h (1 Bft) O-NO 57 ° 2 min 420 W/m² 20,7 °C 28,7 °C 6,4 km/h (2 Bft)
16.08.2023 17:24 24,3 °C 28,8 °C 66 % 62 % 1018,9 hPa 0,0 l/m² 4,2 km/h (1 Bft) NO 50 ° 1 min 417 W/m² 20,8 °C 28,8 °C 8,0 km/h (2 Bft)
16.08.2023 17:25 24,3 °C 28,8 °C 66 % 61 % 1019,0 hPa 0,0 l/m² 4,3 km/h (1 Bft) NO 41 ° 1 min 415 W/m² 20,5 °C 28,8 °C 8,0 km/h (2 Bft)
16.08.2023 17:26 24,2 °C 28,8 °C 66 % 61 % 1018,9 hPa 0,0 l/m² 5,2 km/h (1 Bft) NO 39 ° 1 min 415 W/m² 20,5 °C 28,8 °C 9,7 km/h (2 Bft)
16.08.2023 17:27 24,3 °C 28,8 °C 66 % 61 % 1018,9 hPa 0,0 l/m² 7,0 km/h (2 Bft) O-NO 59 ° 1 min 411 W/m² 20,5 °C 28,7 °C 9,7 km/h (2 Bft)
16.08.2023 17:28 24,2 °C 28,8 °C 66 % 60 % 1018,9 hPa 0,0 l/m² 5,2 km/h (1 Bft) O-NO 57 ° 1 min 410 W/m² 20,2 °C 28,8 °C 9,7 km/h (2 Bft)
16.08.2023 17:29 24,3 °C 28,8 °C 66 % 61 % 1018,9 hPa 0,0 l/m² 4,5 km/h (1 Bft) O-NO 73 ° 1 min 408 W/m² 20,5 °C 28,8 °C 8,0 km/h (2 Bft)
16.08.2023 17:31 24,3 °C 28,8 °C 66 % 61 % 1018,9 hPa 0,0 l/m² 5,1 km/h (1 Bft) O 82 ° 2 min 403 W/m² 20,5 °C 28,8 °C 8,0 km/h (2 Bft)
16.08.2023 17:33 24,3 °C 28,7 °C 66 % 63 % 1018,9 hPa 0,0 l/m² 4,7 km/h (1 Bft) O 82 ° 2 min 401 W/m² 20,9 °C 28,7 °C 8,0 km/h (2 Bft)
16.08.2023 17:34 24,3 °C 28,7 °C 66 % 62 % 1018,9 hPa 0,0 l/m² 4,9 km/h (1 Bft) O 79 ° 1 min 396 W/m² 20,7 °C 28,7 °C 6,4 km/h (2 Bft)
16.08.2023 17:35 24,3 °C 28,7 °C 66 % 62 % 1019,0 hPa 0,0 l/m² 4,7 km/h (1 Bft) O-NO 64 ° 1 min 392 W/m² 20,7 °C 28,7 °C 12,9 km/h (3 Bft)
16.08.2023 17:36 24,3 °C 28,7 °C 66 % 61 % 1018,9 hPa 0,0 l/m² 10,6 km/h (2 Bft) O-NO 76 ° 1 min 383 W/m² 20,4 °C 28,2 °C 16,1 km/h (3 Bft)
16.08.2023 17:37 24,3 °C 28,6 °C 66 % 61 % 1018,9 hPa 0,0 l/m² 12,8 km/h (3 Bft) O-NO 66 ° 1 min 383 W/m² 20,3 °C 27,9 °C 16,1 km/h (3 Bft)
16.08.2023 17:38 24,3 °C 28,6 °C 66 % 61 % 1019,0 hPa 0,0 l/m² 10,8 km/h (2 Bft) O 80 ° 1 min 378 W/m² 20,3 °C 28,1 °C 12,9 km/h (3 Bft)
16.08.2023 17:39 24,3 °C 28,4 °C 66 % 62 % 1018,9 hPa 0,0 l/m² 8,3 km/h (2 Bft) O 80 ° 1 min 376 W/m² 20,4 °C 28,1 °C 12,9 km/h (3 Bft)
16.08.2023 17:41 24,3 °C 28,3 °C 66 % 63 % 1019,0 hPa 0,0 l/m² 7,6 km/h (2 Bft) O 88 ° 2 min 369 W/m² 20,6 °C 28,1 °C 11,3 km/h (2 Bft)
16.08.2023 17:43 24,3 °C 28,3 °C 66 % 64 % 1019,0 hPa 0,0 l/m² 7,5 km/h (2 Bft) O-NO 68 ° 2 min 364 W/m² 20,8 °C 28,1 °C 11,3 km/h (2 Bft)
16.08.2023 17:44 24,3 °C 28,2 °C 66 % 64 % 1019,0 hPa 0,0 l/m² 10,6 km/h (2 Bft) O 90 ° 1 min 360 W/m² 20,7 °C 27,6 °C 14,5 km/h (3 Bft)
16.08.2023 17:45 24,2 °C 28,2 °C 66 % 63 % 1019,0 hPa 0,0 l/m² 11,0 km/h (2 Bft) O 92 ° 1 min 359 W/m² 20,5 °C 27,6 °C 12,9 km/h (3 Bft)
16.08.2023 17:46 24,3 °C 28,1 °C 66 % 63 % 1019,1 hPa 0,0 l/m² 9,9 km/h (2 Bft) O 81 ° 1 min 357 W/m² 20,4 °C 27,6 °C 11,3 km/h (2 Bft)
16.08.2023 17:47 24,3 °C 28,1 °C 66 % 64 % 1019,1 hPa 0,0 l/m² 6,7 km/h (2 Bft) O-NO 78 ° 1 min 355 W/m² 20,6 °C 28,1 °C 8,0 km/h (2 Bft)
16.08.2023 17:48 24,3 °C 28,1 °C 66 % 64 % 1019,1 hPa 0,0 l/m² 6,2 km/h (2 Bft) O 80 ° 1 min 352 W/m² 20,6 °C 28,1 °C 8,0 km/h (2 Bft)
16.08.2023 17:49 24,3 °C 28,1 °C 66 % 64 % 1019,1 hPa 0,0 l/m² 5,3 km/h (1 Bft) O 80 ° 1 min 352 W/m² 20,6 °C 28,1 °C 8,0 km/h (2 Bft)
16.08.2023 17:51 24,3 °C 28,0 °C 66 % 62 % 1019,1 hPa 0,0 l/m² 5,0 km/h (1 Bft) O 80 ° 2 min 350 W/m² 20,0 °C 28,0 °C 8,0 km/h (2 Bft)
16.08.2023 17:53 24,3 °C 27,9 °C 66 % 63 % 1019,1 hPa 0,0 l/m² 7,2 km/h (2 Bft) O 91 ° 2 min 346 W/m² 20,2 °C 27,8 °C 11,3 km/h (2 Bft)
16.08.2023 17:54 24,2 °C 27,9 °C 66 % 64 % 1019,2 hPa 0,0 l/m² 6,0 km/h (2 Bft) O 81 ° 1 min 345 W/m² 20,4 °C 27,9 °C 11,3 km/h (2 Bft)
16.08.2023 17:55 24,2 °C 27,9 °C 66 % 64 % 1019,1 hPa 0,0 l/m² 8,1 km/h (2 Bft) O 83 ° 1 min 343 W/m² 20,4 °C 27,6 °C 11,3 km/h (2 Bft)
16.08.2023 17:56 24,3 °C 27,9 °C 66 % 64 % 1019,1 hPa 0,0 l/m² 5,1 km/h (1 Bft) O 84 ° 1 min 343 W/m² 20,4 °C 27,9 °C 8,0 km/h (2 Bft)
16.08.2023 17:57 24,2 °C 27,9 °C 66 % 64 % 1019,2 hPa 0,0 l/m² 9,4 km/h (2 Bft) O 80 ° 1 min 339 W/m² 20,4 °C 27,4 °C 12,9 km/h (3 Bft)
16.08.2023 17:58 24,2 °C 27,8 °C 66 % 64 % 1019,1 hPa 0,0 l/m² 7,6 km/h (2 Bft) O-NO 71 ° 1 min 336 W/m² 20,3 °C 27,6 °C 11,3 km/h (2 Bft)
16.08.2023 17:59 24,2 °C 27,8 °C 66 % 65 % 1019,1 hPa 0,0 l/m² 7,8 km/h (2 Bft) O-NO 78 ° 1 min 332 W/m² 20,6 °C 27,6 °C 11,3 km/h (2 Bft)
16.08.2023 18:00 24,2 °C 27,8 °C 66 % 64 % 1019,1 hPa 0,0 l/m² 10,7 km/h (2 Bft) O 92 ° 1 min 322 W/m² 20,3 °C 27,2 °C 16,1 km/h (3 Bft)
16.08.2023 18:02 24,2 °C 27,8 °C 66 % 64 % 1019,0 hPa 0,0 l/m² 8,0 km/h (2 Bft) O 84 ° 2 min 315 W/m² 20,3 °C 27,5 °C 11,3 km/h (2 Bft)
16.08.2023 18:03 24,3 °C 27,7 °C 66 % 64 % 1019,1 hPa 0,0 l/m² 5,9 km/h (2 Bft) O 82 ° 1 min 311 W/m² 20,3 °C 27,7 °C 6,4 km/h (2 Bft)
16.08.2023 18:04 24,2 °C 27,7 °C 66 % 65 % 1019,0 hPa 0,0 l/m² 3,9 km/h (1 Bft) O 82 ° 1 min 311 W/m² 20,5 °C 27,7 °C 6,4 km/h (2 Bft)
16.08.2023 18:05 24,2 °C 27,7 °C 66 % 64 % 1019,1 hPa 0,0 l/m² 4,9 km/h (1 Bft) O 82 ° 1 min 306 W/m² 20,3 °C 27,7 °C 6,4 km/h (2 Bft)
16.08.2023 18:06 24,2 °C 27,7 °C 66 % 64 % 1019,0 hPa 0,0 l/m² 4,0 km/h (1 Bft) O 82 ° 1 min 304 W/m² 20,3 °C 27,7 °C 6,4 km/h (2 Bft)
16.08.2023 18:07 24,3 °C 27,7 °C 66 % 64 % 1019,0 hPa 0,0 l/m² 5,4 km/h (2 Bft) O 82 ° 1 min 301 W/m² 20,3 °C 27,7 °C 8,0 km/h (2 Bft)
16.08.2023 18:08 24,3 °C 27,7 °C 66 % 64 % 1019,0 hPa 0,0 l/m² 8,4 km/h (2 Bft) O 88 ° 1 min 297 W/m² 20,3 °C 27,4 °C 12,9 km/h (3 Bft)
16.08.2023 18:09 24,2 °C 27,7 °C 66 % 65 % 1019,0 hPa 0,0 l/m² 10,8 km/h (2 Bft) O 87 ° 1 min 297 W/m² 20,5 °C 27,0 °C 12,9 km/h (3 Bft)
16.08.2023 18:11 24,2 °C 27,7 °C 66 % 65 % 1019,0 hPa 0,0 l/m² 7,8 km/h (2 Bft) O-NO 73 ° 2 min 292 W/m² 20,5 °C 27,5 °C 12,9 km/h (3 Bft)
16.08.2023 18:13 24,2 °C 27,6 °C 66 % 66 % 1019,1 hPa 0,0 l/m² 4,7 km/h (1 Bft) O 79 ° 2 min 287 W/m² 20,7 °C 27,6 °C 8,0 km/h (2 Bft)
16.08.2023 18:14 24,2 °C 27,7 °C 66 % 67 % 1019,0 hPa 0,0 l/m² 4,6 km/h (1 Bft) O 79 ° 1 min 292 W/m² 21,0 °C 27,7 °C 6,4 km/h (2 Bft)
16.08.2023 18:15 24,2 °C 27,7 °C 66 % 66 % 1019,0 hPa 0,0 l/m² 5,6 km/h (2 Bft) O-NO 78 ° 1 min 295 W/m² 20,8 °C 27,7 °C 6,4 km/h (2 Bft)
16.08.2023 18:16 24,2 °C 27,7 °C 66 % 66 % 1019,1 hPa 0,0 l/m² 6,1 km/h (2 Bft) O-NO 63 ° 1 min 294 W/m² 20,8 °C 27,7 °C 8,0 km/h (2 Bft)
16.08.2023 18:17 24,2 °C 27,7 °C 66 % 65 % 1019,0 hPa 0,0 l/m² 7,6 km/h (2 Bft) O 83 ° 1 min 290 W/m² 20,5 °C 27,5 °C 11,3 km/h (2 Bft)
16.08.2023 18:18 24,2 °C 27,7 °C 66 % 66 % 1019,0 hPa 0,0 l/m² 7,6 km/h (2 Bft) O 88 ° 1 min 278 W/m² 20,8 °C 27,5 °C 11,3 km/h (2 Bft)
16.08.2023 18:19 24,2 °C 27,7 °C 66 % 64 % 1019,0 hPa 0,0 l/m² 5,8 km/h (2 Bft) O 88 ° 1 min 278 W/m² 20,3 °C 27,7 °C 8,0 km/h (2 Bft)
16.08.2023 18:21 24,2 °C 27,6 °C 66 % 64 % 1019,0 hPa 0,0 l/m² 5,0 km/h (1 Bft) O 84 ° 2 min 165 W/m² 20,2 °C 27,6 °C 8,0 km/h (2 Bft)
16.08.2023 18:23 24,2 °C 27,6 °C 66 % 66 % 1018,9 hPa 0,0 l/m² 3,2 km/h (1 Bft) O 84 ° 2 min 90 W/m² 20,7 °C 27,6 °C 6,4 km/h (2 Bft)
16.08.2023 18:24 24,2 °C 27,6 °C 66 % 65 % 1018,9 hPa 0,0 l/m² 3,6 km/h (1 Bft) O 84 ° 1 min 88 W/m² 20,4 °C 27,6 °C 4,8 km/h (1 Bft)
16.08.2023 18:25 24,2 °C 27,6 °C 66 % 64 % 1019,0 hPa 0,0 l/m² 6,0 km/h (2 Bft) NO 44 ° 1 min 84 W/m² 20,2 °C 27,6 °C 9,7 km/h (2 Bft)
16.08.2023 18:26 24,2 °C 27,6 °C 66 % 64 % 1019,0 hPa 0,0 l/m² 5,3 km/h (1 Bft) NO 39 ° 1 min 84 W/m² 20,2 °C 27,6 °C 8,0 km/h (2 Bft)
16.08.2023 18:27 24,2 °C 27,6 °C 66 % 64 % 1018,9 hPa 0,0 l/m² 3,9 km/h (1 Bft) NO 40 ° 1 min 83 W/m² 20,2 °C 27,6 °C 8,0 km/h (2 Bft)
16.08.2023 18:28 24,2 °C 27,6 °C 66 % 64 % 1019,0 hPa 0,0 l/m² 3,9 km/h (1 Bft) NO 36 ° 1 min 83 W/m² 20,2 °C 27,6 °C 6,4 km/h (2 Bft)
16.08.2023 18:29 24,2 °C 27,6 °C 66 % 65 % 1019,0 hPa 0,0 l/m² 4,0 km/h (1 Bft) NO 47 ° 1 min 83 W/m² 20,4 °C 27,6 °C 8,0 km/h (2 Bft)
16.08.2023 18:30 24,2 °C 27,6 °C 66 % 65 % 1019,0 hPa 0,0 l/m² 3,5 km/h (1 Bft) NO 46 ° 1 min 88 W/m² 20,4 °C 27,6 °C 6,4 km/h (2 Bft)
16.08.2023 18:32 24,2 °C 27,6 °C 66 % 65 % 1018,9 hPa 0,0 l/m² 4,7 km/h (1 Bft) NO 39 ° 2 min 232 W/m² 20,4 °C 27,6 °C 8,0 km/h (2 Bft)
16.08.2023 18:33 24,2 °C 27,5 °C 66 % 65 % 1018,9 hPa 0,0 l/m² 4,7 km/h (1 Bft) NO 34 ° 1 min 225 W/m² 20,3 °C 27,5 °C 8,0 km/h (2 Bft)
16.08.2023 18:34 24,2 °C 27,5 °C 66 % 65 % 1018,8 hPa 0,0 l/m² 4,1 km/h (1 Bft) N-NO 32 ° 1 min 213 W/m² 20,3 °C 27,5 °C 6,4 km/h (2 Bft)
16.08.2023 18:35 24,2 °C 27,5 °C 66 % 65 % 1018,9 hPa 0,0 l/m² 3,3 km/h (1 Bft) N-NO 32 ° 1 min 214 W/m² 20,3 °C 27,5 °C 4,8 km/h (1 Bft)
16.08.2023 18:36 24,2 °C 27,4 °C 66 % 65 % 1018,8 hPa 0,0 l/m² 3,0 km/h (1 Bft) N-NO 32 ° 1 min 214 W/m² 20,2 °C 27,4 °C 4,8 km/h (1 Bft)
16.08.2023 18:37 24,2 °C 27,4 °C 66 % 65 % 1018,8 hPa 0,0 l/m² 3,9 km/h (1 Bft) N-NO 29 ° 1 min 207 W/m² 20,2 °C 27,4 °C 6,4 km/h (2 Bft)
16.08.2023 18:38 24,2 °C 27,4 °C 66 % 65 % 1018,8 hPa 0,0 l/m² 4,4 km/h (1 Bft) N-NO 31 ° 1 min 206 W/m² 20,2 °C 27,4 °C 6,4 km/h (2 Bft)
16.08.2023 18:39 24,2 °C 27,4 °C 66 % 65 % 1018,8 hPa 0,0 l/m² 3,4 km/h (1 Bft) NO 34 ° 1 min 202 W/m² 20,2 °C 27,4 °C 4,8 km/h (1 Bft)
16.08.2023 18:41 24,2 °C 27,4 °C 66 % 65 % 1018,8 hPa 0,0 l/m² 4,5 km/h (1 Bft) NO 39 ° 2 min 200 W/m² 20,2 °C 27,4 °C 9,7 km/h (2 Bft)
16.08.2023 18:43 24,2 °C 27,4 °C 66 % 66 % 1018,8 hPa 0,0 l/m² 5,3 km/h (1 Bft) N-NO 17 ° 2 min 197 W/m² 20,5 °C 27,4 °C 9,7 km/h (2 Bft)
16.08.2023 18:44 24,2 °C 27,4 °C 66 % 66 % 1018,8 hPa 0,0 l/m² 3,2 km/h (1 Bft) N-NO 18 ° 1 min 197 W/m² 20,5 °C 27,4 °C 4,8 km/h (1 Bft)
16.08.2023 18:46 24,2 °C 27,4 °C 66 % 66 % 1018,7 hPa 0,0 l/m² 4,9 km/h (1 Bft) N 355 ° 2 min 190 W/m² 20,5 °C 27,4 °C 9,7 km/h (2 Bft)
16.08.2023 18:47 24,2 °C 27,4 °C 66 % 66 % 1018,8 hPa 0,0 l/m² 5,1 km/h (1 Bft) N 355 ° 1 min 185 W/m² 20,5 °C 27,4 °C 6,4 km/h (2 Bft)
16.08.2023 18:48 24,2 °C 27,4 °C 66 % 66 % 1018,8 hPa 0,0 l/m² 6,1 km/h (2 Bft) N 355 ° 1 min 185 W/m² 20,5 °C 27,4 °C 8,0 km/h (2 Bft)
16.08.2023 18:49 24,2 °C 27,4 °C 66 % 66 % 1018,8 hPa 0,0 l/m² 6,5 km/h (2 Bft) N 360 ° 1 min 181 W/m² 20,5 °C 27,4 °C 9,7 km/h (2 Bft)
16.08.2023 18:51 24,2 °C 27,4 °C 66 % 67 % 1018,8 hPa 0,0 l/m² 3,9 km/h (1 Bft) N-NO 22 ° 2 min 169 W/m² 20,7 °C 27,4 °C 6,4 km/h (2 Bft)
16.08.2023 18:53 24,2 °C 27,4 °C 66 % 66 % 1018,8 hPa 0,0 l/m² 4,9 km/h (1 Bft) NO 47 ° 2 min 60 W/m² 20,5 °C 27,4 °C 8,0 km/h (2 Bft)
16.08.2023 18:54 24,2 °C 27,4 °C 66 % 66 % 1018,8 hPa 0,0 l/m² 4,2 km/h (1 Bft) NO 36 ° 1 min 58 W/m² 20,5 °C 27,4 °C 6,4 km/h (2 Bft)
16.08.2023 18:55 24,2 °C 27,3 °C 66 % 66 % 1018,8 hPa 0,0 l/m² 4,5 km/h (1 Bft) NO 38 ° 1 min 58 W/m² 20,4 °C 27,3 °C 6,4 km/h (2 Bft)
16.08.2023 18:56 24,2 °C 27,3 °C 66 % 66 % 1018,8 hPa 0,0 l/m² 5,3 km/h (1 Bft) NO 45 ° 1 min 58 W/m² 20,4 °C 27,3 °C 6,4 km/h (2 Bft)
16.08.2023 18:57 24,2 °C 27,3 °C 66 % 66 % 1018,9 hPa 0,0 l/m² 4,7 km/h (1 Bft) O-NO 57 ° 1 min 67 W/m² 20,4 °C 27,3 °C 6,4 km/h (2 Bft)
16.08.2023 18:58 24,2 °C 27,3 °C 66 % 65 % 1018,8 hPa 0,0 l/m² 6,2 km/h (2 Bft) NO 51 ° 1 min 120 W/m² 20,1 °C 27,3 °C 8,0 km/h (2 Bft)
16.08.2023 18:59 24,2 °C 27,3 °C 66 % 65 % 1018,9 hPa 0,0 l/m² 3,2 km/h (1 Bft) NO 52 ° 1 min 88 W/m² 20,1 °C 27,3 °C 4,8 km/h (1 Bft)
16.08.2023 19:01 24,2 °C 27,3 °C 66 % 65 % 1018,9 hPa 0,0 l/m² 2,5 km/h (1 Bft) NO 51 ° 2 min 67 W/m² 20,1 °C 27,3 °C 4,8 km/h (1 Bft)
16.08.2023 19:03 24,2 °C 27,3 °C 66 % 66 % 1019,0 hPa 0,0 l/m² 4,7 km/h (1 Bft) N-NO 13 ° 2 min 69 W/m² 20,4 °C 27,3 °C 8,0 km/h (2 Bft)
16.08.2023 19:04 24,2 °C 27,2 °C 66 % 67 % 1019,0 hPa 0,0 l/m² 4,3 km/h (1 Bft) N 10 ° 1 min 70 W/m² 20,5 °C 27,2 °C 8,0 km/h (2 Bft)
16.08.2023 19:05 24,2 °C 27,2 °C 66 % 67 % 1019,1 hPa 0,0 l/m² 6,1 km/h (2 Bft) N 360 ° 1 min 77 W/m² 20,5 °C 27,2 °C 9,7 km/h (2 Bft)
16.08.2023 19:06 24,2 °C 27,2 °C 66 % 67 % 1019,0 hPa 0,0 l/m² 7,7 km/h (2 Bft) N-NW 342 ° 1 min 83 W/m² 20,5 °C 27,0 °C 9,7 km/h (2 Bft)
16.08.2023 19:07 24,2 °C 27,2 °C 66 % 67 % 1019,1 hPa 0,0 l/m² 3,9 km/h (1 Bft) N 350 ° 1 min 81 W/m² 20,5 °C 27,2 °C 6,4 km/h (2 Bft)
16.08.2023 19:08 24,2 °C 27,2 °C 66 % 67 % 1019,0 hPa 0,0 l/m² 6,0 km/h (2 Bft) N-NW 331 ° 1 min 63 W/m² 20,5 °C 27,2 °C 9,7 km/h (2 Bft)
16.08.2023 19:09 24,2 °C 27,2 °C 66 % 67 % 1019,1 hPa 0,0 l/m² 7,0 km/h (2 Bft) N-NW 348 ° 1 min 58 W/m² 20,5 °C 27,1 °C 9,7 km/h (2 Bft)
16.08.2023 19:11 24,2 °C 27,1 °C 66 % 66 % 1019,1 hPa 0,0 l/m² 9,4 km/h (2 Bft) N 349 ° 2 min 53 W/m² 20,2 °C 26,6 °C 12,9 km/h (3 Bft)
16.08.2023 19:13 24,2 °C 27,1 °C 66 % 67 % 1019,1 hPa 0,0 l/m² 7,6 km/h (2 Bft) N 5 ° 0 min 49 W/m² 20,4 °C 26,9 °C 9,7 km/h (2 Bft)
16.08.2023 19:14 24,2 °C 27,1 °C 66 % 67 % 1019,1 hPa 0,0 l/m² 4,4 km/h (1 Bft) N 355 ° 0 min 49 W/m² 20,4 °C 27,1 °C 6,4 km/h (2 Bft)
16.08.2023 19:15 24,2 °C 27,1 °C 66 % 67 % 1019,1 hPa 0,0 l/m² 6,2 km/h (2 Bft) N-NW 345 ° 1 min 54 W/m² 20,4 °C 27,1 °C 8,0 km/h (2 Bft)
16.08.2023 19:16 24,2 °C 27,0 °C 66 % 68 % 1019,2 hPa 0,0 l/m² 9,2 km/h (2 Bft) N 5 ° 1 min 54 W/m² 20,6 °C 26,5 °C 12,9 km/h (3 Bft)
16.08.2023 19:17 24,2 °C 27,0 °C 66 % 67 % 1019,1 hPa 0,0 l/m² 7,7 km/h (2 Bft) N 5 ° 1 min 54 W/m² 20,3 °C 26,8 °C 9,7 km/h (2 Bft)
16.08.2023 19:18 24,2 °C 26,9 °C 66 % 68 % 1019,1 hPa 0,0 l/m² 5,4 km/h (2 Bft) N 5 ° 0 min 49 W/m² 20,5 °C 26,9 °C 8,0 km/h (2 Bft)
16.08.2023 19:19 24,2 °C 26,9 °C 66 % 68 % 1019,2 hPa 0,0 l/m² 5,0 km/h (1 Bft) N-NW 339 ° 0 min 44 W/m² 20,5 °C 26,9 °C 6,4 km/h (2 Bft)
16.08.2023 19:21 24,2 °C 26,9 °C 66 % 69 % 1019,1 hPa 0,0 l/m² 4,4 km/h (1 Bft) N 5 ° 0 min 51 W/m² 20,7 °C 26,9 °C 8,0 km/h (2 Bft)
16.08.2023 19:23 24,2 °C 26,8 °C 66 % 69 % 1019,1 hPa 0,0 l/m² 5,8 km/h (2 Bft) N 355 ° 2 min 60 W/m² 20,6 °C 26,8 °C 9,7 km/h (2 Bft)
16.08.2023 19:24 24,2 °C 26,8 °C 66 % 69 % 1019,1 hPa 0,0 l/m² 3,2 km/h (1 Bft) N-NW 343 ° 1 min 58 W/m² 20,6 °C 26,8 °C 6,4 km/h (2 Bft)
16.08.2023 19:25 24,2 °C 26,8 °C 66 % 69 % 1019,1 hPa 0,0 l/m² 4,8 km/h (1 Bft) N-NO 19 ° 0 min 51 W/m² 20,6 °C 26,8 °C 6,4 km/h (2 Bft)
16.08.2023 19:27 24,2 °C 26,8 °C 66 % 69 % 1019,2 hPa 0,0 l/m² 5,1 km/h (1 Bft) N 5 ° 0 min 47 W/m² 20,6 °C 26,8 °C 8,0 km/h (2 Bft)
16.08.2023 19:28 24,2 °C 26,7 °C 66 % 69 % 1019,2 hPa 0,0 l/m² 4,4 km/h (1 Bft) N-NO 18 ° 0 min 46 W/m² 20,5 °C 26,7 °C 6,4 km/h (2 Bft)
16.08.2023 19:29 24,2 °C 26,7 °C 66 % 69 % 1019,2 hPa 0,0 l/m² 4,7 km/h (1 Bft) N 355 ° 0 min 44 W/m² 20,5 °C 26,7 °C 6,4 km/h (2 Bft)
16.08.2023 19:31 24,2 °C 26,7 °C 66 % 70 % 1019,2 hPa 0,0 l/m² 3,7 km/h (1 Bft) N 5 ° 0 min 44 W/m² 20,8 °C 26,7 °C 6,4 km/h (2 Bft)
16.08.2023 19:33 24,2 °C 26,6 °C 66 % 70 % 1019,1 hPa 0,0 l/m² 3,5 km/h (1 Bft) N-NO 14 ° 0 min 40 W/m² 20,7 °C 26,6 °C 6,4 km/h (2 Bft)
16.08.2023 19:34 24,2 °C 26,6 °C 66 % 70 % 1019,1 hPa 0,0 l/m² 3,1 km/h (1 Bft) N 10 ° 0 min 39 W/m² 20,7 °C 26,6 °C 4,8 km/h (1 Bft)
16.08.2023 19:35 24,2 °C 26,5 °C 66 % 70 % 1019,2 hPa 0,0 l/m² 4,8 km/h (1 Bft) N 360 ° 0 min 39 W/m² 20,6 °C 26,5 °C 6,4 km/h (2 Bft)
16.08.2023 19:36 24,1 °C 26,5 °C 66 % 71 % 1019,1 hPa 0,0 l/m² 3,6 km/h (1 Bft) N 355 ° 0 min 37 W/m² 20,8 °C 26,5 °C 6,4 km/h (2 Bft)
16.08.2023 19:37 24,2 °C 26,5 °C 66 % 71 % 1019,1 hPa 0,0 l/m² 6,2 km/h (2 Bft) N 355 ° 0 min 35 W/m² 20,8 °C 26,5 °C 8,0 km/h (2 Bft)
16.08.2023 19:38 24,2 °C 26,4 °C 66 % 71 % 1019,1 hPa 0,0 l/m² 2,2 km/h (1 Bft) N 355 ° 0 min 35 W/m² 20,7 °C 26,4 °C 4,8 km/h (1 Bft)
16.08.2023 19:39 24,2 °C 26,4 °C 66 % 71 % 1019,0 hPa 0,0 l/m² 4,3 km/h (1 Bft) N 9 ° 0 min 32 W/m² 20,7 °C 26,4 °C 6,4 km/h (2 Bft)
16.08.2023 19:40 24,2 °C 26,4 °C 66 % 71 % 1019,1 hPa 0,0 l/m² 4,2 km/h (1 Bft) N 355 ° 0 min 32 W/m² 20,7 °C 26,4 °C 8,0 km/h (2 Bft)
16.08.2023 19:42 24,2 °C 26,4 °C 67 % 71 % 1019,0 hPa 0,0 l/m² 3,3 km/h (1 Bft) N 5 ° 0 min 30 W/m² 20,7 °C 26,4 °C 6,4 km/h (2 Bft)
16.08.2023 19:43 24,2 °C 26,3 °C 67 % 71 % 1019,0 hPa 0,0 l/m² 4,4 km/h (1 Bft) N-NO 33 ° 0 min 30 W/m² 20,6 °C 26,3 °C 11,3 km/h (2 Bft)
16.08.2023 19:44 24,2 °C 26,3 °C 67 % 71 % 1019,0 hPa 0,0 l/m² 3,1 km/h (1 Bft) N 5 ° 0 min 28 W/m² 20,6 °C 26,3 °C 4,8 km/h (1 Bft)
16.08.2023 19:45 24,2 °C 26,3 °C 67 % 71 % 1019,0 hPa 0,0 l/m² 3,6 km/h (1 Bft) N-NO 30 ° 0 min 28 W/m² 20,6 °C 26,3 °C 4,8 km/h (1 Bft)
16.08.2023 19:46 24,2 °C 26,3 °C 67 % 71 % 1019,0 hPa 0,0 l/m² 5,2 km/h (1 Bft) N 5 ° 0 min 26 W/m² 20,6 °C 26,3 °C 6,4 km/h (2 Bft)
16.08.2023 19:47 24,2 °C 26,2 °C 67 % 71 % 1019,0 hPa 0,0 l/m² 3,8 km/h (1 Bft) N 5 ° 0 min 26 W/m² 20,5 °C 26,2 °C 6,4 km/h (2 Bft)
16.08.2023 19:48 24,2 °C 26,2 °C 67 % 72 % 1019,0 hPa 0,0 l/m² 3,9 km/h (1 Bft) N-NO 17 ° 0 min 26 W/m² 20,7 °C 26,2 °C 6,4 km/h (2 Bft)
16.08.2023 19:49 24,2 °C 26,2 °C 67 % 72 % 1019,0 hPa 0,0 l/m² 5,2 km/h (1 Bft) N-NO 19 ° 0 min 25 W/m² 20,7 °C 26,2 °C 8,0 km/h (2 Bft)
16.08.2023 19:51 24,2 °C 26,2 °C 67 % 73 % 1019,0 hPa 0,0 l/m² 3,7 km/h (1 Bft) N-NO 15 ° 0 min 21 W/m² 21,0 °C 26,2 °C 8,0 km/h (2 Bft)
16.08.2023 19:53 24,2 °C 26,1 °C 67 % 73 % 1019,1 hPa 0,0 l/m² 4,2 km/h (1 Bft) N 5 ° 0 min 19 W/m² 20,9 °C 26,1 °C 6,4 km/h (2 Bft)
16.08.2023 19:54 24,2 °C 26,1 °C 67 % 73 % 1019,1 hPa 0,0 l/m² 3,1 km/h (1 Bft) NO 44 ° 0 min 19 W/m² 20,9 °C 26,1 °C 6,4 km/h (2 Bft)
16.08.2023 19:55 24,2 °C 26,1 °C 67 % 73 % 1019,1 hPa 0,0 l/m² 4,9 km/h (1 Bft) N-NO 28 ° 0 min 18 W/m² 20,9 °C 26,1 °C 6,4 km/h (2 Bft)
16.08.2023 19:56 24,2 °C 26,0 °C 67 % 73 % 1019,1 hPa 0,0 l/m² 2,9 km/h (1 Bft) N 5 ° 0 min 18 W/m² 20,8 °C 26,0 °C 6,4 km/h (2 Bft)
16.08.2023 19:57 24,2 °C 26,0 °C 67 % 74 % 1019,1 hPa 0,0 l/m² 4,6 km/h (1 Bft) N-NW 348 ° 0 min 16 W/m² 21,0 °C 26,0 °C 6,4 km/h (2 Bft)
16.08.2023 19:58 24,2 °C 25,9 °C 67 % 73 % 1019,0 hPa 0,0 l/m² 3,3 km/h (1 Bft) N 5 ° 0 min 16 W/m² 20,7 °C 25,9 °C 4,8 km/h (1 Bft)
16.08.2023 19:59 24,2 °C 25,9 °C 67 % 74 % 1019,1 hPa 0,0 l/m² 4,5 km/h (1 Bft) N-NO 29 ° 0 min 14 W/m² 20,9 °C 25,9 °C 8,0 km/h (2 Bft)
16.08.2023 20:00 24,2 °C 25,9 °C 67 % 74 % 1019,1 hPa 0,0 l/m² 2,4 km/h (1 Bft) N-NO 17 ° 0 min 14 W/m² 20,9 °C 25,9 °C 6,4 km/h (2 Bft)
16.08.2023 20:02 24,2 °C 25,9 °C 67 % 74 % 1019,1 hPa 0,0 l/m² 3,9 km/h (1 Bft) N 5 ° 0 min 12 W/m² 20,9 °C 25,9 °C 6,4 km/h (2 Bft)
16.08.2023 20:03 24,2 °C 25,8 °C 67 % 74 % 1019,1 hPa 0,0 l/m² 3,0 km/h (1 Bft) N-NO 15 ° 0 min 12 W/m² 20,8 °C 25,8 °C 4,8 km/h (1 Bft)
16.08.2023 20:04 24,2 °C 25,8 °C 67 % 74 % 1019,1 hPa 0,0 l/m² 5,1 km/h (1 Bft) N-NO 22 ° 0 min 11 W/m² 20,8 °C 25,8 °C 9,7 km/h (2 Bft)
16.08.2023 20:05 24,2 °C 25,8 °C 67 % 74 % 1019,1 hPa 0,0 l/m² 4,1 km/h (1 Bft) N-NO 18 ° 0 min 11 W/m² 20,8 °C 25,8 °C 4,8 km/h (1 Bft)
16.08.2023 20:06 24,2 °C 25,7 °C 67 % 74 % 1019,1 hPa 0,0 l/m² 3,6 km/h (1 Bft) N 5 ° 0 min 11 W/m² 20,7 °C 25,7 °C 4,8 km/h (1 Bft)
16.08.2023 20:07 24,2 °C 25,7 °C 67 % 74 % 1019,2 hPa 0,0 l/m² 3,2 km/h (1 Bft) N-NO 13 ° 0 min 11 W/m² 20,7 °C 25,7 °C 6,4 km/h (2 Bft)
16.08.2023 20:08 24,2 °C 25,7 °C 68 % 74 % 1019,1 hPa 0,0 l/m² 3,5 km/h (1 Bft) N-NO 16 ° 0 min 9 W/m² 20,7 °C 25,7 °C 4,8 km/h (1 Bft)
16.08.2023 20:09 24,2 °C 25,6 °C 68 % 75 % 1019,1 hPa 0,0 l/m² 4,4 km/h (1 Bft) N-NO 21 ° 0 min 9 W/m² 20,8 °C 25,6 °C 6,4 km/h (2 Bft)
16.08.2023 20:10 24,2 °C 25,7 °C 67 % 75 % 1019,2 hPa 0,0 l/m² 2,9 km/h (1 Bft) N 5 ° 0 min 9 W/m² 20,9 °C 25,7 °C 4,8 km/h (1 Bft)
16.08.2023 20:12 24,2 °C 25,6 °C 68 % 75 % 1019,2 hPa 0,0 l/m² 2,7 km/h (1 Bft) N 5 ° 0 min 9 W/m² 20,8 °C 25,6 °C 4,8 km/h (1 Bft)
16.08.2023 20:13 24,2 °C 25,6 °C 67 % 75 % 1019,2 hPa 0,0 l/m² 2,9 km/h (1 Bft) N 5 ° 0 min 7 W/m² 20,8 °C 25,6 °C 4,8 km/h (1 Bft)
16.08.2023 20:14 24,2 °C 25,5 °C 67 % 75 % 1019,2 hPa 0,0 l/m² 3,8 km/h (1 Bft) N 355 ° 0 min 7 W/m² 20,7 °C 25,5 °C 6,4 km/h (2 Bft)
16.08.2023 20:15 24,2 °C 25,4 °C 67 % 75 % 1019,2 hPa 0,0 l/m² 3,5 km/h (1 Bft) N 355 ° 0 min 7 W/m² 20,6 °C 25,4 °C 4,8 km/h (1 Bft)
16.08.2023 20:16 24,2 °C 25,4 °C 67 % 75 % 1019,2 hPa 0,0 l/m² 5,1 km/h (1 Bft) N 360 ° 0 min 7 W/m² 20,6 °C 25,4 °C 8,0 km/h (2 Bft)
16.08.2023 20:17 24,2 °C 25,4 °C 67 % 75 % 1019,3 hPa 0,0 l/m² 3,4 km/h (1 Bft) N-NO 16 ° 0 min 5 W/m² 20,6 °C 25,4 °C 8,0 km/h (2 Bft)
16.08.2023 20:18 24,2 °C 25,3 °C 67 % 76 % 1019,2 hPa 0,0 l/m² 2,4 km/h (1 Bft) N 11 ° 0 min 5 W/m² 20,8 °C 25,3 °C 3,2 km/h (1 Bft)
16.08.2023 20:19 24,2 °C 25,3 °C 67 % 76 % 1019,3 hPa 0,0 l/m² 3,1 km/h (1 Bft) N 355 ° 0 min 5 W/m² 20,8 °C 25,3 °C 4,8 km/h (1 Bft)
16.08.2023 20:20 24,2 °C 25,3 °C 67 % 76 % 1019,3 hPa 0,0 l/m² 2,6 km/h (1 Bft) N 355 ° 0 min 5 W/m² 20,8 °C 25,3 °C 4,8 km/h (1 Bft)
16.08.2023 20:22 24,2 °C 25,3 °C 67 % 76 % 1019,3 hPa 0,0 l/m² 4,1 km/h (1 Bft) N-NW 342 ° 0 min 5 W/m² 20,8 °C 25,3 °C 6,4 km/h (2 Bft)
16.08.2023 20:23 24,2 °C 25,2 °C 67 % 76 % 1019,3 hPa 0,0 l/m² 6,1 km/h (2 Bft) N-NW 346 ° 0 min 5 W/m² 20,7 °C 25,2 °C 8,0 km/h (2 Bft)
16.08.2023 20:24 24,2 °C 25,2 °C 67 % 76 % 1019,4 hPa 0,0 l/m² 5,0 km/h (1 Bft) N 350 ° 0 min 0 W/m² 20,7 °C 25,2 °C 6,4 km/h (2 Bft)
16.08.2023 20:25 24,2 °C 25,1 °C 67 % 76 % 1019,4 hPa 0,0 l/m² 5,4 km/h (2 Bft) N-NW 340 ° 0 min 0 W/m² 20,6 °C 25,1 °C 6,4 km/h (2 Bft)
16.08.2023 20:26 24,2 °C 25,1 °C 67 % 76 % 1019,3 hPa 0,0 l/m² 5,9 km/h (2 Bft) N-NW 339 ° 0 min 0 W/m² 20,6 °C 25,1 °C 6,4 km/h (2 Bft)
16.08.2023 20:27 24,2 °C 25,1 °C 67 % 76 % 1019,3 hPa 0,0 l/m² 5,1 km/h (1 Bft) N-NW 336 ° 0 min 0 W/m² 20,6 °C 25,1 °C 6,4 km/h (2 Bft)
16.08.2023 20:28 24,2 °C 25,1 °C 67 % 76 % 1019,4 hPa 0,0 l/m² 5,1 km/h (1 Bft) N-NW 331 ° 0 min 0 W/m² 20,6 °C 25,1 °C 6,4 km/h (2 Bft)
16.08.2023 20:29 24,2 °C 24,9 °C 67 % 77 % 1019,4 hPa 0,0 l/m² 5,7 km/h (2 Bft) N-NW 340 ° 0 min 0 W/m² 20,6 °C 24,9 °C 8,0 km/h (2 Bft)
16.08.2023 20:30 24,2 °C 24,9 °C 67 % 77 % 1019,3 hPa 0,0 l/m² 5,1 km/h (1 Bft) N-NW 341 ° 0 min 0 W/m² 20,6 °C 24,9 °C 8,0 km/h (2 Bft)
16.08.2023 20:32 24,3 °C 24,9 °C 67 % 77 % 1019,4 hPa 0,0 l/m² 6,6 km/h (2 Bft) N-NW 348 ° 0 min 0 W/m² 20,6 °C 24,9 °C 9,7 km/h (2 Bft)
16.08.2023 20:33 24,2 °C 24,8 °C 67 % 77 % 1019,3 hPa 0,0 l/m² 6,4 km/h (2 Bft) N-NW 337 ° 0 min 0 W/m² 20,5 °C 24,8 °C 8,0 km/h (2 Bft)
16.08.2023 20:34 24,2 °C 24,8 °C 67 % 77 % 1019,4 hPa 0,0 l/m² 6,2 km/h (2 Bft) N-NW 348 ° 0 min 0 W/m² 20,5 °C 24,8 °C 8,0 km/h (2 Bft)
16.08.2023 20:35 24,2 °C 24,7 °C 67 % 78 % 1019,4 hPa 0,0 l/m² 7,5 km/h (2 Bft) N-NW 342 ° 0 min 0 W/m² 20,6 °C 24,4 °C 12,9 km/h (3 Bft)
16.08.2023 20:36 24,2 °C 24,7 °C 67 % 78 % 1019,3 hPa 0,0 l/m² 6,4 km/h (2 Bft) N-NW 334 ° 0 min 0 W/m² 20,6 °C 24,7 °C 8,0 km/h (2 Bft)
16.08.2023 20:37 24,2 °C 24,7 °C 67 % 78 % 1019,4 hPa 0,0 l/m² 8,3 km/h (2 Bft) N 351 ° 0 min 0 W/m² 20,6 °C 24,2 °C 9,7 km/h (2 Bft)
16.08.2023 20:38 24,2 °C 24,6 °C 67 % 78 % 1019,4 hPa 0,0 l/m² 6,0 km/h (2 Bft) N 355 ° 0 min 0 W/m² 20,5 °C 24,6 °C 8,0 km/h (2 Bft)
16.08.2023 20:39 24,2 °C 24,6 °C 67 % 78 % 1019,4 hPa 0,0 l/m² 7,3 km/h (2 Bft) N-NW 347 ° 0 min 0 W/m² 20,5 °C 24,4 °C 9,7 km/h (2 Bft)
16.08.2023 20:41 24,2 °C 24,5 °C 67 % 78 % 1019,4 hPa 0,0 l/m² 5,2 km/h (1 Bft) N-NW 340 ° 0 min 0 W/m² 20,4 °C 24,5 °C 8,0 km/h (2 Bft)
16.08.2023 20:43 24,2 °C 24,4 °C 67 % 79 % 1019,4 hPa 0,0 l/m² 5,9 km/h (2 Bft) N-NW 337 ° 0 min 0 W/m² 20,5 °C 24,4 °C 11,3 km/h (2 Bft)
16.08.2023 20:44 24,2 °C 24,4 °C 67 % 79 % 1019,5 hPa 0,0 l/m² 6,6 km/h (2 Bft) N-NW 342 ° 0 min 0 W/m² 20,5 °C 24,4 °C 8,0 km/h (2 Bft)
16.08.2023 20:45 24,2 °C 24,3 °C 67 % 79 % 1019,5 hPa 0,0 l/m² 6,4 km/h (2 Bft) N 350 ° 0 min 0 W/m² 20,4 °C 24,3 °C 9,7 km/h (2 Bft)
16.08.2023 20:46 24,2 °C 24,3 °C 67 % 79 % 1019,5 hPa 0,0 l/m² 6,4 km/h (2 Bft) N-NW 336 ° 0 min 0 W/m² 20,4 °C 24,3 °C 9,7 km/h (2 Bft)
16.08.2023 20:47 24,2 °C 24,3 °C 68 % 79 % 1019,4 hPa 0,0 l/m² 6,4 km/h (2 Bft) N-NW 339 ° 0 min 0 W/m² 20,4 °C 24,3 °C 9,7 km/h (2 Bft)
16.08.2023 20:48 24,2 °C 24,2 °C 68 % 79 % 1019,4 hPa 0,0 l/m² 8,2 km/h (2 Bft) N 350 ° 0 min 0 W/m² 20,3 °C 23,7 °C 9,7 km/h (2 Bft)
16.08.2023 20:49 24,2 °C 24,2 °C 68 % 80 % 1019,4 hPa 0,0 l/m² 7,8 km/h (2 Bft) N 360 ° 0 min 0 W/m² 20,5 °C 23,8 °C 12,9 km/h (3 Bft)
16.08.2023 20:51 24,3 °C 24,1 °C 68 % 80 % 1019,5 hPa 0,0 l/m² 8,1 km/h (2 Bft) N-NW 340 ° 0 min 0 W/m² 20,4 °C 23,6 °C 14,5 km/h (3 Bft)
16.08.2023 20:53 24,3 °C 24,1 °C 68 % 80 % 1019,3 hPa 0,0 l/m² 7,7 km/h (2 Bft) N 360 ° 0 min 0 W/m² 20,4 °C 23,7 °C 12,9 km/h (3 Bft)
16.08.2023 20:54 24,3 °C 24,1 °C 68 % 80 % 1019,4 hPa 0,0 l/m² 7,1 km/h (2 Bft) N 355 ° 0 min 0 W/m² 20,4 °C 23,9 °C 9,7 km/h (2 Bft)
16.08.2023 20:55 24,3 °C 24,0 °C 68 % 80 % 1019,4 hPa 0,0 l/m² 7,2 km/h (2 Bft) N 355 ° 0 min 0 W/m² 20,3 °C 23,8 °C 12,9 km/h (3 Bft)
16.08.2023 20:56 24,3 °C 23,9 °C 68 % 80 % 1019,4 hPa 0,0 l/m² 8,0 km/h (2 Bft) N-NW 339 ° 0 min 0 W/m² 20,2 °C 23,4 °C 12,9 km/h (3 Bft)
16.08.2023 20:57 24,3 °C 23,9 °C 68 % 80 % 1019,4 hPa 0,0 l/m² 7,1 km/h (2 Bft) N-NW 341 ° 0 min 0 W/m² 20,2 °C 23,7 °C 9,7 km/h (2 Bft)
16.08.2023 20:58 24,3 °C 23,9 °C 68 % 80 % 1019,4 hPa 0,0 l/m² 9,5 km/h (2 Bft) N-NW 331 ° 0 min 0 W/m² 20,2 °C 23,1 °C 14,5 km/h (3 Bft)
16.08.2023 20:59 24,3 °C 23,8 °C 68 % 81 % 1019,4 hPa 0,0 l/m² 7,6 km/h (2 Bft) N-NW 340 ° 0 min 0 W/m² 20,3 °C 23,5 °C 12,9 km/h (3 Bft)
16.08.2023 21:01 24,3 °C 23,8 °C 68 % 81 % 1019,4 hPa 0,0 l/m² 7,9 km/h (2 Bft) N 360 ° 0 min 0 W/m² 20,3 °C 23,4 °C 14,5 km/h (3 Bft)
16.08.2023 21:03 24,3 °C 23,8 °C 68 % 81 % 1019,5 hPa 0,0 l/m² 5,9 km/h (2 Bft) N 5 ° 0 min 0 W/m² 20,3 °C 23,8 °C 11,3 km/h (2 Bft)
16.08.2023 21:04 24,3 °C 23,8 °C 68 % 81 % 1019,4 hPa 0,0 l/m² 5,9 km/h (2 Bft) N-NW 335 ° 0 min 0 W/m² 20,3 °C 23,8 °C 9,7 km/h (2 Bft)
16.08.2023 21:05 24,3 °C 23,7 °C 68 % 81 % 1019,5 hPa 0,0 l/m² 7,9 km/h (2 Bft) N 360 ° 0 min 0 W/m² 20,2 °C 23,3 °C 9,7 km/h (2 Bft)
16.08.2023 21:06 24,3 °C 23,7 °C 68 % 81 % 1019,4 hPa 0,0 l/m² 5,1 km/h (1 Bft) N 355 ° 0 min 0 W/m² 20,2 °C 23,7 °C 8,0 km/h (2 Bft)
16.08.2023 21:07 24,3 °C 23,6 °C 68 % 81 % 1019,4 hPa 0,0 l/m² 5,2 km/h (1 Bft) N-NW 342 ° 0 min 0 W/m² 20,1 °C 23,6 °C 8,0 km/h (2 Bft)
16.08.2023 21:08 24,3 °C 23,6 °C 68 % 81 % 1019,4 hPa 0,0 l/m² 6,0 km/h (2 Bft) N-NW 348 ° 0 min 0 W/m² 20,1 °C 23,6 °C 8,0 km/h (2 Bft)
16.08.2023 21:09 24,3 °C 23,6 °C 68 % 81 % 1019,5 hPa 0,0 l/m² 7,3 km/h (2 Bft) N 355 ° 0 min 0 W/m² 20,1 °C 23,3 °C 9,7 km/h (2 Bft)
16.08.2023 21:10 24,3 °C 23,6 °C 68 % 81 % 1019,4 hPa 0,0 l/m² 4,9 km/h (1 Bft) N 350 ° 0 min 0 W/m² 20,1 °C 23,6 °C 8,0 km/h (2 Bft)
16.08.2023 21:12 24,3 °C 23,5 °C 68 % 81 % 1019,5 hPa 0,0 l/m² 7,1 km/h (2 Bft) N 360 ° 0 min 0 W/m² 20,0 °C 23,3 °C 9,7 km/h (2 Bft)
16.08.2023 21:13 24,3 °C 23,5 °C 68 % 82 % 1019,5 hPa 0,0 l/m² 8,5 km/h (2 Bft) N-NW 331 ° 0 min 0 W/m² 20,2 °C 22,9 °C 12,9 km/h (3 Bft)
16.08.2023 21:14 24,4 °C 23,4 °C 68 % 82 % 1019,5 hPa 0,0 l/m² 6,7 km/h (2 Bft) N 355 ° 0 min 0 W/m² 20,1 °C 23,3 °C 8,0 km/h (2 Bft)
16.08.2023 21:15 24,4 °C 23,4 °C 68 % 82 % 1019,5 hPa 0,0 l/m² 5,4 km/h (2 Bft) N 355 ° 0 min 0 W/m² 20,1 °C 23,4 °C 8,0 km/h (2 Bft)
16.08.2023 21:16 24,3 °C 23,4 °C 68 % 82 % 1019,5 hPa 0,0 l/m² 4,4 km/h (1 Bft) N 355 ° 0 min 0 W/m² 20,1 °C 23,4 °C 6,4 km/h (2 Bft)
16.08.2023 21:17 24,3 °C 23,3 °C 68 % 82 % 1019,4 hPa 0,0 l/m² 5,8 km/h (2 Bft) N-NW 348 ° 0 min 0 W/m² 20,0 °C 23,3 °C 8,0 km/h (2 Bft)
16.08.2023 21:18 24,3 °C 23,3 °C 68 % 82 % 1019,5 hPa 0,0 l/m² 3,5 km/h (1 Bft) N-NW 342 ° 0 min 0 W/m² 20,0 °C 23,3 °C 6,4 km/h (2 Bft)
16.08.2023 21:19 24,3 °C 23,3 °C 68 % 82 % 1019,5 hPa 0,0 l/m² 3,2 km/h (1 Bft) N 355 ° 0 min 0 W/m² 20,0 °C 23,3 °C 6,4 km/h (2 Bft)
16.08.2023 21:21 24,3 °C 23,3 °C 68 % 82 % 1019,6 hPa 0,0 l/m² 6,0 km/h (2 Bft) N 5 ° 0 min 0 W/m² 20,0 °C 23,3 °C 12,9 km/h (3 Bft)
16.08.2023 21:23 24,3 °C 23,2 °C 68 % 82 % 1019,6 hPa 0,0 l/m² 4,4 km/h (1 Bft) N-NO 13 ° 0 min 0 W/m² 19,9 °C 23,2 °C 6,4 km/h (2 Bft)
16.08.2023 21:24 24,3 °C 23,2 °C 68 % 82 % 1019,5 hPa 0,0 l/m² 4,6 km/h (1 Bft) N 360 ° 0 min 0 W/m² 19,9 °C 23,2 °C 6,4 km/h (2 Bft)
16.08.2023 21:25 24,4 °C 23,2 °C 68 % 82 % 1019,5 hPa 0,0 l/m² 4,7 km/h (1 Bft) N-NW 344 ° 0 min 0 W/m² 19,9 °C 23,2 °C 6,4 km/h (2 Bft)
16.08.2023 21:26 24,4 °C 23,2 °C 68 % 82 % 1019,5 hPa 0,0 l/m² 4,3 km/h (1 Bft) N 355 ° 0 min 0 W/m² 19,9 °C 23,2 °C 6,4 km/h (2 Bft)
16.08.2023 21:27 24,4 °C 23,2 °C 68 % 82 % 1019,5 hPa 0,0 l/m² 3,0 km/h (1 Bft) N-NW 344 ° 0 min 0 W/m² 19,9 °C 23,2 °C 6,4 km/h (2 Bft)
16.08.2023 21:28 24,4 °C 23,2 °C 68 % 82 % 1019,5 hPa 0,0 l/m² 2,6 km/h (1 Bft) N-NW 345 ° 0 min 0 W/m² 19,9 °C 23,2 °C 6,4 km/h (2 Bft)
16.08.2023 21:29 24,3 °C 23,1 °C 68 % 82 % 1019,5 hPa 0,0 l/m² 5,8 km/h (2 Bft) N-NW 329 ° 0 min 0 W/m² 19,9 °C 23,1 °C 9,7 km/h (2 Bft)
16.08.2023 21:31 24,4 °C 23,1 °C 68 % 82 % 1019,5 hPa 0,0 l/m² 6,3 km/h (2 Bft) N 5 ° 0 min 0 W/m² 19,9 °C 23,1 °C 12,9 km/h (3 Bft)
16.08.2023 21:33 24,4 °C 23,1 °C 68 % 83 % 1019,6 hPa 0,0 l/m² 5,5 km/h (2 Bft) N-NW 348 ° 0 min 0 W/m² 20,0 °C 23,1 °C 8,0 km/h (2 Bft)
16.08.2023 21:34 24,4 °C 23,1 °C 68 % 83 % 1019,6 hPa 0,0 l/m² 3,8 km/h (1 Bft) N-NW 338 ° 0 min 0 W/m² 20,0 °C 23,1 °C 4,8 km/h (1 Bft)
16.08.2023 21:35 24,4 °C 23,1 °C 68 % 83 % 1019,5 hPa 0,0 l/m² 3,9 km/h (1 Bft) N 360 ° 0 min 0 W/m² 20,0 °C 23,1 °C 4,8 km/h (1 Bft)
16.08.2023 21:36 24,4 °C 23,0 °C 68 % 83 % 1019,5 hPa 0,0 l/m² 4,8 km/h (1 Bft) N 355 ° 0 min 0 W/m² 20,0 °C 23,0 °C 6,4 km/h (2 Bft)
16.08.2023 21:37 24,4 °C 23,0 °C 68 % 83 % 1019,5 hPa 0,0 l/m² 6,4 km/h (2 Bft) N 5 ° 0 min 0 W/m² 20,0 °C 23,0 °C 8,0 km/h (2 Bft)
16.08.2023 21:38 24,4 °C 23,0 °C 68 % 83 % 1019,6 hPa 0,0 l/m² 5,1 km/h (1 Bft) N-NW 344 ° 0 min 0 W/m² 20,0 °C 23,0 °C 6,4 km/h (2 Bft)
16.08.2023 21:39 24,4 °C 22,9 °C 68 % 83 % 1019,5 hPa 0,0 l/m² 6,2 km/h (2 Bft) N 350 ° 0 min 0 W/m² 19,9 °C 22,9 °C 8,0 km/h (2 Bft)
16.08.2023 21:40 24,4 °C 22,9 °C 68 % 83 % 1019,5 hPa 0,0 l/m² 5,5 km/h (2 Bft) N-NW 347 ° 0 min 0 W/m² 19,9 °C 22,9 °C 8,0 km/h (2 Bft)
16.08.2023 21:42 24,4 °C 22,9 °C 68 % 84 % 1019,4 hPa 0,0 l/m² 6,8 km/h (2 Bft) N-NW 330 ° 0 min 0 W/m² 20,0 °C 22,8 °C 9,7 km/h (2 Bft)
16.08.2023 21:43 24,4 °C 22,9 °C 68 % 84 % 1019,5 hPa 0,0 l/m² 6,4 km/h (2 Bft) N-NW 340 ° 0 min 0 W/m² 20,0 °C 22,9 °C 8,0 km/h (2 Bft)
16.08.2023 21:44 24,4 °C 22,9 °C 68 % 84 % 1019,5 hPa 0,0 l/m² 5,8 km/h (2 Bft) N-NW 342 ° 0 min 0 W/m² 20,0 °C 22,9 °C 9,7 km/h (2 Bft)
16.08.2023 21:46 24,4 °C 22,8 °C 68 % 84 % 1019,5 hPa 0,0 l/m² 5,4 km/h (2 Bft) N 355 ° 0 min 0 W/m² 19,9 °C 22,8 °C 8,0 km/h (2 Bft)
16.08.2023 21:47 24,4 °C 22,8 °C 68 % 84 % 1019,4 hPa 0,0 l/m² 5,9 km/h (2 Bft) N 351 ° 0 min 0 W/m² 19,9 °C 22,8 °C 8,0 km/h (2 Bft)
16.08.2023 21:48 24,4 °C 22,8 °C 68 % 84 % 1019,4 hPa 0,0 l/m² 3,9 km/h (1 Bft) N 5 ° 0 min 0 W/m² 19,9 °C 22,8 °C 8,0 km/h (2 Bft)
16.08.2023 21:49 24,4 °C 22,8 °C 68 % 84 % 1019,5 hPa 0,0 l/m² 5,6 km/h (2 Bft) N-NW 333 ° 0 min 0 W/m² 19,9 °C 22,8 °C 9,7 km/h (2 Bft)
16.08.2023 21:51 24,4 °C 22,8 °C 68 % 84 % 1019,3 hPa 0,0 l/m² 5,1 km/h (1 Bft) N 360 ° 0 min 0 W/m² 19,9 °C 22,8 °C 8,0 km/h (2 Bft)
16.08.2023 21:53 24,4 °C 22,7 °C 68 % 84 % 1019,3 hPa 0,0 l/m² 2,7 km/h (1 Bft) N 355 ° 0 min 0 W/m² 19,9 °C 22,7 °C 8,0 km/h (2 Bft)
16.08.2023 21:54 24,4 °C 22,7 °C 68 % 84 % 1019,3 hPa 0,0 l/m² 4,2 km/h (1 Bft) NO 49 ° 0 min 0 W/m² 19,9 °C 22,7 °C 8,0 km/h (2 Bft)
16.08.2023 21:55 24,4 °C 22,7 °C 68 % 84 % 1019,3 hPa 0,0 l/m² 3,0 km/h (1 Bft) N-NO 29 ° 0 min 0 W/m² 19,9 °C 22,7 °C 6,4 km/h (2 Bft)
16.08.2023 21:56 24,4 °C 22,7 °C 68 % 84 % 1019,2 hPa 0,0 l/m² 6,6 km/h (2 Bft) N-NW 346 ° 0 min 0 W/m² 19,9 °C 22,6 °C 8,0 km/h (2 Bft)
16.08.2023 21:57 24,4 °C 22,7 °C 68 % 84 % 1019,3 hPa 0,0 l/m² 4,1 km/h (1 Bft) N 349 ° 0 min 0 W/m² 19,9 °C 22,7 °C 8,0 km/h (2 Bft)
16.08.2023 21:58 24,4 °C 22,7 °C 68 % 84 % 1019,3 hPa 0,0 l/m² 1,9 km/h (1 Bft) N 5 ° 0 min 0 W/m² 19,9 °C 22,7 °C 4,8 km/h (1 Bft)
16.08.2023 21:59 24,4 °C 22,7 °C 68 % 84 % 1019,3 hPa 0,0 l/m² 1,3 km/h (1 Bft) N 5 ° 0 min 0 W/m² 19,9 °C 22,7 °C 3,2 km/h (1 Bft)
16.08.2023 22:01 24,4 °C 22,7 °C 68 % 84 % 1019,4 hPa 0,0 l/m² 1,2 km/h (1 Bft) N 355 ° 0 min 0 W/m² 19,9 °C 22,7 °C 6,4 km/h (2 Bft)
16.08.2023 22:03 24,4 °C 22,7 °C 68 % 84 % 1019,3 hPa 0,0 l/m² 1,1 km/h (1 Bft) N 355 ° 0 min 0 W/m² 19,9 °C 22,7 °C 3,2 km/h (1 Bft)
16.08.2023 22:04 24,4 °C 22,6 °C 68 % 84 % 1019,2 hPa 0,0 l/m² 2,3 km/h (1 Bft) N 355 ° 0 min 0 W/m² 19,8 °C 22,6 °C 4,8 km/h (1 Bft)
16.08.2023 22:05 24,4 °C 22,6 °C 67 % 84 % 1019,2 hPa 0,0 l/m² 0,0 km/h (0 Bft) N 355 ° 0 min 0 W/m² 19,8 °C 22,6 °C 0,0 km/h (0 Bft)
16.08.2023 22:06 24,4 °C 22,6 °C 67 % 84 % 1019,3 hPa 0,0 l/m² 2,7 km/h (1 Bft) N 355 ° 0 min 0 W/m² 19,8 °C 22,6 °C 6,4 km/h (2 Bft)
16.08.2023 22:07 24,5 °C 22,6 °C 67 % 84 % 1019,2 hPa 0,0 l/m² 2,3 km/h (1 Bft) N-NW 345 ° 0 min 0 W/m² 19,8 °C 22,6 °C 4,8 km/h (1 Bft)
16.08.2023 22:08 24,4 °C 22,6 °C 67 % 84 % 1019,3 hPa 0,0 l/m² 1,3 km/h (1 Bft) N-NW 340 ° 0 min 0 W/m² 19,8 °C 22,6 °C 3,2 km/h (1 Bft)
16.08.2023 22:09 24,4 °C 22,6 °C 67 % 84 % 1019,3 hPa 0,0 l/m² 0,0 km/h (0 Bft) N-NW 340 ° 0 min 0 W/m² 19,8 °C 22,6 °C 0,0 km/h (0 Bft)
16.08.2023 22:10 24,4 °C 22,6 °C 67 % 84 % 1019,3 hPa 0,0 l/m² 0,0 km/h (0 Bft) N-NW 340 ° 0 min 0 W/m² 19,8 °C 22,6 °C 0,0 km/h (0 Bft)
16.08.2023 22:12 24,4 °C 22,6 °C 67 % 84 % 1019,3 hPa 0,0 l/m² 1,4 km/h (1 Bft) N-NW 338 ° 0 min 0 W/m² 19,8 °C 22,6 °C 4,8 km/h (1 Bft)
16.08.2023 22:13 24,4 °C 22,6 °C 67 % 84 % 1019,3 hPa 0,0 l/m² 2,6 km/h (1 Bft) N-NW 327 ° 0 min 0 W/m² 19,8 °C 22,6 °C 4,8 km/h (1 Bft)
16.08.2023 22:14 24,5 °C 22,6 °C 67 % 84 % 1019,4 hPa 0,0 l/m² 1,2 km/h (1 Bft) NW 326 ° 0 min 0 W/m² 19,8 °C 22,6 °C 4,8 km/h (1 Bft)
16.08.2023 22:15 24,5 °C 22,6 °C 67 % 84 % 1019,3 hPa 0,0 l/m² 4,7 km/h (1 Bft) NW 326 ° 0 min 0 W/m² 19,8 °C 22,6 °C 8,0 km/h (2 Bft)
16.08.2023 22:16 24,4 °C 22,5 °C 67 % 84 % 1019,3 hPa 0,0 l/m² 1,7 km/h (1 Bft) N-NW 327 ° 0 min 0 W/m² 19,7 °C 22,5 °C 3,2 km/h (1 Bft)
16.08.2023 22:17 24,4 °C 22,5 °C 67 % 84 % 1019,3 hPa 0,0 l/m² 4,0 km/h (1 Bft) N-NO 15 ° 0 min 0 W/m² 19,7 °C 22,5 °C 8,0 km/h (2 Bft)
16.08.2023 22:18 24,4 °C 22,5 °C 67 % 84 % 1019,2 hPa 0,0 l/m² 4,3 km/h (1 Bft) NW 325 ° 0 min 0 W/m² 19,7 °C 22,5 °C 6,4 km/h (2 Bft)
16.08.2023 22:19 24,4 °C 22,4 °C 67 % 84 % 1019,2 hPa 0,0 l/m² 3,0 km/h (1 Bft) N-NW 327 ° 0 min 0 W/m² 19,6 °C 22,4 °C 4,8 km/h (1 Bft)
16.08.2023 22:21 24,5 °C 22,4 °C 67 % 85 % 1019,2 hPa 0,0 l/m² 3,8 km/h (1 Bft) N 355 ° 0 min 0 W/m² 19,7 °C 22,4 °C 6,4 km/h (2 Bft)
16.08.2023 22:23 24,5 °C 22,4 °C 67 % 85 % 1019,2 hPa 0,0 l/m² 0,6 km/h (0 Bft) N 355 ° 0 min 0 W/m² 19,7 °C 22,4 °C 3,2 km/h (1 Bft)
16.08.2023 22:24 24,4 °C 22,4 °C 67 % 85 % 1019,3 hPa 0,0 l/m² 0,1 km/h (0 Bft) N 355 ° 0 min 0 W/m² 19,7 °C 22,4 °C 1,6 km/h (1 Bft)
16.08.2023 22:25 24,5 °C 22,4 °C 67 % 85 % 1019,2 hPa 0,0 l/m² 0,0 km/h (0 Bft) N 355 ° 0 min 0 W/m² 19,7 °C 22,4 °C 0,0 km/h (0 Bft)
16.08.2023 22:26 24,4 °C 22,4 °C 67 % 85 % 1019,3 hPa 0,0 l/m² 0,0 km/h (0 Bft) N 355 ° 0 min 0 W/m² 19,7 °C 22,4 °C 0,0 km/h (0 Bft)
16.08.2023 22:27 24,5 °C 22,4 °C 67 % 85 % 1019,2 hPa 0,0 l/m² 1,6 km/h (1 Bft) N 355 ° 0 min 0 W/m² 19,7 °C 22,4 °C 3,2 km/h (1 Bft)
16.08.2023 22:28 24,4 °C 22,4 °C 67 % 85 % 1019,2 hPa 0,0 l/m² 1,4 km/h (1 Bft) N-NW 338 ° 0 min 0 W/m² 19,7 °C 22,4 °C 4,8 km/h (1 Bft)
16.08.2023 22:29 24,5 °C 22,4 °C 67 % 85 % 1019,2 hPa 0,0 l/m² 1,0 km/h (0 Bft) N-NW 330 ° 0 min 0 W/m² 19,7 °C 22,4 °C 4,8 km/h (1 Bft)
16.08.2023 22:30 24,5 °C 22,3 °C 67 % 85 % 1019,1 hPa 0,0 l/m² 0,7 km/h (0 Bft) N-NW 330 ° 0 min 0 W/m² 19,7 °C 22,3 °C 3,2 km/h (1 Bft)
16.08.2023 22:32 24,4 °C 22,3 °C 67 % 85 % 1019,1 hPa 0,0 l/m² 0,0 km/h (0 Bft) N-NW 329 ° 0 min 0 W/m² 19,7 °C 22,3 °C 1,6 km/h (1 Bft)
16.08.2023 22:33 24,5 °C 22,3 °C 67 % 85 % 1019,2 hPa 0,0 l/m² 0,1 km/h (0 Bft) N-NW 329 ° 0 min 0 W/m² 19,7 °C 22,3 °C 1,6 km/h (1 Bft)
16.08.2023 22:34 24,4 °C 22,3 °C 67 % 85 % 1019,1 hPa 0,0 l/m² 0,0 km/h (0 Bft) N-NW 330 ° 0 min 0 W/m² 19,7 °C 22,3 °C 0,0 km/h (0 Bft)
16.08.2023 22:35 24,4 °C 22,3 °C 67 % 85 % 1019,2 hPa 0,0 l/m² 0,0 km/h (0 Bft) N-NW 329 ° 0 min 0 W/m² 19,7 °C 22,3 °C 0,0 km/h (0 Bft)
16.08.2023 22:36 24,4 °C 22,3 °C 67 % 85 % 1019,1 hPa 0,0 l/m² 0,0 km/h (0 Bft) N-NW 329 ° 0 min 0 W/m² 19,7 °C 22,3 °C 0,0 km/h (0 Bft)
16.08.2023 22:37 24,4 °C 22,3 °C 67 % 85 % 1019,1 hPa 0,0 l/m² 0,0 km/h (0 Bft) N-NW 329 ° 0 min 0 W/m² 19,7 °C 22,3 °C 0,0 km/h (0 Bft)
16.08.2023 22:38 24,4 °C 22,2 °C 67 % 85 % 1019,1 hPa 0,0 l/m² 0,2 km/h (0 Bft) N-NW 330 ° 0 min 0 W/m² 19,6 °C 22,2 °C 1,6 km/h (1 Bft)
16.08.2023 22:39 24,4 °C 22,2 °C 67 % 85 % 1019,2 hPa 0,0 l/m² 0,0 km/h (0 Bft) N-NW 330 ° 0 min 0 W/m² 19,6 °C 22,2 °C 0,0 km/h (0 Bft)
16.08.2023 22:41 24,4 °C 22,2 °C 67 % 85 % 1019,2 hPa 0,0 l/m² 0,1 km/h (0 Bft) N-NW 330 ° 0 min 0 W/m² 19,6 °C 22,2 °C 1,6 km/h (1 Bft)
16.08.2023 22:43 24,4 °C 22,2 °C 67 % 85 % 1019,1 hPa 0,0 l/m² 0,6 km/h (0 Bft) N-NW 330 ° 0 min 0 W/m² 19,6 °C 22,2 °C 3,2 km/h (1 Bft)
16.08.2023 22:44 24,4 °C 22,2 °C 67 % 85 % 1019,2 hPa 0,0 l/m² 1,3 km/h (1 Bft) N-NW 330 ° 0 min 0 W/m² 19,6 °C 22,2 °C 4,8 km/h (1 Bft)
16.08.2023 22:45 24,4 °C 22,1 °C 67 % 85 % 1019,2 hPa 0,0 l/m² 0,1 km/h (0 Bft) N-NW 330 ° 0 min 0 W/m² 19,5 °C 22,1 °C 1,6 km/h (1 Bft)
16.08.2023 22:46 24,4 °C 22,2 °C 67 % 85 % 1019,2 hPa 0,0 l/m² 1,0 km/h (0 Bft) NW 322 ° 0 min 0 W/m² 19,6 °C 22,2 °C 1,6 km/h (1 Bft)
16.08.2023 22:47 24,4 °C 22,2 °C 67 % 85 % 1019,3 hPa 0,0 l/m² 2,1 km/h (1 Bft) W 279 ° 0 min 0 W/m² 19,6 °C 22,2 °C 4,8 km/h (1 Bft)
16.08.2023 22:48 24,4 °C 22,1 °C 67 % 85 % 1019,2 hPa 0,0 l/m² 0,1 km/h (0 Bft) W 279 ° 0 min 0 W/m² 19,5 °C 22,1 °C 1,6 km/h (1 Bft)
16.08.2023 22:49 24,4 °C 22,1 °C 67 % 85 % 1019,2 hPa 0,0 l/m² 0,0 km/h (0 Bft) W 279 ° 0 min 0 W/m² 19,5 °C 22,1 °C 0,0 km/h (0 Bft)
16.08.2023 22:50 24,4 °C 22,1 °C 67 % 85 % 1019,1 hPa 0,0 l/m² 1,0 km/h (0 Bft) W 281 ° 0 min 0 W/m² 19,5 °C 22,1 °C 3,2 km/h (1 Bft)
16.08.2023 22:52 24,4 °C 22,1 °C 67 % 85 % 1019,2 hPa 0,0 l/m² 0,8 km/h (0 Bft) W 281 ° 0 min 0 W/m² 19,5 °C 22,1 °C 3,2 km/h (1 Bft)
16.08.2023 22:53 24,4 °C 22,0 °C 67 % 86 % 1019,2 hPa 0,0 l/m² 0,2 km/h (0 Bft) W 281 ° 0 min 0 W/m² 19,5 °C 22,0 °C 1,6 km/h (1 Bft)
16.08.2023 22:54 24,4 °C 22,0 °C 67 % 86 % 1019,1 hPa 0,0 l/m² 0,3 km/h (0 Bft) W 273 ° 0 min 0 W/m² 19,5 °C 22,0 °C 1,6 km/h (1 Bft)
16.08.2023 22:55 24,4 °C 22,0 °C 67 % 86 % 1019,1 hPa 0,0 l/m² 1,0 km/h (0 Bft) W 273 ° 0 min 0 W/m² 19,5 °C 22,0 °C 3,2 km/h (1 Bft)
16.08.2023 22:56 24,4 °C 21,9 °C 67 % 86 % 1019,1 hPa 0,0 l/m² 0,2 km/h (0 Bft) W 273 ° 0 min 0 W/m² 19,4 °C 21,9 °C 1,6 km/h (1 Bft)
16.08.2023 22:57 24,3 °C 21,9 °C 67 % 86 % 1019,1 hPa 0,0 l/m² 0,0 km/h (0 Bft) W 273 ° 0 min 0 W/m² 19,4 °C 21,9 °C 0,0 km/h (0 Bft)
16.08.2023 22:58 24,3 °C 21,9 °C 67 % 86 % 1019,1 hPa 0,0 l/m² 0,0 km/h (0 Bft) W-NW 288 ° 0 min 0 W/m² 19,4 °C 21,9 °C 0,0 km/h (0 Bft)
16.08.2023 22:59 24,3 °C 21,9 °C 67 % 86 % 1019,1 hPa 0,0 l/m² 0,0 km/h (0 Bft) W-NW 287 ° 0 min 0 W/m² 19,4 °C 21,9 °C 0,0 km/h (0 Bft)
16.08.2023 23:00 24,3 °C 21,9 °C 67 % 86 % 1019,0 hPa 0,0 l/m² 0,8 km/h (0 Bft) W-NW 288 ° 0 min 0 W/m² 19,4 °C 21,9 °C 1,6 km/h (1 Bft)
16.08.2023 23:02 24,3 °C 21,9 °C 67 % 86 % 1019,0 hPa 0,0 l/m² 0,9 km/h (0 Bft) N-NW 338 ° 0 min 0 W/m² 19,4 °C 21,9 °C 6,4 km/h (2 Bft)
16.08.2023 23:03 24,3 °C 21,8 °C 67 % 86 % 1019,0 hPa 0,0 l/m² 0,0 km/h (0 Bft) N-NW 338 ° 0 min 0 W/m² 19,3 °C 21,8 °C 0,0 km/h (0 Bft)
16.08.2023 23:04 24,3 °C 21,8 °C 67 % 86 % 1019,0 hPa 0,0 l/m² 0,0 km/h (0 Bft) N-NW 338 ° 0 min 0 W/m² 19,3 °C 21,8 °C 0,0 km/h (0 Bft)
16.08.2023 23:05 24,3 °C 21,8 °C 67 % 86 % 1019,0 hPa 0,0 l/m² 0,0 km/h (0 Bft) N-NW 338 ° 0 min 0 W/m² 19,3 °C 21,8 °C 0,0 km/h (0 Bft)
16.08.2023 23:06 24,3 °C 21,8 °C 67 % 86 % 1019,0 hPa 0,0 l/m² 0,9 km/h (0 Bft) N-NW 338 ° 0 min 0 W/m² 19,3 °C 21,8 °C 1,6 km/h (1 Bft)
16.08.2023 23:08 24,3 °C 21,8 °C 67 % 86 % 1019,0 hPa 0,0 l/m² 2,8 km/h (1 Bft) NW 307 ° 0 min 0 W/m² 19,3 °C 21,8 °C 6,4 km/h (2 Bft)
16.08.2023 23:09 24,3 °C 21,8 °C 67 % 86 % 1019,0 hPa 0,0 l/m² 1,0 km/h (0 Bft) NW 307 ° 0 min 0 W/m² 19,3 °C 21,8 °C 3,2 km/h (1 Bft)
16.08.2023 23:11 24,3 °C 21,8 °C 67 % 86 % 1018,9 hPa 0,0 l/m² 1,9 km/h (1 Bft) NW 307 ° 0 min 0 W/m² 19,3 °C 21,8 °C 4,8 km/h (1 Bft)
16.08.2023 23:13 24,3 °C 21,7 °C 67 % 86 % 1018,9 hPa 0,0 l/m² 2,5 km/h (1 Bft) W-NW 303 ° 0 min 0 W/m² 19,3 °C 21,7 °C 4,8 km/h (1 Bft)
16.08.2023 23:14 24,3 °C 21,7 °C 67 % 86 % 1018,9 hPa 0,0 l/m² 0,2 km/h (0 Bft) W-NW 303 ° 0 min 0 W/m² 19,3 °C 21,7 °C 1,6 km/h (1 Bft)
16.08.2023 23:15 24,3 °C 21,7 °C 67 % 87 % 1018,9 hPa 0,0 l/m² 1,9 km/h (1 Bft) W 276 ° 0 min 0 W/m² 19,4 °C 21,7 °C 6,4 km/h (2 Bft)
16.08.2023 23:16 24,3 °C 21,7 °C 67 % 87 % 1018,9 hPa 0,0 l/m² 1,6 km/h (1 Bft) W 270 ° 0 min 0 W/m² 19,4 °C 21,7 °C 4,8 km/h (1 Bft)
16.08.2023 23:17 24,3 °C 21,7 °C 67 % 87 % 1018,8 hPa 0,0 l/m² 1,6 km/h (1 Bft) W 270 ° 0 min 0 W/m² 19,4 °C 21,7 °C 3,2 km/h (1 Bft)
16.08.2023 23:26 24,3 °C 21,6 °C 67 % 87 % 1018,8 hPa 0,0 l/m² 2,7 km/h (1 Bft) W 269 ° 0 min 0 W/m² 19,3 °C 21,6 °C 3,2 km/h (1 Bft)
16.08.2023 23:28 24,3 °C 21,6 °C 67 % 87 % 1018,7 hPa 0,0 l/m² 2,6 km/h (1 Bft) W 269 ° 0 min 0 W/m² 19,3 °C 21,6 °C 4,8 km/h (1 Bft)
16.08.2023 23:29 24,3 °C 21,6 °C 67 % 87 % 1018,7 hPa 0,0 l/m² 0,7 km/h (0 Bft) W 269 ° 0 min 0 W/m² 19,3 °C 21,6 °C 1,6 km/h (1 Bft)
16.08.2023 23:31 24,3 °C 21,5 °C 67 % 87 % 1018,6 hPa 0,0 l/m² 0,5 km/h (0 Bft) W 269 ° 0 min 0 W/m² 19,2 °C 21,5 °C 3,2 km/h (1 Bft)
16.08.2023 23:32 24,3 °C 21,5 °C 67 % 87 % 1018,6 hPa 0,0 l/m² 1,0 km/h (0 Bft) W 269 ° 0 min 0 W/m² 19,2 °C 21,5 °C 3,2 km/h (1 Bft)
16.08.2023 23:34 24,3 °C 21,4 °C 67 % 87 % 1018,6 hPa 0,0 l/m² 0,0 km/h (0 Bft) W 269 ° 0 min 0 W/m² 19,1 °C 21,4 °C 1,6 km/h (1 Bft)
16.08.2023 23:36 24,3 °C 21,4 °C 67 % 87 % 1018,6 hPa 0,0 l/m² 0,6 km/h (0 Bft) W 269 ° 0 min 0 W/m² 19,1 °C 21,4 °C 3,2 km/h (1 Bft)
16.08.2023 23:38 24,3 °C 21,4 °C 67 % 88 % 1018,6 hPa 0,0 l/m² 0,2 km/h (0 Bft) W 269 ° 0 min 0 W/m² 19,3 °C 21,4 °C 3,2 km/h (1 Bft)
16.08.2023 23:40 24,3 °C 21,4 °C 67 % 88 % 1018,5 hPa 0,0 l/m² 0,8 km/h (0 Bft) W 269 ° 0 min 0 W/m² 19,3 °C 21,4 °C 3,2 km/h (1 Bft)
16.08.2023 23:41 24,3 °C 21,4 °C 67 % 88 % 1018,5 hPa 0,0 l/m² 0,7 km/h (0 Bft) W 269 ° 0 min 0 W/m² 19,3 °C 21,4 °C 3,2 km/h (1 Bft)
16.08.2023 23:42 24,3 °C 21,3 °C 67 % 88 % 1018,5 hPa 0,0 l/m² 1,1 km/h (1 Bft) W 269 ° 0 min 0 W/m² 19,2 °C 21,3 °C 3,2 km/h (1 Bft)
16.08.2023 23:44 24,3 °C 21,3 °C 67 % 88 % 1018,6 hPa 0,0 l/m² 2,3 km/h (1 Bft) W 269 ° 0 min 0 W/m² 19,2 °C 21,3 °C 4,8 km/h (1 Bft)
16.08.2023 23:46 24,3 °C 21,3 °C 67 % 88 % 1018,6 hPa 0,0 l/m² 1,2 km/h (1 Bft) W 269 ° 0 min 0 W/m² 19,2 °C 21,3 °C 3,2 km/h (1 Bft)
16.08.2023 23:48 24,3 °C 21,3 °C 67 % 88 % 1018,7 hPa 0,0 l/m² 0,0 km/h (0 Bft) W 269 ° 0 min 0 W/m² 19,2 °C 21,3 °C 0,0 km/h (0 Bft)
16.08.2023 23:50 24,2 °C 21,3 °C 67 % 88 % 1018,7 hPa 0,0 l/m² 2,2 km/h (1 Bft) W 268 ° 0 min 0 W/m² 19,2 °C 21,3 °C 4,8 km/h (1 Bft)
16.08.2023 23:51 24,3 °C 21,3 °C 67 % 88 % 1018,7 hPa 0,0 l/m² 0,2 km/h (0 Bft) W 268 ° 0 min 0 W/m² 19,2 °C 21,3 °C 1,6 km/h (1 Bft)
16.08.2023 23:52 24,3 °C 21,3 °C 67 % 88 % 1018,8 hPa 0,0 l/m² 1,1 km/h (1 Bft) W 268 ° 0 min 0 W/m² 19,2 °C 21,3 °C 3,2 km/h (1 Bft)
16.08.2023 23:53 24,3 °C 21,3 °C 67 % 88 % 1018,8 hPa 0,0 l/m² 2,2 km/h (1 Bft) W 268 ° 0 min 0 W/m² 19,2 °C 21,3 °C 3,2 km/h (1 Bft)
16.08.2023 23:54 24,3 °C 21,3 °C 67 % 89 % 1018,8 hPa 0,0 l/m² 0,7 km/h (0 Bft) W 268 ° 0 min 0 W/m² 19,4 °C 21,3 °C 3,2 km/h (1 Bft)
16.08.2023 23:56 24,3 °C 21,3 °C 67 % 88 % 1018,8 hPa 0,0 l/m² 1,5 km/h (1 Bft) W 268 ° 0 min 0 W/m² 19,2 °C 21,3 °C 3,2 km/h (1 Bft)
16.08.2023 23:58 24,3 °C 21,2 °C 67 % 88 % 1018,9 hPa 0,0 l/m² 2,9 km/h (1 Bft) W 274 ° 0 min 0 W/m² 19,1 °C 21,2 °C 4,8 km/h (1 Bft)
16.08.2023 23:59 24,2 °C 21,3 °C 67 % 89 % 1018,9 hPa 0,0 l/m² 3,0 km/h (1 Bft) W 276 ° 0 min 0 W/m² 19,4 °C 21,3 °C 4,8 km/h (1 Bft)
_ Min-Zeit 09:54 06:53 15:58 17:28 01:32 - 23:48 - - - - 06:11 06:53 23:48
Minimum _ 23,6 °C 17,8 °C 65 % 60 % 1018,2 hPa - 0,0 km/h (0 Bft) - - - - 17,0 °C 17,8 °C 0,0 km/h (0 Bft)
_ Max-Zeit 22:33 17:31 22:04 10:36 11:49 02:13 17:37 - - 19:23 14:05 13:06 17:31 18:00
Maximum _ 24,5 °C 28,8 °C 68 % 97 % 1020,6 hPa 0,2 l/m² 12,8 km/h
O-NO (3 Bft)
- - 2 min 998 W/m² 22,4 °C 28,8 °C 16,1 km/h
O-NO (3 Bft)
Durchschnitt _ 24,0 °C 22,5 °C 67 % 85 % 1019,5 hPa #1,6 l/m² 2,1 km/h (1 Bft) W-SW - #11:32 h 163 W/m² 19,6 °C 22,5 °C 3,7 km/h (1 Bft)
© 2009 Mathias Hoßbach